<?xml version='1.0' encoding='UTF-8'?><gpx version="1.1" creator="JPX - https://github.com/jenetics/jpx" xmlns="http://www.topografix.com/GPX/1/1"><trk><trkseg><trkpt lat="45.15844899875546" lon="9.322350494328907"><ele>74.0</ele><time>2026-04-11T13:03:58Z</time></trkpt><trkpt lat="45.158470138570685" lon="9.322212955047908"><ele>74.0</ele><time>2026-04-11T13:03:59Z</time></trkpt><trkpt lat="45.15849001384629" lon="9.322083431027805"><ele>74.0</ele><time>2026-04-11T13:04:00Z</time></trkpt><trkpt lat="45.15849910926855" lon="9.321929678992763"><ele>74.0</ele><time>2026-04-11T13:04:01Z</time></trkpt><trkpt lat="45.15852989807339" lon="9.321775939668477"><ele>74.0</ele><time>2026-04-11T13:04:02Z</time></trkpt><trkpt lat="45.15856346777781" lon="9.321630449481777"><ele>74.0</ele><time>2026-04-11T13:04:03Z</time></trkpt><trkpt lat="45.15858935921569" lon="9.321493827715775"><ele>74.0</ele><time>2026-04-11T13:04:04Z</time></trkpt><trkpt lat="45.15860647275676" lon="9.321372846483897"><ele>74.0</ele><time>2026-04-11T13:04:05Z</time></trkpt><trkpt lat="45.15862443447836" lon="9.32125846265804"><ele>74.0</ele><time>2026-04-11T13:04:06Z</time></trkpt><trkpt lat="45.15863746283665" lon="9.321165526643552"><ele>74.0</ele><time>2026-04-11T13:04:07Z</time></trkpt><trkpt lat="45.15865877366758" lon="9.321038412104588"><ele>74.0</ele><time>2026-04-11T13:04:09Z</time></trkpt><trkpt lat="45.158674685053825" lon="9.320948638544477"><ele>73.83333333333334</ele><time>2026-04-11T13:04:12Z</time></trkpt><trkpt lat="45.15870614523655" lon="9.320847896380737"><ele>73.66666666666667</ele><time>2026-04-11T13:04:26Z</time></trkpt><trkpt lat="45.15875646360979" lon="9.32074673220437"><ele>73.5</ele><time>2026-04-11T13:04:28Z</time></trkpt><trkpt lat="45.15888658035452" lon="9.320771430714764"><ele>73.33333333333333</ele><time>2026-04-11T13:04:30Z</time></trkpt><trkpt lat="45.15895383612903" lon="9.320788021313893"><ele>73.16666666666666</ele><time>2026-04-11T13:04:31Z</time></trkpt><trkpt lat="45.159029120274944" lon="9.320802443490244"><ele>73.0</ele><time>2026-04-11T13:04:32Z</time></trkpt><trkpt lat="45.15910684754328" lon="9.320827513074304"><ele>73.28571428571428</ele><time>2026-04-11T13:04:33Z</time></trkpt><trkpt lat="45.15918311453645" lon="9.320849459425109"><ele>73.57142857142857</ele><time>2026-04-11T13:04:34Z</time></trkpt><trkpt lat="45.15925964967019" lon="9.320875367558328"><ele>73.85714285714286</ele><time>2026-04-11T13:04:35Z</time></trkpt><trkpt lat="45.15933077682556" lon="9.320903028465551"><ele>74.14285714285714</ele><time>2026-04-11T13:04:36Z</time></trkpt><trkpt lat="45.15939425552781" lon="9.32092891940192"><ele>74.42857142857143</ele><time>2026-04-11T13:04:37Z</time></trkpt><trkpt lat="45.159465979904965" lon="9.320947867636045"><ele>74.71428571428571</ele><time>2026-04-11T13:04:39Z</time></trkpt><trkpt lat="45.159534935023856" lon="9.320968178076578"><ele>75.0</ele><time>2026-04-11T13:04:46.001Z</time></trkpt><trkpt lat="45.159579437275276" lon="9.320763370833516"><ele>75.0</ele><time>2026-04-11T13:04:48.001Z</time></trkpt><trkpt lat="45.159585608766875" lon="9.320669247510308"><ele>75.0</ele><time>2026-04-11T13:04:49.001Z</time></trkpt><trkpt lat="45.15959835225402" lon="9.320578288020268"><ele>75.0</ele><time>2026-04-11T13:04:50.001Z</time></trkpt><trkpt lat="45.15964076478616" lon="9.320436438032198"><ele>75.0</ele><time>2026-04-11T13:04:52.001Z</time></trkpt><trkpt lat="45.159746374231524" lon="9.320473626297533"><ele>75.0</ele><time>2026-04-11T13:04:54.001Z</time></trkpt><trkpt lat="45.15981663262553" lon="9.320491938870607"><ele>75.0</ele><time>2026-04-11T13:04:55.001Z</time></trkpt><trkpt lat="45.15990246599514" lon="9.320514310987736"><ele>74.8</ele><time>2026-04-11T13:04:56.001Z</time></trkpt><trkpt lat="45.159991189483385" lon="9.32051919435744"><ele>74.6</ele><time>2026-04-11T13:04:57.001Z</time></trkpt><trkpt lat="45.16008057720934" lon="9.320541091895253"><ele>74.4</ele><time>2026-04-11T13:04:58.001Z</time></trkpt><trkpt lat="45.16017882306876" lon="9.320568872737109"><ele>74.2</ele><time>2026-04-11T13:04:59.001Z</time></trkpt><trkpt lat="45.16028039413601" lon="9.320600405595448"><ele>74.0</ele><time>2026-04-11T13:05:00.001Z</time></trkpt><trkpt lat="45.16038412498772" lon="9.320628418479153"><ele>74.0</ele><time>2026-04-11T13:05:01.001Z</time></trkpt><trkpt lat="45.16048150245287" lon="9.320651216642935"><ele>74.0</ele><time>2026-04-11T13:05:02.001Z</time></trkpt><trkpt lat="45.160575508095235" lon="9.320675335428556"><ele>74.0</ele><time>2026-04-11T13:05:03.001Z</time></trkpt><trkpt lat="45.16067209322569" lon="9.320704550779384"><ele>74.0</ele><time>2026-04-11T13:05:04.001Z</time></trkpt><trkpt lat="45.16076697088117" lon="9.32072782571827"><ele>74.0</ele><time>2026-04-11T13:05:05.001Z</time></trkpt><trkpt lat="45.16085944343635" lon="9.320745814407488"><ele>73.8</ele><time>2026-04-11T13:05:06.001Z</time></trkpt><trkpt lat="45.1609512557317" lon="9.32076553793133"><ele>73.60000000000001</ele><time>2026-04-11T13:05:07.001Z</time></trkpt><trkpt lat="45.16104631709335" lon="9.320769210296001"><ele>73.4</ele><time>2026-04-11T13:05:08.001Z</time></trkpt><trkpt lat="45.16114013518667" lon="9.320787240560902"><ele>73.2</ele><time>2026-04-11T13:05:09.001Z</time></trkpt><trkpt lat="45.16123031186242" lon="9.32077918272013"><ele>73.0</ele><time>2026-04-11T13:05:10.001Z</time></trkpt><trkpt lat="45.161320162528156" lon="9.320796303911582"><ele>73.0</ele><time>2026-04-11T13:05:11.001Z</time></trkpt><trkpt lat="45.16141493468621" lon="9.320797135913796"><ele>73.0</ele><time>2026-04-11T13:05:12.001Z</time></trkpt><trkpt lat="45.16150925913551" lon="9.320829114797032"><ele>73.0</ele><time>2026-04-11T13:05:13.001Z</time></trkpt><trkpt lat="45.16160564265378" lon="9.320851319056477"><ele>73.0</ele><time>2026-04-11T13:05:14.001Z</time></trkpt><trkpt lat="45.161702539225615" lon="9.320898144065982"><ele>73.0</ele><time>2026-04-11T13:05:15.001Z</time></trkpt><trkpt lat="45.16180966588396" lon="9.32090435387182"><ele>72.8</ele><time>2026-04-11T13:05:16.001Z</time></trkpt><trkpt lat="45.16191186580045" lon="9.320938665826754"><ele>72.6</ele><time>2026-04-11T13:05:17.001Z</time></trkpt><trkpt lat="45.16201420180877" lon="9.320965313849609"><ele>72.4</ele><time>2026-04-11T13:05:18.001Z</time></trkpt><trkpt lat="45.16211799845908" lon="9.320991708748565"><ele>72.2</ele><time>2026-04-11T13:05:19.001Z</time></trkpt><trkpt lat="45.16222366738136" lon="9.321015115929605"><ele>72.0</ele><time>2026-04-11T13:05:20.001Z</time></trkpt><trkpt lat="45.162330563983396" lon="9.321065296345429"><ele>72.0</ele><time>2026-04-11T13:05:21.001Z</time></trkpt><trkpt lat="45.162442778966245" lon="9.32107340695201"><ele>72.0</ele><time>2026-04-11T13:05:22.001Z</time></trkpt><trkpt lat="45.16254544596298" lon="9.321125512018634"><ele>72.0</ele><time>2026-04-11T13:05:23.001Z</time></trkpt><trkpt lat="45.162656741113366" lon="9.321157494464616"><ele>72.0</ele><time>2026-04-11T13:05:24.001Z</time></trkpt><trkpt lat="45.16277319835615" lon="9.321171142657635"><ele>72.0</ele><time>2026-04-11T13:05:25.001Z</time></trkpt><trkpt lat="45.16287532939309" lon="9.321205293984024"><ele>72.0</ele><time>2026-04-11T13:05:26.001Z</time></trkpt><trkpt lat="45.16297069032288" lon="9.321229651806162"><ele>72.0</ele><time>2026-04-11T13:05:27.001Z</time></trkpt><trkpt lat="45.16306194844035" lon="9.321253833545594"><ele>72.0</ele><time>2026-04-11T13:05:28.001Z</time></trkpt><trkpt lat="45.16314709510475" lon="9.321280095020112"><ele>72.0</ele><time>2026-04-11T13:05:29.001Z</time></trkpt><trkpt lat="45.16323291370002" lon="9.32130430500647"><ele>72.0</ele><time>2026-04-11T13:05:30.001Z</time></trkpt><trkpt lat="45.16331735625516" lon="9.321324392172736"><ele>72.0</ele><time>2026-04-11T13:05:31.001Z</time></trkpt><trkpt lat="45.16339049361856" lon="9.321341579671307"><ele>72.0</ele><time>2026-04-11T13:05:32.002Z</time></trkpt><trkpt lat="45.163458067141626" lon="9.321356359396574"><ele>72.0</ele><time>2026-04-11T13:05:33.002Z</time></trkpt><trkpt lat="45.16357773069549" lon="9.321381669559422"><ele>72.0</ele><time>2026-04-11T13:05:35.002Z</time></trkpt><trkpt lat="45.1637085904149" lon="9.321450987167808"><ele>71.66666666666667</ele><time>2026-04-11T13:05:37.002Z</time></trkpt><trkpt lat="45.163778197161015" lon="9.321506463475373"><ele>71.33333333333333</ele><time>2026-04-11T13:05:38.002Z</time></trkpt><trkpt lat="45.163845882048605" lon="9.321560667587718"><ele>71.0</ele><time>2026-04-11T13:05:39.002Z</time></trkpt><trkpt lat="45.16391019712436" lon="9.321601907742497"><ele>70.66666666666666</ele><time>2026-04-11T13:05:40.002Z</time></trkpt><trkpt lat="45.163958515455235" lon="9.321663196444264"><ele>70.33333333333333</ele><time>2026-04-11T13:05:41.002Z</time></trkpt><trkpt lat="45.16407359492642" lon="9.32172556608885"><ele>70.0</ele><time>2026-04-11T13:05:43.002Z</time></trkpt><trkpt lat="45.164146300545006" lon="9.321856331955168"><ele>70.0</ele><time>2026-04-11T13:05:45.002Z</time></trkpt><trkpt lat="45.164157094598295" lon="9.322043807611497"><ele>70.0</ele><time>2026-04-11T13:05:47.002Z</time></trkpt><trkpt lat="45.164174655415756" lon="9.322137403172064"><ele>70.0</ele><time>2026-04-11T13:05:48.002Z</time></trkpt><trkpt lat="45.16419261350013" lon="9.322233116316834"><ele>70.0</ele><time>2026-04-11T13:05:49.002Z</time></trkpt><trkpt lat="45.16420874182025" lon="9.322331203155894"><ele>70.0</ele><time>2026-04-11T13:05:50.002Z</time></trkpt><trkpt lat="45.16422612052002" lon="9.322429712376954"><ele>70.0</ele><time>2026-04-11T13:05:51.002Z</time></trkpt><trkpt lat="45.16424792955336" lon="9.32252737079503"><ele>70.4</ele><time>2026-04-11T13:05:52.002Z</time></trkpt><trkpt lat="45.164273788216406" lon="9.322621551286428"><ele>70.8</ele><time>2026-04-11T13:05:53.002Z</time></trkpt><trkpt lat="45.16433566859051" lon="9.322775403711619"><ele>71.2</ele><time>2026-04-11T13:05:55Z</time></trkpt><trkpt lat="45.16437926682522" lon="9.322861260614552"><ele>71.6</ele><time>2026-04-11T13:05:56Z</time></trkpt><trkpt lat="45.164437732796905" lon="9.322957640634185"><ele>72.0</ele><time>2026-04-11T13:05:57Z</time></trkpt><trkpt lat="45.16450221167526" lon="9.323050129566148"><ele>71.83333333333333</ele><time>2026-04-11T13:05:58Z</time></trkpt><trkpt lat="45.16456058952654" lon="9.323154457447538"><ele>71.66666666666667</ele><time>2026-04-11T13:05:59Z</time></trkpt><trkpt lat="45.16461267022243" lon="9.323253505575265"><ele>71.5</ele><time>2026-04-11T13:06:00Z</time></trkpt><trkpt lat="45.16466838745572" lon="9.323341660870035"><ele>71.33333333333334</ele><time>2026-04-11T13:06:01Z</time></trkpt><trkpt lat="45.16472207343671" lon="9.323432859016656"><ele>71.16666666666667</ele><time>2026-04-11T13:06:02Z</time></trkpt><trkpt lat="45.16477354682902" lon="9.32352026945096"><ele>71.0</ele><time>2026-04-11T13:06:03Z</time></trkpt><trkpt lat="45.16482615491084" lon="9.32360790272328"><ele>71.6</ele><time>2026-04-11T13:06:04Z</time></trkpt><trkpt lat="45.164888418088836" lon="9.323706126062296"><ele>72.19999999999999</ele><time>2026-04-11T13:06:05Z</time></trkpt><trkpt lat="45.164949539171" lon="9.32382227349145"><ele>72.80000000000001</ele><time>2026-04-11T13:06:06Z</time></trkpt><trkpt lat="45.16501441295121" lon="9.323934694538071"><ele>73.4</ele><time>2026-04-11T13:06:07Z</time></trkpt><trkpt lat="45.16507670129541" lon="9.324050535022947"><ele>74.0</ele><time>2026-04-11T13:06:08Z</time></trkpt><trkpt lat="45.16513877890698" lon="9.324168668307948"><ele>74.0</ele><time>2026-04-11T13:06:09Z</time></trkpt><trkpt lat="45.16521027263788" lon="9.324297308630001"><ele>74.0</ele><time>2026-04-11T13:06:10Z</time></trkpt><trkpt lat="45.16527394978578" lon="9.324421430183603"><ele>74.0</ele><time>2026-04-11T13:06:11Z</time></trkpt><trkpt lat="45.16532625018498" lon="9.324548721504557"><ele>74.0</ele><time>2026-04-11T13:06:12Z</time></trkpt><trkpt lat="45.16539687497376" lon="9.324658103730696"><ele>74.0</ele><time>2026-04-11T13:06:13Z</time></trkpt><trkpt lat="45.165465143787266" lon="9.324783220163967"><ele>74.0</ele><time>2026-04-11T13:06:14Z</time></trkpt><trkpt lat="45.16553032665703" lon="9.324908192437976"><ele>74.0</ele><time>2026-04-11T13:06:15Z</time></trkpt><trkpt lat="45.16559792822033" lon="9.325031391363915"><ele>74.0</ele><time>2026-04-11T13:06:16Z</time></trkpt><trkpt lat="45.165661969927605" lon="9.325154046770985"><ele>74.0</ele><time>2026-04-11T13:06:17Z</time></trkpt><trkpt lat="45.16572588655562" lon="9.325274529719074"><ele>74.0</ele><time>2026-04-11T13:06:18Z</time></trkpt><trkpt lat="45.1657735260553" lon="9.325401732071173"><ele>74.0</ele><time>2026-04-11T13:06:19Z</time></trkpt><trkpt lat="45.16584673212455" lon="9.325503022815932"><ele>74.0</ele><time>2026-04-11T13:06:20Z</time></trkpt><trkpt lat="45.16590511433846" lon="9.325625152248243"><ele>74.0</ele><time>2026-04-11T13:06:21Z</time></trkpt><trkpt lat="45.16596640398291" lon="9.32573483087042"><ele>74.0</ele><time>2026-04-11T13:06:22Z</time></trkpt><trkpt lat="45.16602795331751" lon="9.325852842115896"><ele>74.0</ele><time>2026-04-11T13:06:23Z</time></trkpt><trkpt lat="45.16608811140881" lon="9.325970828760795"><ele>73.60000000000001</ele><time>2026-04-11T13:06:24Z</time></trkpt><trkpt lat="45.16614300518914" lon="9.326084071405951"><ele>73.2</ele><time>2026-04-11T13:06:25Z</time></trkpt><trkpt lat="45.16620149141992" lon="9.326203074924845"><ele>72.80000000000001</ele><time>2026-04-11T13:06:26Z</time></trkpt><trkpt lat="45.16625844707156" lon="9.326312532696337"><ele>72.4</ele><time>2026-04-11T13:06:27Z</time></trkpt><trkpt lat="45.166311104532674" lon="9.32641431445699"><ele>72.0</ele><time>2026-04-11T13:06:28Z</time></trkpt><trkpt lat="45.166360666009076" lon="9.326510915219304"><ele>71.66666666666667</ele><time>2026-04-11T13:06:29Z</time></trkpt><trkpt lat="45.16641300268179" lon="9.326606011215695"><ele>71.33333333333333</ele><time>2026-04-11T13:06:30Z</time></trkpt><trkpt lat="45.166455293471905" lon="9.326697890003974"><ele>71.0</ele><time>2026-04-11T13:06:31Z</time></trkpt><trkpt lat="45.16651621741757" lon="9.326843481951334"><ele>70.66666666666666</ele><time>2026-04-11T13:06:33Z</time></trkpt><trkpt lat="45.16656439032627" lon="9.32690422062936"><ele>70.33333333333333</ele><time>2026-04-11T13:06:34Z</time></trkpt><trkpt lat="45.1666021960785" lon="9.326976201963863"><ele>70.0</ele><time>2026-04-11T13:06:35Z</time></trkpt><trkpt lat="45.16667511184507" lon="9.327113136874456"><ele>69.4</ele><time>2026-04-11T13:06:37Z</time></trkpt><trkpt lat="45.16674117905381" lon="9.327239540663994"><ele>68.8</ele><time>2026-04-11T13:06:39Z</time></trkpt><trkpt lat="45.16679646092284" lon="9.327354629613296"><ele>68.2</ele><time>2026-04-11T13:06:41.001Z</time></trkpt><trkpt lat="45.16684072320996" lon="9.327465373889453"><ele>67.6</ele><time>2026-04-11T13:06:43.001Z</time></trkpt><trkpt lat="45.16691428794694" lon="9.327574868585941"><ele>67.0</ele><time>2026-04-11T13:06:45.001Z</time></trkpt><trkpt lat="45.16699970532025" lon="9.32773050622023"><ele>67.0</ele><time>2026-04-11T13:06:47.001Z</time></trkpt><trkpt lat="45.16705192011314" lon="9.327868282646651"><ele>67.0</ele><time>2026-04-11T13:06:48.001Z</time></trkpt><trkpt lat="45.167129921192476" lon="9.32801550388597"><ele>67.0</ele><time>2026-04-11T13:06:49.001Z</time></trkpt><trkpt lat="45.16719711422351" lon="9.328142325788667"><ele>67.0</ele><time>2026-04-11T13:06:50.001Z</time></trkpt><trkpt lat="45.16725332563027" lon="9.328248420738282"><ele>67.0</ele><time>2026-04-11T13:06:51.001Z</time></trkpt><trkpt lat="45.16731636712145" lon="9.328327803348861"><ele>67.5</ele><time>2026-04-11T13:06:52.001Z</time></trkpt><trkpt lat="45.16736653045723" lon="9.328423011047018"><ele>68.0</ele><time>2026-04-11T13:06:53.001Z</time></trkpt><trkpt lat="45.16741156200853" lon="9.328518128628167"><ele>68.5</ele><time>2026-04-11T13:06:54.001Z</time></trkpt><trkpt lat="45.16742814822401" lon="9.32863647649716"><ele>69.0</ele><time>2026-04-11T13:06:55.001Z</time></trkpt><trkpt lat="45.16744628660932" lon="9.328755487967255"><ele>69.5</ele><time>2026-04-11T13:06:56.001Z</time></trkpt><trkpt lat="45.167478652090665" lon="9.328894773600322"><ele>70.0</ele><time>2026-04-11T13:06:57.001Z</time></trkpt><trkpt lat="45.16762906351005" lon="9.328978149402236"><ele>70.2</ele><time>2026-04-11T13:06:58.001Z</time></trkpt><trkpt lat="45.16769292439008" lon="9.32910061128015"><ele>70.4</ele><time>2026-04-11T13:06:59.001Z</time></trkpt><trkpt lat="45.16775425295019" lon="9.329212372209975"><ele>70.6</ele><time>2026-04-11T13:07:00.001Z</time></trkpt><trkpt lat="45.16780340113458" lon="9.329301091666714"><ele>70.8</ele><time>2026-04-11T13:07:01.001Z</time></trkpt><trkpt lat="45.16785465791954" lon="9.329398928744915"><ele>71.0</ele><time>2026-04-11T13:07:02.001Z</time></trkpt><trkpt lat="45.167913094816406" lon="9.329508008539594"><ele>71.0</ele><time>2026-04-11T13:07:03.001Z</time></trkpt><trkpt lat="45.167964995203405" lon="9.329608975380056"><ele>71.0</ele><time>2026-04-11T13:07:04.001Z</time></trkpt><trkpt lat="45.16802106299074" lon="9.32971717748001"><ele>71.0</ele><time>2026-04-11T13:07:05.001Z</time></trkpt><trkpt lat="45.16807634978544" lon="9.329830053934952"><ele>71.0</ele><time>2026-04-11T13:07:06.001Z</time></trkpt><trkpt lat="45.168127599127594" lon="9.3299377427926"><ele>71.0</ele><time>2026-04-11T13:07:07.001Z</time></trkpt><trkpt lat="45.1681748641419" lon="9.330024610659434"><ele>71.0</ele><time>2026-04-11T13:07:08.001Z</time></trkpt><trkpt lat="45.16822910848127" lon="9.330119669357318"><ele>71.0</ele><time>2026-04-11T13:07:09.001Z</time></trkpt><trkpt lat="45.16828719770158" lon="9.330216705337312"><ele>71.0</ele><time>2026-04-11T13:07:10.001Z</time></trkpt><trkpt lat="45.16834746807111" lon="9.330332897893486"><ele>71.0</ele><time>2026-04-11T13:07:11.001Z</time></trkpt><trkpt lat="45.16840283570152" lon="9.330428482563777"><ele>71.0</ele><time>2026-04-11T13:07:12.001Z</time></trkpt><trkpt lat="45.168461035879304" lon="9.330528259978314"><ele>71.0</ele><time>2026-04-11T13:07:13.001Z</time></trkpt><trkpt lat="45.16851712157267" lon="9.330631285348788"><ele>70.83333333333334</ele><time>2026-04-11T13:07:14.001Z</time></trkpt><trkpt lat="45.16857128582784" lon="9.330736407063599"><ele>70.66666666666667</ele><time>2026-04-11T13:07:15.001Z</time></trkpt><trkpt lat="45.168625386929094" lon="9.33083945959374"><ele>70.5</ele><time>2026-04-11T13:07:16.001Z</time></trkpt><trkpt lat="45.16867557382949" lon="9.330937192080173"><ele>70.33333333333333</ele><time>2026-04-11T13:07:17.001Z</time></trkpt><trkpt lat="45.16872897668685" lon="9.33102967454611"><ele>70.16666666666666</ele><time>2026-04-11T13:07:18.001Z</time></trkpt><trkpt lat="45.16877824137733" lon="9.331124744697265"><ele>70.0</ele><time>2026-04-11T13:07:19.001Z</time></trkpt><trkpt lat="45.1688273254246" lon="9.33121665503667"><ele>70.0</ele><time>2026-04-11T13:07:20.001Z</time></trkpt><trkpt lat="45.168880642805995" lon="9.331312741017959"><ele>70.0</ele><time>2026-04-11T13:07:21.001Z</time></trkpt><trkpt lat="45.168925562862626" lon="9.331397519374484"><ele>70.0</ele><time>2026-04-11T13:07:22.001Z</time></trkpt><trkpt lat="45.168978972386974" lon="9.33150041718042"><ele>70.0</ele><time>2026-04-11T13:07:23.001Z</time></trkpt><trkpt lat="45.169036060211276" lon="9.331608942890409"><ele>70.0</ele><time>2026-04-11T13:07:24.001Z</time></trkpt><trkpt lat="45.16909195267835" lon="9.331710298502845"><ele>70.0</ele><time>2026-04-11T13:07:25.001Z</time></trkpt><trkpt lat="45.16914699809645" lon="9.331818853926107"><ele>70.0</ele><time>2026-04-11T13:07:26.001Z</time></trkpt><trkpt lat="45.16919835356738" lon="9.331925140530682"><ele>70.0</ele><time>2026-04-11T13:07:27.001Z</time></trkpt><trkpt lat="45.16924771264563" lon="9.33202415934211"><ele>70.0</ele><time>2026-04-11T13:07:28.001Z</time></trkpt><trkpt lat="45.16930279015932" lon="9.332125068152154"><ele>70.0</ele><time>2026-04-11T13:07:29.001Z</time></trkpt><trkpt lat="45.169349729400665" lon="9.33221289583199"><ele>70.0</ele><time>2026-04-11T13:07:30.001Z</time></trkpt><trkpt lat="45.169391460963354" lon="9.33230192842254"><ele>70.0</ele><time>2026-04-11T13:07:31.002Z</time></trkpt><trkpt lat="45.16942801832457" lon="9.332379521542661"><ele>70.0</ele><time>2026-04-11T13:07:32.002Z</time></trkpt><trkpt lat="45.169485280127724" lon="9.332500165203495"><ele>70.0</ele><time>2026-04-11T13:07:34.002Z</time></trkpt><trkpt lat="45.16956282236873" lon="9.332535877865846"><ele>70.0</ele><time>2026-04-11T13:07:37.002Z</time></trkpt><trkpt lat="45.169647814948256" lon="9.332431096187081"><ele>70.0</ele><time>2026-04-11T13:07:39.002Z</time></trkpt><trkpt lat="45.169712938203276" lon="9.332309442648834"><ele>70.0</ele><time>2026-04-11T13:07:40.002Z</time></trkpt><trkpt lat="45.16979591259528" lon="9.332150111686135"><ele>69.66666666666666</ele><time>2026-04-11T13:07:41.002Z</time></trkpt><trkpt lat="45.1698915072649" lon="9.331979236001377"><ele>69.33333333333333</ele><time>2026-04-11T13:07:42.002Z</time></trkpt><trkpt lat="45.1700010257117" lon="9.331788233810423"><ele>69.0</ele><time>2026-04-11T13:07:43.002Z</time></trkpt><trkpt lat="45.17011011619358" lon="9.331590888929515"><ele>69.0</ele><time>2026-04-11T13:07:44.002Z</time></trkpt><trkpt lat="45.170218959616555" lon="9.331396237060591"><ele>69.0</ele><time>2026-04-11T13:07:45.002Z</time></trkpt><trkpt lat="45.17032296555876" lon="9.331214787903091"><ele>69.0</ele><time>2026-04-11T13:07:46.002Z</time></trkpt><trkpt lat="45.17042496039982" lon="9.33102907505906"><ele>69.0</ele><time>2026-04-11T13:07:47.002Z</time></trkpt><trkpt lat="45.17052782455923" lon="9.330854761448236"><ele>69.0</ele><time>2026-04-11T13:07:48.002Z</time></trkpt><trkpt lat="45.17062823528044" lon="9.330684223340697"><ele>69.0</ele><time>2026-04-11T13:07:49.002Z</time></trkpt><trkpt lat="45.17072993036825" lon="9.330514062837931"><ele>69.33333333333333</ele><time>2026-04-11T13:07:50.002Z</time></trkpt><trkpt lat="45.17083424567784" lon="9.330336916658123"><ele>69.66666666666666</ele><time>2026-04-11T13:07:51.002Z</time></trkpt><trkpt lat="45.170938263161275" lon="9.330158488422482"><ele>70.0</ele><time>2026-04-11T13:07:52.002Z</time></trkpt><trkpt lat="45.17104167047452" lon="9.329977182105038"><ele>70.0</ele><time>2026-04-11T13:07:53.002Z</time></trkpt><trkpt lat="45.17114685442763" lon="9.3297932438563"><ele>70.0</ele><time>2026-04-11T13:07:54.002Z</time></trkpt><trkpt lat="45.171255209159014" lon="9.329611484552567"><ele>70.0</ele><time>2026-04-11T13:07:55.002Z</time></trkpt><trkpt lat="45.17136137982372" lon="9.32943331689449"><ele>70.0</ele><time>2026-04-11T13:07:56.002Z</time></trkpt><trkpt lat="45.17146704844889" lon="9.329251540603257"><ele>70.0</ele><time>2026-04-11T13:07:57.002Z</time></trkpt><trkpt lat="45.17157071870708" lon="9.329076495254474"><ele>70.0</ele><time>2026-04-11T13:07:58.002Z</time></trkpt><trkpt lat="45.17167357588249" lon="9.328904575212123"><ele>70.0</ele><time>2026-04-11T13:07:59.002Z</time></trkpt><trkpt lat="45.1717633593258" lon="9.328757065596204"><ele>70.0</ele><time>2026-04-11T13:08:00.002Z</time></trkpt><trkpt lat="45.171851234123714" lon="9.328588090160961"><ele>70.0</ele><time>2026-04-11T13:08:01Z</time></trkpt><trkpt lat="45.17192245120338" lon="9.3284055099352"><ele>70.0</ele><time>2026-04-11T13:08:02Z</time></trkpt><trkpt lat="45.17198157335417" lon="9.32820176129721"><ele>70.0</ele><time>2026-04-11T13:08:03Z</time></trkpt><trkpt lat="45.172038238984015" lon="9.327970253525582"><ele>70.0</ele><time>2026-04-11T13:08:04Z</time></trkpt><trkpt lat="45.172091799556654" lon="9.327739240590008"><ele>70.0</ele><time>2026-04-11T13:08:05Z</time></trkpt><trkpt lat="45.17214175515102" lon="9.327517995510892"><ele>70.0</ele><time>2026-04-11T13:08:06Z</time></trkpt><trkpt lat="45.17219344009264" lon="9.327306552730393"><ele>70.0</ele><time>2026-04-11T13:08:07Z</time></trkpt><trkpt lat="45.172246480633916" lon="9.327084509341732"><ele>70.0</ele><time>2026-04-11T13:08:08Z</time></trkpt><trkpt lat="45.172302505919646" lon="9.326870777730567"><ele>70.33333333333333</ele><time>2026-04-11T13:08:09Z</time></trkpt><trkpt lat="45.17235801553992" lon="9.32664703137473"><ele>70.66666666666667</ele><time>2026-04-11T13:08:10Z</time></trkpt><trkpt lat="45.17240844978821" lon="9.326422503372624"><ele>71.0</ele><time>2026-04-11T13:08:11Z</time></trkpt><trkpt lat="45.17246219653249" lon="9.326203001187467"><ele>71.0</ele><time>2026-04-11T13:08:12Z</time></trkpt><trkpt lat="45.172512515665474" lon="9.325986586086382"><ele>71.0</ele><time>2026-04-11T13:08:13Z</time></trkpt><trkpt lat="45.17256183736786" lon="9.325780619928198"><ele>71.0</ele><time>2026-04-11T13:08:14Z</time></trkpt><trkpt lat="45.17260842738355" lon="9.325583571813665"><ele>71.0</ele><time>2026-04-11T13:08:15Z</time></trkpt><trkpt lat="45.172661772209345" lon="9.325373888085416"><ele>71.0</ele><time>2026-04-11T13:08:16Z</time></trkpt><trkpt lat="45.1727161487007" lon="9.325182740335704"><ele>71.0</ele><time>2026-04-11T13:08:17Z</time></trkpt><trkpt lat="45.17277658282165" lon="9.324982592315626"><ele>71.0</ele><time>2026-04-11T13:08:18Z</time></trkpt><trkpt lat="45.172858326663366" lon="9.3247763407524"><ele>71.0</ele><time>2026-04-11T13:08:19Z</time></trkpt><trkpt lat="45.17290611261196" lon="9.324577224610485"><ele>71.0</ele><time>2026-04-11T13:08:20Z</time></trkpt><trkpt lat="45.17295646110946" lon="9.32441482718709"><ele>71.0</ele><time>2026-04-11T13:08:21Z</time></trkpt><trkpt lat="45.17300038268977" lon="9.324280096802399"><ele>71.0</ele><time>2026-04-11T13:08:22Z</time></trkpt><trkpt lat="45.17304394808496" lon="9.324133800584548"><ele>71.0</ele><time>2026-04-11T13:08:23Z</time></trkpt><trkpt lat="45.1730888169422" lon="9.323992677864222"><ele>71.0</ele><time>2026-04-11T13:08:24Z</time></trkpt><trkpt lat="45.173128933197766" lon="9.323866955649985"><ele>71.0</ele><time>2026-04-11T13:08:25Z</time></trkpt><trkpt lat="45.17316585889777" lon="9.32375071405529"><ele>71.0</ele><time>2026-04-11T13:08:26Z</time></trkpt><trkpt lat="45.173201294244336" lon="9.323639136605221"><ele>71.0</ele><time>2026-04-11T13:08:27Z</time></trkpt><trkpt lat="45.17324580001642" lon="9.323546324934574"><ele>71.0</ele><time>2026-04-11T13:08:28Z</time></trkpt><trkpt lat="45.17327522791936" lon="9.323452916404728"><ele>71.0</ele><time>2026-04-11T13:08:29Z</time></trkpt><trkpt lat="45.173291227002586" lon="9.32336045929727"><ele>71.0</ele><time>2026-04-11T13:08:30Z</time></trkpt><trkpt lat="45.17333731250094" lon="9.32321716035778"><ele>71.0</ele><time>2026-04-11T13:08:32Z</time></trkpt><trkpt lat="45.1733728502148" lon="9.32310139863603"><ele>71.0</ele><time>2026-04-11T13:08:34Z</time></trkpt><trkpt lat="45.17341352491719" lon="9.322969151050057"><ele>71.0</ele><time>2026-04-11T13:08:36Z</time></trkpt><trkpt lat="45.173448141061144" lon="9.322834861275355"><ele>71.0</ele><time>2026-04-11T13:08:38Z</time></trkpt><trkpt lat="45.17347680733691" lon="9.32270574743441"><ele>71.0</ele><time>2026-04-11T13:08:40Z</time></trkpt><trkpt lat="45.17350115690905" lon="9.322562829319407"><ele>71.0</ele><time>2026-04-11T13:08:42.001Z</time></trkpt><trkpt lat="45.173553997246664" lon="9.322369998038132"><ele>71.0</ele><time>2026-04-11T13:08:44.001Z</time></trkpt><trkpt lat="45.17358345094952" lon="9.322201861239181"><ele>71.0</ele><time>2026-04-11T13:08:45.001Z</time></trkpt><trkpt lat="45.17362185992533" lon="9.321982603047346"><ele>71.0</ele><time>2026-04-11T13:08:46.001Z</time></trkpt><trkpt lat="45.17365403007704" lon="9.321735023912735"><ele>71.0</ele><time>2026-04-11T13:08:47.001Z</time></trkpt><trkpt lat="45.17371715317172" lon="9.321463374318071"><ele>70.66666666666667</ele><time>2026-04-11T13:08:48.001Z</time></trkpt><trkpt lat="45.173772376739265" lon="9.321171645162641"><ele>70.33333333333333</ele><time>2026-04-11T13:08:49.001Z</time></trkpt><trkpt lat="45.17381793956877" lon="9.320923134307227"><ele>70.0</ele><time>2026-04-11T13:08:50.001Z</time></trkpt><trkpt lat="45.17385998437083" lon="9.320690502751145"><ele>70.33333333333333</ele><time>2026-04-11T13:08:51.001Z</time></trkpt><trkpt lat="45.173886388913985" lon="9.32045008218657"><ele>70.66666666666667</ele><time>2026-04-11T13:08:52.001Z</time></trkpt><trkpt lat="45.17393988231568" lon="9.320248431856719"><ele>71.0</ele><time>2026-04-11T13:08:53.001Z</time></trkpt><trkpt lat="45.173975567414345" lon="9.320050988337787"><ele>71.0</ele><time>2026-04-11T13:08:54.001Z</time></trkpt><trkpt lat="45.17401067209651" lon="9.31985675647338"><ele>71.0</ele><time>2026-04-11T13:08:55.001Z</time></trkpt><trkpt lat="45.17402946413524" lon="9.319665870973967"><ele>71.0</ele><time>2026-04-11T13:08:56.001Z</time></trkpt><trkpt lat="45.17408527014075" lon="9.31946135980283"><ele>71.0</ele><time>2026-04-11T13:08:57.001Z</time></trkpt><trkpt lat="45.17412332153169" lon="9.319261777855864"><ele>70.75</ele><time>2026-04-11T13:08:58.001Z</time></trkpt><trkpt lat="45.17416062659772" lon="9.319066111159062"><ele>70.5</ele><time>2026-04-11T13:08:59.001Z</time></trkpt><trkpt lat="45.17419748405711" lon="9.318872790935188"><ele>70.25</ele><time>2026-04-11T13:09:00.001Z</time></trkpt><trkpt lat="45.17423185865376" lon="9.31869249426619"><ele>70.0</ele><time>2026-04-11T13:09:01.001Z</time></trkpt><trkpt lat="45.17426458682071" lon="9.31852083264113"><ele>70.5</ele><time>2026-04-11T13:09:02.001Z</time></trkpt><trkpt lat="45.174298273227215" lon="9.318344145634391"><ele>71.0</ele><time>2026-04-11T13:09:03.001Z</time></trkpt><trkpt lat="45.17432983352475" lon="9.318178190281891"><ele>71.5</ele><time>2026-04-11T13:09:04.001Z</time></trkpt><trkpt lat="45.174360110317224" lon="9.318018788747032"><ele>72.0</ele><time>2026-04-11T13:09:05.001Z</time></trkpt><trkpt lat="45.17438383057293" lon="9.31789390622898"><ele>72.0</ele><time>2026-04-11T13:09:06.001Z</time></trkpt><trkpt lat="45.17440348694701" lon="9.317790418825481"><ele>72.0</ele><time>2026-04-11T13:09:07.001Z</time></trkpt><trkpt lat="45.174421616716906" lon="9.317694969512456"><ele>72.0</ele><time>2026-04-11T13:09:08.001Z</time></trkpt><trkpt lat="45.17444244553804" lon="9.317589466604057"><ele>72.0</ele><time>2026-04-11T13:09:09.001Z</time></trkpt><trkpt lat="45.17446705496752" lon="9.317468410933685"><ele>72.0</ele><time>2026-04-11T13:09:10.001Z</time></trkpt><trkpt lat="45.174493771299744" lon="9.317341343803703"><ele>72.0</ele><time>2026-04-11T13:09:11.001Z</time></trkpt><trkpt lat="45.174517047093175" lon="9.317230635001994"><ele>72.0</ele><time>2026-04-11T13:09:12.001Z</time></trkpt><trkpt lat="45.17453994760626" lon="9.317042436561712"><ele>72.0</ele><time>2026-04-11T13:09:14.001Z</time></trkpt><trkpt lat="45.17457653720533" lon="9.316886359221396"><ele>72.0</ele><time>2026-04-11T13:09:16.001Z</time></trkpt><trkpt lat="45.174591294775134" lon="9.316788921374867"><ele>72.0</ele><time>2026-04-11T13:09:18.001Z</time></trkpt><trkpt lat="45.1746189677447" lon="9.316695708029194"><ele>72.0</ele><time>2026-04-11T13:09:26.001Z</time></trkpt><trkpt lat="45.17470211129211" lon="9.31674339400812"><ele>72.0</ele><time>2026-04-11T13:09:27.001Z</time></trkpt><trkpt lat="45.17479320770783" lon="9.316742741189902"><ele>72.0</ele><time>2026-04-11T13:09:28.001Z</time></trkpt><trkpt lat="45.17489435621382" lon="9.316761448536363"><ele>72.0</ele><time>2026-04-11T13:09:29.001Z</time></trkpt><trkpt lat="45.17500045900867" lon="9.31677918579201"><ele>72.0</ele><time>2026-04-11T13:09:30.001Z</time></trkpt><trkpt lat="45.17509502866679" lon="9.316805233780043"><ele>72.0</ele><time>2026-04-11T13:09:31.001Z</time></trkpt><trkpt lat="45.17519240925204" lon="9.316818941973569"><ele>72.16666666666667</ele><time>2026-04-11T13:09:32.002Z</time></trkpt><trkpt lat="45.17528234304867" lon="9.316832066112575"><ele>72.33333333333333</ele><time>2026-04-11T13:09:33.002Z</time></trkpt><trkpt lat="45.17536725828041" lon="9.316836099221607"><ele>72.5</ele><time>2026-04-11T13:09:34.002Z</time></trkpt><trkpt lat="45.175451419306505" lon="9.31686749367757"><ele>72.66666666666666</ele><time>2026-04-11T13:09:35.002Z</time></trkpt><trkpt lat="45.17553449647847" lon="9.316879718684287"><ele>72.83333333333333</ele><time>2026-04-11T13:09:36.002Z</time></trkpt><trkpt lat="45.17560894569028" lon="9.316882629076764"><ele>73.0</ele><time>2026-04-11T13:09:37.002Z</time></trkpt><trkpt lat="45.17567404021948" lon="9.316894653514337"><ele>73.2</ele><time>2026-04-11T13:09:38.002Z</time></trkpt><trkpt lat="45.175764214220884" lon="9.316906287546715"><ele>73.4</ele><time>2026-04-11T13:09:40.002Z</time></trkpt><trkpt lat="45.17585689431266" lon="9.316910158115329"><ele>73.60000000000001</ele><time>2026-04-11T13:09:43.002Z</time></trkpt><trkpt lat="45.17593394548097" lon="9.316910230796452"><ele>73.8</ele><time>2026-04-11T13:09:45.002Z</time></trkpt><trkpt lat="45.17604264403972" lon="9.316894150179461"><ele>74.0</ele><time>2026-04-11T13:09:47.002Z</time></trkpt><trkpt lat="45.176159506266416" lon="9.316856163855492"><ele>74.0</ele><time>2026-04-11T13:09:49.002Z</time></trkpt><trkpt lat="45.17621635809233" lon="9.316800394353923"><ele>74.0</ele><time>2026-04-11T13:09:50.002Z</time></trkpt><trkpt lat="45.17625542940404" lon="9.316701972682754"><ele>74.0</ele><time>2026-04-11T13:09:51.002Z</time></trkpt><trkpt lat="45.17627436184143" lon="9.316599035639449"><ele>74.0</ele><time>2026-04-11T13:09:52.002Z</time></trkpt><trkpt lat="45.176288099147754" lon="9.316492263669845"><ele>74.0</ele><time>2026-04-11T13:09:53.002Z</time></trkpt><trkpt lat="45.176305977963054" lon="9.316380031159467"><ele>74.0</ele><time>2026-04-11T13:09:54.002Z</time></trkpt><trkpt lat="45.176319680397505" lon="9.316260229624762"><ele>74.0</ele><time>2026-04-11T13:09:55.002Z</time></trkpt><trkpt lat="45.17635144725434" lon="9.316120321690239"><ele>74.0</ele><time>2026-04-11T13:09:56.002Z</time></trkpt><trkpt lat="45.17641532959728" lon="9.315702513470463"><ele>74.0</ele><time>2026-04-11T13:09:58.002Z</time></trkpt><trkpt lat="45.17644471654268" lon="9.315456400030204"><ele>74.0</ele><time>2026-04-11T13:09:59.002Z</time></trkpt><trkpt lat="45.1764926605261" lon="9.315228602434134"><ele>74.0</ele><time>2026-04-11T13:10:00.002Z</time></trkpt><trkpt lat="45.17653034788022" lon="9.315015207970529"><ele>74.0</ele><time>2026-04-11T13:10:01.002Z</time></trkpt><trkpt lat="45.17657009937422" lon="9.314830822681028"><ele>74.0</ele><time>2026-04-11T13:10:02.002Z</time></trkpt><trkpt lat="45.17660983901903" lon="9.314653769467672"><ele>74.0</ele><time>2026-04-11T13:10:03.002Z</time></trkpt><trkpt lat="45.17664483247449" lon="9.314489472706475"><ele>74.0</ele><time>2026-04-11T13:10:04.002Z</time></trkpt><trkpt lat="45.17666997740932" lon="9.314351752524189"><ele>74.0</ele><time>2026-04-11T13:10:05.002Z</time></trkpt><trkpt lat="45.176692215826534" lon="9.314256425347105"><ele>74.0</ele><time>2026-04-11T13:10:06.002Z</time></trkpt><trkpt lat="45.17673019505061" lon="9.314181734267592"><ele>74.0</ele><time>2026-04-11T13:10:07Z</time></trkpt><trkpt lat="45.17679820305432" lon="9.31414719316386"><ele>74.0</ele><time>2026-04-11T13:10:08Z</time></trkpt><trkpt lat="45.17688922408017" lon="9.314178842012966"><ele>74.0</ele><time>2026-04-11T13:10:09Z</time></trkpt><trkpt lat="45.17698134937876" lon="9.314219686192459"><ele>74.0</ele><time>2026-04-11T13:10:10Z</time></trkpt><trkpt lat="45.177096022309804" lon="9.314293755654722"><ele>74.0</ele><time>2026-04-11T13:10:11Z</time></trkpt><trkpt lat="45.177231759900415" lon="9.314358977022536"><ele>74.0</ele><time>2026-04-11T13:10:12Z</time></trkpt><trkpt lat="45.177363155276325" lon="9.314436898209854"><ele>74.0</ele><time>2026-04-11T13:10:13Z</time></trkpt><trkpt lat="45.17745148454681" lon="9.314519088165717"><ele>74.0</ele><time>2026-04-11T13:10:14Z</time></trkpt><trkpt lat="45.17754903421754" lon="9.314549041206385"><ele>74.0</ele><time>2026-04-11T13:10:15Z</time></trkpt><trkpt lat="45.177626192138426" lon="9.314611784460997"><ele>74.0</ele><time>2026-04-11T13:10:16Z</time></trkpt><trkpt lat="45.177690808620035" lon="9.314602399039753"><ele>74.0</ele><time>2026-04-11T13:10:17Z</time></trkpt><trkpt lat="45.17778716124358" lon="9.314443478169997"><ele>74.0</ele><time>2026-04-11T13:10:19Z</time></trkpt><trkpt lat="45.177829906886195" lon="9.314249553116394"><ele>74.0</ele><time>2026-04-11T13:10:20Z</time></trkpt><trkpt lat="45.177871772007116" lon="9.313992918808614"><ele>73.66666666666667</ele><time>2026-04-11T13:10:21Z</time></trkpt><trkpt lat="45.17791420293046" lon="9.313731649507394"><ele>73.33333333333333</ele><time>2026-04-11T13:10:22Z</time></trkpt><trkpt lat="45.177949801809554" lon="9.313525868895738"><ele>73.0</ele><time>2026-04-11T13:10:23Z</time></trkpt><trkpt lat="45.17798302895582" lon="9.313369634482221"><ele>73.0</ele><time>2026-04-11T13:10:24Z</time></trkpt><trkpt lat="45.17801414452321" lon="9.31323477886176"><ele>73.0</ele><time>2026-04-11T13:10:25Z</time></trkpt><trkpt lat="45.178059872046404" lon="9.31313080302092"><ele>73.0</ele><time>2026-04-11T13:10:26Z</time></trkpt><trkpt lat="45.1781323070628" lon="9.31306734943868"><ele>73.0</ele><time>2026-04-11T13:10:27Z</time></trkpt><trkpt lat="45.17823246892937" lon="9.313067228237186"><ele>73.0</ele><time>2026-04-11T13:10:28Z</time></trkpt><trkpt lat="45.17835074611542" lon="9.313114523971352"><ele>73.0</ele><time>2026-04-11T13:10:29Z</time></trkpt><trkpt lat="45.178475436936104" lon="9.313168464970094"><ele>73.0</ele><time>2026-04-11T13:10:30Z</time></trkpt><trkpt lat="45.178609862741986" lon="9.31321863994718"><ele>73.0</ele><time>2026-04-11T13:10:31Z</time></trkpt><trkpt lat="45.17874685725348" lon="9.313263127497182"><ele>73.0</ele><time>2026-04-11T13:10:32Z</time></trkpt><trkpt lat="45.178883827463295" lon="9.31330625049611"><ele>73.0</ele><time>2026-04-11T13:10:33Z</time></trkpt><trkpt lat="45.17903415617291" lon="9.313350450429892"><ele>73.0</ele><time>2026-04-11T13:10:34Z</time></trkpt><trkpt lat="45.17919351453754" lon="9.313400290261812"><ele>73.0</ele><time>2026-04-11T13:10:35Z</time></trkpt><trkpt lat="45.17936331797228" lon="9.313448459447562"><ele>73.0</ele><time>2026-04-11T13:10:36Z</time></trkpt><trkpt lat="45.179531789631284" lon="9.313499360079373"><ele>73.0</ele><time>2026-04-11T13:10:37Z</time></trkpt><trkpt lat="45.17970683828717" lon="9.313573420030819"><ele>73.0</ele><time>2026-04-11T13:10:38Z</time></trkpt><trkpt lat="45.17988576973398" lon="9.313640121209113"><ele>72.33333333333333</ele><time>2026-04-11T13:10:39.001Z</time></trkpt><trkpt lat="45.180083338275416" lon="9.313712475029611"><ele>71.66666666666667</ele><time>2026-04-11T13:10:40.001Z</time></trkpt><trkpt lat="45.18028629418032" lon="9.313756564449754"><ele>71.0</ele><time>2026-04-11T13:10:41.001Z</time></trkpt><trkpt lat="45.18049366622881" lon="9.313817603261146"><ele>71.0</ele><time>2026-04-11T13:10:42.001Z</time></trkpt><trkpt lat="45.180691457472975" lon="9.313900759214205"><ele>71.0</ele><time>2026-04-11T13:10:43.001Z</time></trkpt><trkpt lat="45.18088790414137" lon="9.313960940426908"><ele>71.0</ele><time>2026-04-11T13:10:44.001Z</time></trkpt><trkpt lat="45.181081042987735" lon="9.31402474527463"><ele>70.66666666666667</ele><time>2026-04-11T13:10:45.001Z</time></trkpt><trkpt lat="45.18126656222234" lon="9.314097313481819"><ele>70.33333333333333</ele><time>2026-04-11T13:10:46.001Z</time></trkpt><trkpt lat="45.181449269375484" lon="9.314189968656738"><ele>70.0</ele><time>2026-04-11T13:10:47.001Z</time></trkpt><trkpt lat="45.18162641278711" lon="9.314310702680674"><ele>70.0</ele><time>2026-04-11T13:10:48.001Z</time></trkpt><trkpt lat="45.18180996547499" lon="9.314417195057183"><ele>70.0</ele><time>2026-04-11T13:10:49.001Z</time></trkpt><trkpt lat="45.181983358331685" lon="9.314545502714294"><ele>70.0</ele><time>2026-04-11T13:10:50.001Z</time></trkpt><trkpt lat="45.182157219688115" lon="9.31467014331449"><ele>70.0</ele><time>2026-04-11T13:10:51.001Z</time></trkpt><trkpt lat="45.18233274985352" lon="9.314790859548916"><ele>70.0</ele><time>2026-04-11T13:10:52.001Z</time></trkpt><trkpt lat="45.18250322919688" lon="9.314903598788929"><ele>70.0</ele><time>2026-04-11T13:10:53.001Z</time></trkpt><trkpt lat="45.18267893588334" lon="9.315020368100855"><ele>70.0</ele><time>2026-04-11T13:10:54.001Z</time></trkpt><trkpt lat="45.18284906737934" lon="9.315164596822664"><ele>70.0</ele><time>2026-04-11T13:10:55.001Z</time></trkpt><trkpt lat="45.18302784063154" lon="9.315280030118807"><ele>70.0</ele><time>2026-04-11T13:10:56.001Z</time></trkpt><trkpt lat="45.18320863013413" lon="9.315372840468346"><ele>70.0</ele><time>2026-04-11T13:10:57.001Z</time></trkpt><trkpt lat="45.1833856721005" lon="9.315489258903405"><ele>70.0</ele><time>2026-04-11T13:10:58.001Z</time></trkpt><trkpt lat="45.183565704335344" lon="9.315595747211567"><ele>70.0</ele><time>2026-04-11T13:10:59.001Z</time></trkpt><trkpt lat="45.183741838092494" lon="9.315692891815367"><ele>70.0</ele><time>2026-04-11T13:11:00.001Z</time></trkpt><trkpt lat="45.183921796806345" lon="9.315784844466513"><ele>70.0</ele><time>2026-04-11T13:11:01.001Z</time></trkpt><trkpt lat="45.184101357734846" lon="9.315873334865918"><ele>70.0</ele><time>2026-04-11T13:11:02.001Z</time></trkpt><trkpt lat="45.18428164052551" lon="9.315962718810638"><ele>70.0</ele><time>2026-04-11T13:11:03.001Z</time></trkpt><trkpt lat="45.18445434451135" lon="9.316083089466343"><ele>70.0</ele><time>2026-04-11T13:11:04.001Z</time></trkpt><trkpt lat="45.18463183361408" lon="9.316181353323406"><ele>70.0</ele><time>2026-04-11T13:11:05.001Z</time></trkpt><trkpt lat="45.184810369596455" lon="9.316275313216547"><ele>69.66666666666666</ele><time>2026-04-11T13:11:06.001Z</time></trkpt><trkpt lat="45.18499005525649" lon="9.316347662713191"><ele>69.33333333333333</ele><time>2026-04-11T13:11:07.001Z</time></trkpt><trkpt lat="45.1851609627398" lon="9.316437863487455"><ele>69.0</ele><time>2026-04-11T13:11:08.001Z</time></trkpt><trkpt lat="45.18532800926489" lon="9.31652519581504"><ele>69.0</ele><time>2026-04-11T13:11:09.001Z</time></trkpt><trkpt lat="45.18548967615111" lon="9.316611715422367"><ele>69.0</ele><time>2026-04-11T13:11:10.001Z</time></trkpt><trkpt lat="45.1856538687652" lon="9.316691690946776"><ele>69.0</ele><time>2026-04-11T13:11:11.001Z</time></trkpt><trkpt lat="45.185821438683206" lon="9.31677609558182"><ele>69.33333333333333</ele><time>2026-04-11T13:11:12.001Z</time></trkpt><trkpt lat="45.18598318626169" lon="9.316875791889181"><ele>69.66666666666666</ele><time>2026-04-11T13:11:13.001Z</time></trkpt><trkpt lat="45.186153788855975" lon="9.316966401540208"><ele>70.0</ele><time>2026-04-11T13:11:14.001Z</time></trkpt><trkpt lat="45.1863199383995" lon="9.31705755718677"><ele>70.0</ele><time>2026-04-11T13:11:15.001Z</time></trkpt><trkpt lat="45.18649042337753" lon="9.317127078588655"><ele>70.0</ele><time>2026-04-11T13:11:16.001Z</time></trkpt><trkpt lat="45.186660158996794" lon="9.317227550136652"><ele>70.0</ele><time>2026-04-11T13:11:17.001Z</time></trkpt><trkpt lat="45.186818211591095" lon="9.317343366274656"><ele>69.33333333333333</ele><time>2026-04-11T13:11:18.001Z</time></trkpt><trkpt lat="45.18698777141072" lon="9.317413733731025"><ele>68.66666666666667</ele><time>2026-04-11T13:11:19.001Z</time></trkpt><trkpt lat="45.187152908984956" lon="9.317503619954532"><ele>68.0</ele><time>2026-04-11T13:11:20.001Z</time></trkpt><trkpt lat="45.18731656553284" lon="9.317588033977252"><ele>68.0</ele><time>2026-04-11T13:11:21.001Z</time></trkpt><trkpt lat="45.187484751352265" lon="9.31767394892435"><ele>68.0</ele><time>2026-04-11T13:11:22.001Z</time></trkpt><trkpt lat="45.187653390159625" lon="9.317763196733312"><ele>68.0</ele><time>2026-04-11T13:11:23.001Z</time></trkpt><trkpt lat="45.18781764082231" lon="9.317851299689703"><ele>68.0</ele><time>2026-04-11T13:11:24.001Z</time></trkpt><trkpt lat="45.18798161584301" lon="9.317938705767128"><ele>68.0</ele><time>2026-04-11T13:11:25.001Z</time></trkpt><trkpt lat="45.18814380332205" lon="9.318020464250889"><ele>68.0</ele><time>2026-04-11T13:11:26.001Z</time></trkpt><trkpt lat="45.18830394991276" lon="9.318116244840564"><ele>68.66666666666667</ele><time>2026-04-11T13:11:27.001Z</time></trkpt><trkpt lat="45.18846292198084" lon="9.318197974360938"><ele>69.33333333333333</ele><time>2026-04-11T13:11:28.001Z</time></trkpt><trkpt lat="45.18862420471527" lon="9.3182828455945"><ele>70.0</ele><time>2026-04-11T13:11:29.001Z</time></trkpt><trkpt lat="45.188787963619816" lon="9.318369866698635"><ele>70.0</ele><time>2026-04-11T13:11:30.001Z</time></trkpt><trkpt lat="45.188957248628824" lon="9.318447635170735"><ele>70.0</ele><time>2026-04-11T13:11:31.002Z</time></trkpt><trkpt lat="45.18911808105517" lon="9.31852671645819"><ele>70.0</ele><time>2026-04-11T13:11:32.002Z</time></trkpt><trkpt lat="45.189285969150255" lon="9.318586932099608"><ele>68.33333333333333</ele><time>2026-04-11T13:11:33.002Z</time></trkpt><trkpt lat="45.18945781481998" lon="9.318621757193709"><ele>66.66666666666667</ele><time>2026-04-11T13:11:34.002Z</time></trkpt><trkpt lat="45.189627051448184" lon="9.31863911262738"><ele>65.0</ele><time>2026-04-11T13:11:35.002Z</time></trkpt><trkpt lat="45.18979763795021" lon="9.318640398285611"><ele>65.0</ele><time>2026-04-11T13:11:36.002Z</time></trkpt><trkpt lat="45.189970682466885" lon="9.31862387854313"><ele>65.0</ele><time>2026-04-11T13:11:37.002Z</time></trkpt><trkpt lat="45.19014209517306" lon="9.318583189683693"><ele>65.0</ele><time>2026-04-11T13:11:38.002Z</time></trkpt><trkpt lat="45.190307247437794" lon="9.3185195504573"><ele>65.0</ele><time>2026-04-11T13:11:39.002Z</time></trkpt><trkpt lat="45.1904644323337" lon="9.318432668691807"><ele>65.0</ele><time>2026-04-11T13:11:40.002Z</time></trkpt><trkpt lat="45.190617896245314" lon="9.318310835998645"><ele>65.0</ele><time>2026-04-11T13:11:41.002Z</time></trkpt><trkpt lat="45.19077151665788" lon="9.318166980091851"><ele>65.66666666666667</ele><time>2026-04-11T13:11:42.002Z</time></trkpt><trkpt lat="45.190945104018446" lon="9.31803329715574"><ele>66.33333333333333</ele><time>2026-04-11T13:11:43.002Z</time></trkpt><trkpt lat="45.19108647616004" lon="9.317861247590292"><ele>67.0</ele><time>2026-04-11T13:11:44.002Z</time></trkpt><trkpt lat="45.19123292416017" lon="9.31768916695798"><ele>67.0</ele><time>2026-04-11T13:11:45.002Z</time></trkpt><trkpt lat="45.19136556674013" lon="9.317504199834493"><ele>67.0</ele><time>2026-04-11T13:11:46.002Z</time></trkpt><trkpt lat="45.191514302452134" lon="9.317361103335477"><ele>67.0</ele><time>2026-04-11T13:11:47.002Z</time></trkpt><trkpt lat="45.19165717310634" lon="9.317213965305271"><ele>68.0</ele><time>2026-04-11T13:11:48.002Z</time></trkpt><trkpt lat="45.1918097384229" lon="9.317094928847233"><ele>69.0</ele><time>2026-04-11T13:11:49.002Z</time></trkpt><trkpt lat="45.19197623538643" lon="9.317004161803466"><ele>70.0</ele><time>2026-04-11T13:11:50.002Z</time></trkpt><trkpt lat="45.19215098573755" lon="9.316933126898709"><ele>70.0</ele><time>2026-04-11T13:11:51.002Z</time></trkpt><trkpt lat="45.19233550727207" lon="9.316862214403606"><ele>70.0</ele><time>2026-04-11T13:11:52.002Z</time></trkpt><trkpt lat="45.192517460204705" lon="9.316792289048436"><ele>70.0</ele><time>2026-04-11T13:11:53.002Z</time></trkpt><trkpt lat="45.19270231624112" lon="9.316721888799389"><ele>69.66666666666666</ele><time>2026-04-11T13:11:54.002Z</time></trkpt><trkpt lat="45.19288390061627" lon="9.316653946078036"><ele>69.33333333333333</ele><time>2026-04-11T13:11:55.002Z</time></trkpt><trkpt lat="45.193063352991395" lon="9.316587183980277"><ele>69.0</ele><time>2026-04-11T13:11:56.002Z</time></trkpt><trkpt lat="45.19324064667419" lon="9.31652050050484"><ele>68.66666666666667</ele><time>2026-04-11T13:11:57.002Z</time></trkpt><trkpt lat="45.19341181730713" lon="9.316457616155619"><ele>68.33333333333334</ele><time>2026-04-11T13:11:58.002Z</time></trkpt><trkpt lat="45.19358193258771" lon="9.316409199844042"><ele>68.0</ele><time>2026-04-11T13:11:59.002Z</time></trkpt><trkpt lat="45.1937509105901" lon="9.316371348380182"><ele>68.0</ele><time>2026-04-11T13:12:00.002Z</time></trkpt><trkpt lat="45.19391715353111" lon="9.316339344027186"><ele>68.0</ele><time>2026-04-11T13:12:01.002Z</time></trkpt><trkpt lat="45.194082503279034" lon="9.316311090192082"><ele>68.0</ele><time>2026-04-11T13:12:02.002Z</time></trkpt><trkpt lat="45.19423957053793" lon="9.31628424482358"><ele>68.0</ele><time>2026-04-11T13:12:03.002Z</time></trkpt><trkpt lat="45.19438302645046" lon="9.316232660491472"><ele>68.0</ele><time>2026-04-11T13:12:04.002Z</time></trkpt><trkpt lat="45.19452029883753" lon="9.316198328040384"><ele>68.0</ele><time>2026-04-11T13:12:05.002Z</time></trkpt><trkpt lat="45.19464110147215" lon="9.316144014050781"><ele>68.0</ele><time>2026-04-11T13:12:06.002Z</time></trkpt><trkpt lat="45.19475239461138" lon="9.316061634374673"><ele>68.0</ele><time>2026-04-11T13:12:07.002Z</time></trkpt><trkpt lat="45.19485614641339" lon="9.315951684456303"><ele>68.0</ele><time>2026-04-11T13:12:08.002Z</time></trkpt><trkpt lat="45.19495536589653" lon="9.31581696673487"><ele>68.0</ele><time>2026-04-11T13:12:09.002Z</time></trkpt><trkpt lat="45.19507359208984" lon="9.315690451521995"><ele>68.0</ele><time>2026-04-11T13:12:10.002Z</time></trkpt><trkpt lat="45.195183959370056" lon="9.315558525589262"><ele>67.75</ele><time>2026-04-11T13:12:11.002Z</time></trkpt><trkpt lat="45.19531385059939" lon="9.315440907746133"><ele>67.5</ele><time>2026-04-11T13:12:12.002Z</time></trkpt><trkpt lat="45.19544994839596" lon="9.315342202372241"><ele>67.25</ele><time>2026-04-11T13:12:13Z</time></trkpt><trkpt lat="45.195575852319685" lon="9.315251886166386"><ele>67.0</ele><time>2026-04-11T13:12:14Z</time></trkpt><trkpt lat="45.195692180952676" lon="9.315167271417263"><ele>66.8</ele><time>2026-04-11T13:12:15Z</time></trkpt><trkpt lat="45.19579693933176" lon="9.315091072567316"><ele>66.6</ele><time>2026-04-11T13:12:16Z</time></trkpt><trkpt lat="45.195890517283814" lon="9.3150203489597"><ele>66.39999999999999</ele><time>2026-04-11T13:12:17Z</time></trkpt><trkpt lat="45.19597518243854" lon="9.314957812652445"><ele>66.2</ele><time>2026-04-11T13:12:18Z</time></trkpt><trkpt lat="45.19605270657303" lon="9.314904527188807"><ele>66.0</ele><time>2026-04-11T13:12:19Z</time></trkpt><trkpt lat="45.19613402795463" lon="9.31491750804212"><ele>66.0</ele><time>2026-04-11T13:12:20Z</time></trkpt><trkpt lat="45.19620161513187" lon="9.314951916178112"><ele>66.0</ele><time>2026-04-11T13:12:21Z</time></trkpt><trkpt lat="45.196280445327524" lon="9.314975053392997"><ele>66.0</ele><time>2026-04-11T13:12:23Z</time></trkpt><trkpt lat="45.19636791935815" lon="9.314956682424022"><ele>66.0</ele><time>2026-04-11T13:12:29Z</time></trkpt><trkpt lat="45.19644342832474" lon="9.314813349419069"><ele>66.0</ele><time>2026-04-11T13:12:30Z</time></trkpt><trkpt lat="45.19647578799822" lon="9.314683565965547"><ele>67.0</ele><time>2026-04-11T13:12:31Z</time></trkpt><trkpt lat="45.19652290594222" lon="9.314494592150806"><ele>68.0</ele><time>2026-04-11T13:12:32Z</time></trkpt><trkpt lat="45.19657306722622" lon="9.314293413855006"><ele>69.0</ele><time>2026-04-11T13:12:33Z</time></trkpt><trkpt lat="45.196626107266574" lon="9.314036914078741"><ele>69.33333333333333</ele><time>2026-04-11T13:12:34Z</time></trkpt><trkpt lat="45.19668887741684" lon="9.313814284199001"><ele>69.66666666666666</ele><time>2026-04-11T13:12:35Z</time></trkpt><trkpt lat="45.19674999823657" lon="9.313596929176526"><ele>70.0</ele><time>2026-04-11T13:12:36Z</time></trkpt><trkpt lat="45.19680869198118" lon="9.313386882402881"><ele>70.0</ele><time>2026-04-11T13:12:37Z</time></trkpt><trkpt lat="45.1968652708043" lon="9.313186715316135"><ele>70.0</ele><time>2026-04-11T13:12:38Z</time></trkpt><trkpt lat="45.19691762452049" lon="9.312990444566283"><ele>70.0</ele><time>2026-04-11T13:12:39Z</time></trkpt><trkpt lat="45.19697025472992" lon="9.312793268092104"><ele>70.0</ele><time>2026-04-11T13:12:40Z</time></trkpt><trkpt lat="45.19701045467886" lon="9.312590890421596"><ele>69.66666666666666</ele><time>2026-04-11T13:12:41Z</time></trkpt><trkpt lat="45.19702899318767" lon="9.312375904896301"><ele>69.33333333333333</ele><time>2026-04-11T13:12:42Z</time></trkpt><trkpt lat="45.19702303929054" lon="9.31214533018332"><ele>69.0</ele><time>2026-04-11T13:12:43Z</time></trkpt><trkpt lat="45.19700359421273" lon="9.311910948256722"><ele>69.0</ele><time>2026-04-11T13:12:44.001Z</time></trkpt><trkpt lat="45.1969814207289" lon="9.311678419130942"><ele>69.0</ele><time>2026-04-11T13:12:45.001Z</time></trkpt><trkpt lat="45.19695674018205" lon="9.311442202976455"><ele>69.0</ele><time>2026-04-11T13:12:46.001Z</time></trkpt><trkpt lat="45.19693193868199" lon="9.311205469752137"><ele>69.0</ele><time>2026-04-11T13:12:47.001Z</time></trkpt><trkpt lat="45.196908286387796" lon="9.310971678238591"><ele>69.0</ele><time>2026-04-11T13:12:48.001Z</time></trkpt><trkpt lat="45.19688610425938" lon="9.310734158315231"><ele>69.0</ele><time>2026-04-11T13:12:49.001Z</time></trkpt><trkpt lat="45.19686548763038" lon="9.310494799052508"><ele>69.33333333333333</ele><time>2026-04-11T13:12:50.001Z</time></trkpt><trkpt lat="45.196843893266035" lon="9.310263609950304"><ele>69.66666666666666</ele><time>2026-04-11T13:12:51.001Z</time></trkpt><trkpt lat="45.19682229039407" lon="9.310034915964376"><ele>70.0</ele><time>2026-04-11T13:12:52.001Z</time></trkpt><trkpt lat="45.196799219487076" lon="9.309807581408439"><ele>70.33333333333333</ele><time>2026-04-11T13:12:53.001Z</time></trkpt><trkpt lat="45.196775598417304" lon="9.30956572787511"><ele>70.66666666666667</ele><time>2026-04-11T13:12:54.001Z</time></trkpt><trkpt lat="45.19675377210064" lon="9.309343241004898"><ele>71.0</ele><time>2026-04-11T13:12:55.001Z</time></trkpt><trkpt lat="45.19673057446938" lon="9.309134591703126"><ele>71.0</ele><time>2026-04-11T13:12:56.001Z</time></trkpt><trkpt lat="45.196708978631385" lon="9.30894018097461"><ele>71.0</ele><time>2026-04-11T13:12:57.001Z</time></trkpt><trkpt lat="45.19669152068025" lon="9.30876166140394"><ele>71.0</ele><time>2026-04-11T13:12:58.001Z</time></trkpt><trkpt lat="45.196674826151586" lon="9.308599384750028"><ele>71.0</ele><time>2026-04-11T13:12:59.001Z</time></trkpt><trkpt lat="45.196661327654496" lon="9.308477142701229"><ele>71.0</ele><time>2026-04-11T13:13:00.001Z</time></trkpt><trkpt lat="45.19665104163887" lon="9.30838426450265"><ele>71.0</ele><time>2026-04-11T13:13:01.001Z</time></trkpt><trkpt lat="45.19665954211461" lon="9.308281805342627"><ele>71.0</ele><time>2026-04-11T13:13:03.001Z</time></trkpt><trkpt lat="45.19677146343344" lon="9.308260081926736"><ele>71.0</ele><time>2026-04-11T13:13:06.001Z</time></trkpt><trkpt lat="45.19687628890649" lon="9.308237071994524"><ele>71.0</ele><time>2026-04-11T13:13:08.001Z</time></trkpt><trkpt lat="45.19699952919108" lon="9.308207954982011"><ele>71.0</ele><time>2026-04-11T13:13:10.001Z</time></trkpt><trkpt lat="45.197065234762974" lon="9.30819243124397"><ele>71.0</ele><time>2026-04-11T13:13:11.001Z</time></trkpt><trkpt lat="45.19713088722298" lon="9.308176920052151"><ele>71.0</ele><time>2026-04-11T13:13:12.001Z</time></trkpt><trkpt lat="45.19725327054922" lon="9.308148627876363"><ele>71.0</ele><time>2026-04-11T13:13:14.001Z</time></trkpt><trkpt lat="45.19737019470709" lon="9.308122037109849"><ele>71.0</ele><time>2026-04-11T13:13:16.001Z</time></trkpt><trkpt lat="45.19749032103177" lon="9.30807473686113"><ele>70.83333333333334</ele><time>2026-04-11T13:13:18.001Z</time></trkpt><trkpt lat="45.19755316466363" lon="9.308066069968444"><ele>70.66666666666667</ele><time>2026-04-11T13:13:19.001Z</time></trkpt><trkpt lat="45.19767872301275" lon="9.308034529056163"><ele>70.5</ele><time>2026-04-11T13:13:21.001Z</time></trkpt><trkpt lat="45.19775209605898" lon="9.308020850219329"><ele>70.33333333333333</ele><time>2026-04-11T13:13:22.001Z</time></trkpt><trkpt lat="45.19783401189508" lon="9.308019343075085"><ele>70.16666666666666</ele><time>2026-04-11T13:13:23.001Z</time></trkpt><trkpt lat="45.19791481793912" lon="9.308001694726949"><ele>70.0</ele><time>2026-04-11T13:13:24.001Z</time></trkpt><trkpt lat="45.19800313939247" lon="9.307983339301632"><ele>70.0</ele><time>2026-04-11T13:13:25.001Z</time></trkpt><trkpt lat="45.198084933460265" lon="9.307967589385791"><ele>70.0</ele><time>2026-04-11T13:13:26.001Z</time></trkpt><trkpt lat="45.198176313359255" lon="9.307926728571376"><ele>70.0</ele><time>2026-04-11T13:13:27.001Z</time></trkpt><trkpt lat="45.19827516741504" lon="9.307913447989012"><ele>70.0</ele><time>2026-04-11T13:13:28.001Z</time></trkpt><trkpt lat="45.19836212090205" lon="9.307900409155694"><ele>70.0</ele><time>2026-04-11T13:13:29.001Z</time></trkpt><trkpt lat="45.198450189042205" lon="9.307883935256308"><ele>69.83333333333333</ele><time>2026-04-11T13:13:30.001Z</time></trkpt><trkpt lat="45.19853513333842" lon="9.307868280523403"><ele>69.66666666666666</ele><time>2026-04-11T13:13:31.001Z</time></trkpt><trkpt lat="45.1986115678847" lon="9.307849967524968"><ele>69.5</ele><time>2026-04-11T13:13:32.001Z</time></trkpt><trkpt lat="45.19869175444185" lon="9.307822808590826"><ele>69.33333333333333</ele><time>2026-04-11T13:13:33.001Z</time></trkpt><trkpt lat="45.19877826449741" lon="9.30782135764457"><ele>69.16666666666667</ele><time>2026-04-11T13:13:34.001Z</time></trkpt><trkpt lat="45.198855119065826" lon="9.307805275177019"><ele>69.0</ele><time>2026-04-11T13:13:35.001Z</time></trkpt><trkpt lat="45.1989408018937" lon="9.307786483914793"><ele>69.2</ele><time>2026-04-11T13:13:36.001Z</time></trkpt><trkpt lat="45.19903190910788" lon="9.307765729769525"><ele>69.4</ele><time>2026-04-11T13:13:37.001Z</time></trkpt><trkpt lat="45.19911967715714" lon="9.307745736270816"><ele>69.6</ele><time>2026-04-11T13:13:38.001Z</time></trkpt><trkpt lat="45.19921173139022" lon="9.307722898198627"><ele>69.8</ele><time>2026-04-11T13:13:39.002Z</time></trkpt><trkpt lat="45.199299881117845" lon="9.307676418170747"><ele>70.0</ele><time>2026-04-11T13:13:40.002Z</time></trkpt><trkpt lat="45.19938834734609" lon="9.307668864001808"><ele>70.0</ele><time>2026-04-11T13:13:41.002Z</time></trkpt><trkpt lat="45.19947222698002" lon="9.307640196697232"><ele>70.0</ele><time>2026-04-11T13:13:42.002Z</time></trkpt><trkpt lat="45.19956811775038" lon="9.307615039398161"><ele>70.0</ele><time>2026-04-11T13:13:43.002Z</time></trkpt><trkpt lat="45.19966388852496" lon="9.30756440358835"><ele>70.0</ele><time>2026-04-11T13:13:44.002Z</time></trkpt><trkpt lat="45.19975172163843" lon="9.307526255300814"><ele>70.0</ele><time>2026-04-11T13:13:45.002Z</time></trkpt><trkpt lat="45.19984568055765" lon="9.30749062395738"><ele>70.16666666666666</ele><time>2026-04-11T13:13:46.002Z</time></trkpt><trkpt lat="45.19993549837466" lon="9.307455978220645"><ele>70.33333333333333</ele><time>2026-04-11T13:13:47.002Z</time></trkpt><trkpt lat="45.20002397722519" lon="9.307423218988303"><ele>70.5</ele><time>2026-04-11T13:13:48.002Z</time></trkpt><trkpt lat="45.20011562700584" lon="9.307375047700333"><ele>70.66666666666667</ele><time>2026-04-11T13:13:49.002Z</time></trkpt><trkpt lat="45.20020109967256" lon="9.307363343974332"><ele>70.83333333333334</ele><time>2026-04-11T13:13:50.002Z</time></trkpt><trkpt lat="45.20027448037339" lon="9.307335089851117"><ele>71.0</ele><time>2026-04-11T13:13:51.002Z</time></trkpt><trkpt lat="45.20034794365799" lon="9.307306803789144"><ele>71.0</ele><time>2026-04-11T13:13:52.002Z</time></trkpt><trkpt lat="45.200428336833816" lon="9.307255131375943"><ele>71.0</ele><time>2026-04-11T13:13:53.002Z</time></trkpt><trkpt lat="45.20051381125985" lon="9.307223993870783"><ele>71.0</ele><time>2026-04-11T13:13:54.002Z</time></trkpt><trkpt lat="45.200583700920596" lon="9.307199144754623"><ele>71.0</ele><time>2026-04-11T13:13:55.002Z</time></trkpt><trkpt lat="45.20066147541086" lon="9.307168683264466"><ele>71.0</ele><time>2026-04-11T13:13:56.002Z</time></trkpt><trkpt lat="45.20072454985872" lon="9.307142810044256"><ele>71.0</ele><time>2026-04-11T13:13:57.002Z</time></trkpt><trkpt lat="45.20079151085992" lon="9.30711915816143"><ele>71.0</ele><time>2026-04-11T13:13:58.002Z</time></trkpt><trkpt lat="45.20087108122874" lon="9.30708943695724"><ele>71.0</ele><time>2026-04-11T13:13:59.002Z</time></trkpt><trkpt lat="45.200955417537614" lon="9.307062040338373"><ele>71.0</ele><time>2026-04-11T13:14:00.002Z</time></trkpt><trkpt lat="45.201026209169214" lon="9.307039853786009"><ele>71.0</ele><time>2026-04-11T13:14:01.002Z</time></trkpt><trkpt lat="45.20110591354193" lon="9.307028002832105"><ele>71.0</ele><time>2026-04-11T13:14:02.002Z</time></trkpt><trkpt lat="45.20118585405415" lon="9.307017251453804"><ele>71.0</ele><time>2026-04-11T13:14:03.002Z</time></trkpt><trkpt lat="45.20126406940269" lon="9.307005973385133"><ele>71.0</ele><time>2026-04-11T13:14:04.002Z</time></trkpt><trkpt lat="45.2013404214785" lon="9.307010907199158"><ele>71.0</ele><time>2026-04-11T13:14:05.002Z</time></trkpt><trkpt lat="45.201415470893416" lon="9.307009756132482"><ele>71.0</ele><time>2026-04-11T13:14:06.002Z</time></trkpt><trkpt lat="45.20148617199064" lon="9.306978787977911"><ele>71.0</ele><time>2026-04-11T13:14:07.002Z</time></trkpt><trkpt lat="45.20157179639173" lon="9.306934102027435"><ele>71.0</ele><time>2026-04-11T13:14:08.002Z</time></trkpt><trkpt lat="45.20166654297843" lon="9.306887830627975"><ele>71.0</ele><time>2026-04-11T13:14:09.002Z</time></trkpt><trkpt lat="45.20176328905819" lon="9.306846269549448"><ele>71.2</ele><time>2026-04-11T13:14:10.002Z</time></trkpt><trkpt lat="45.20184951711301" lon="9.306815622115861"><ele>71.39999999999999</ele><time>2026-04-11T13:14:11.002Z</time></trkpt><trkpt lat="45.201930033888495" lon="9.30678851860844"><ele>71.6</ele><time>2026-04-11T13:14:12.002Z</time></trkpt><trkpt lat="45.20199088669973" lon="9.306760861002134"><ele>71.8</ele><time>2026-04-11T13:14:13.002Z</time></trkpt><trkpt lat="45.202080790484786" lon="9.30671875715588"><ele>72.0</ele><time>2026-04-11T13:14:15.002Z</time></trkpt><trkpt lat="45.20215974416955" lon="9.306590114779516"><ele>72.0</ele><time>2026-04-11T13:14:17.002Z</time></trkpt><trkpt lat="45.20217020592187" lon="9.306487258483308"><ele>72.0</ele><time>2026-04-11T13:14:18.002Z</time></trkpt><trkpt lat="45.20219275320011" lon="9.306377707368378"><ele>72.0</ele><time>2026-04-11T13:14:19Z</time></trkpt><trkpt lat="45.20222592487489" lon="9.306270747624495"><ele>72.0</ele><time>2026-04-11T13:14:20Z</time></trkpt><trkpt lat="45.202219878985" lon="9.306140446927813"><ele>72.0</ele><time>2026-04-11T13:14:21Z</time></trkpt><trkpt lat="45.20223482987569" lon="9.306018529139946"><ele>72.0</ele><time>2026-04-11T13:14:22Z</time></trkpt><trkpt lat="45.20224745268293" lon="9.305904946053959"><ele>71.8</ele><time>2026-04-11T13:14:23Z</time></trkpt><trkpt lat="45.20225864540328" lon="9.305809603989108"><ele>71.6</ele><time>2026-04-11T13:14:24Z</time></trkpt><trkpt lat="45.202274882885945" lon="9.305640915506876"><ele>71.39999999999999</ele><time>2026-04-11T13:14:26Z</time></trkpt><trkpt lat="45.202289780554594" lon="9.305545305214515"><ele>71.2</ele><time>2026-04-11T13:14:27Z</time></trkpt><trkpt lat="45.20230408168501" lon="9.305417721603748"><ele>71.0</ele><time>2026-04-11T13:14:28Z</time></trkpt><trkpt lat="45.20234081935974" lon="9.305265746542458"><ele>71.0</ele><time>2026-04-11T13:14:29Z</time></trkpt><trkpt lat="45.202345584913175" lon="9.305113042993318"><ele>71.0</ele><time>2026-04-11T13:14:30Z</time></trkpt><trkpt lat="45.20237486318678" lon="9.304954614514715"><ele>71.0</ele><time>2026-04-11T13:14:31Z</time></trkpt><trkpt lat="45.20239477692224" lon="9.304795417187295"><ele>71.0</ele><time>2026-04-11T13:14:32Z</time></trkpt><trkpt lat="45.20242831422425" lon="9.304681438532254"><ele>71.0</ele><time>2026-04-11T13:14:33Z</time></trkpt><trkpt lat="45.20245451607214" lon="9.304562968961687"><ele>71.0</ele><time>2026-04-11T13:14:34Z</time></trkpt><trkpt lat="45.202485365786835" lon="9.304441086411035"><ele>71.0</ele><time>2026-04-11T13:14:35Z</time></trkpt><trkpt lat="45.20251340783092" lon="9.304334553522226"><ele>71.0</ele><time>2026-04-11T13:14:36Z</time></trkpt><trkpt lat="45.20253914867705" lon="9.304234441627672"><ele>71.0</ele><time>2026-04-11T13:14:37Z</time></trkpt><trkpt lat="45.2025612490239" lon="9.30414661725442"><ele>71.0</ele><time>2026-04-11T13:14:38Z</time></trkpt><trkpt lat="45.20261051768296" lon="9.303970140747916"><ele>71.0</ele><time>2026-04-11T13:14:40Z</time></trkpt><trkpt lat="45.20264518775145" lon="9.303855270098879"><ele>71.16666666666667</ele><time>2026-04-11T13:14:41Z</time></trkpt><trkpt lat="45.20266833982909" lon="9.303709630562595"><ele>71.33333333333334</ele><time>2026-04-11T13:14:42Z</time></trkpt><trkpt lat="45.20268218332049" lon="9.303580131394348"><ele>71.5</ele><time>2026-04-11T13:14:43Z</time></trkpt><trkpt lat="45.20269101684577" lon="9.303468876470372"><ele>71.66666666666667</ele><time>2026-04-11T13:14:44Z</time></trkpt><trkpt lat="45.20269570154481" lon="9.303376192860302"><ele>71.83333333333333</ele><time>2026-04-11T13:14:45Z</time></trkpt><trkpt lat="45.20273624848208" lon="9.303261431858047"><ele>72.0</ele><time>2026-04-11T13:14:47Z</time></trkpt><trkpt lat="45.20284774589806" lon="9.303270929103016"><ele>72.0</ele><time>2026-04-11T13:14:50.001Z</time></trkpt><trkpt lat="45.20291141182238" lon="9.303322976562109"><ele>72.0</ele><time>2026-04-11T13:14:51.001Z</time></trkpt><trkpt lat="45.20299236783219" lon="9.303413818008346"><ele>72.0</ele><time>2026-04-11T13:14:52.001Z</time></trkpt><trkpt lat="45.203105767066475" lon="9.303465958937243"><ele>72.0</ele><time>2026-04-11T13:14:53.001Z</time></trkpt><trkpt lat="45.20322113391873" lon="9.303545331515009"><ele>72.0</ele><time>2026-04-11T13:14:54.001Z</time></trkpt><trkpt lat="45.20333685770115" lon="9.303622601106712"><ele>71.0</ele><time>2026-04-11T13:14:55.001Z</time></trkpt><trkpt lat="45.20343950753085" lon="9.303680193762547"><ele>70.0</ele><time>2026-04-11T13:14:56.001Z</time></trkpt><trkpt lat="45.203528665963354" lon="9.30373611350444"><ele>69.0</ele><time>2026-04-11T13:14:57.001Z</time></trkpt><trkpt lat="45.20360946910212" lon="9.303788019634279"><ele>68.0</ele><time>2026-04-11T13:14:58.001Z</time></trkpt><trkpt lat="45.20367889902237" lon="9.303840371936015"><ele>67.0</ele><time>2026-04-11T13:14:59.001Z</time></trkpt><trkpt lat="45.20374015058162" lon="9.303905198126316"><ele>67.0</ele><time>2026-04-11T13:15:00.001Z</time></trkpt><trkpt lat="45.20380740708784" lon="9.303999759661993"><ele>67.0</ele><time>2026-04-11T13:15:01.001Z</time></trkpt><trkpt lat="45.20385770612237" lon="9.30413806127876"><ele>67.0</ele><time>2026-04-11T13:15:02.001Z</time></trkpt><trkpt lat="45.20394207533556" lon="9.304270226128276"><ele>67.0</ele><time>2026-04-11T13:15:03.001Z</time></trkpt><trkpt lat="45.20402566234746" lon="9.304435701648135"><ele>66.75</ele><time>2026-04-11T13:15:04.001Z</time></trkpt><trkpt lat="45.20410613024503" lon="9.304600367939804"><ele>66.5</ele><time>2026-04-11T13:15:05.001Z</time></trkpt><trkpt lat="45.204186979848615" lon="9.30476248933948"><ele>66.25</ele><time>2026-04-11T13:15:06.001Z</time></trkpt><trkpt lat="45.20427055517679" lon="9.304928079985403"><ele>66.0</ele><time>2026-04-11T13:15:07.001Z</time></trkpt><trkpt lat="45.20435554172718" lon="9.305098365187662"><ele>66.0</ele><time>2026-04-11T13:15:08.001Z</time></trkpt><trkpt lat="45.204431848697034" lon="9.305252140145962"><ele>66.0</ele><time>2026-04-11T13:15:09.001Z</time></trkpt><trkpt lat="45.2045050687682" lon="9.305418904981398"><ele>66.0</ele><time>2026-04-11T13:15:10.001Z</time></trkpt><trkpt lat="45.20458607161494" lon="9.305571347646376"><ele>66.0</ele><time>2026-04-11T13:15:11.001Z</time></trkpt><trkpt lat="45.20465187263624" lon="9.30571018048244"><ele>66.0</ele><time>2026-04-11T13:15:12.001Z</time></trkpt><trkpt lat="45.204714194141495" lon="9.305837940820515"><ele>66.0</ele><time>2026-04-11T13:15:13.001Z</time></trkpt><trkpt lat="45.20476501650739" lon="9.305944442643966"><ele>66.0</ele><time>2026-04-11T13:15:14.001Z</time></trkpt><trkpt lat="45.20480992192036" lon="9.306029227703272"><ele>66.0</ele><time>2026-04-11T13:15:15.001Z</time></trkpt><trkpt lat="45.204847712012175" lon="9.306106226261205"><ele>66.0</ele><time>2026-04-11T13:15:16.001Z</time></trkpt><trkpt lat="45.204895057060135" lon="9.306221245081833"><ele>66.0</ele><time>2026-04-11T13:15:18.001Z</time></trkpt><trkpt lat="45.204960320928684" lon="9.306230379509394"><ele>66.0</ele><time>2026-04-11T13:15:19.001Z</time></trkpt><trkpt lat="45.20505599939979" lon="9.306237291981263"><ele>66.0</ele><time>2026-04-11T13:15:21.001Z</time></trkpt><trkpt lat="45.205165115578815" lon="9.306276263673102"><ele>66.0</ele><time>2026-04-11T13:15:23.001Z</time></trkpt><trkpt lat="45.20523747324429" lon="9.306346388059055"><ele>66.0</ele><time>2026-04-11T13:15:24.001Z</time></trkpt><trkpt lat="45.20532435355411" lon="9.306429359495857"><ele>66.0</ele><time>2026-04-11T13:15:25.001Z</time></trkpt><trkpt lat="45.20542273008042" lon="9.306510707808142"><ele>66.0</ele><time>2026-04-11T13:15:26.001Z</time></trkpt><trkpt lat="45.205531844385035" lon="9.30658936391984"><ele>66.0</ele><time>2026-04-11T13:15:27.001Z</time></trkpt><trkpt lat="45.20563857713308" lon="9.306666831960387"><ele>66.0</ele><time>2026-04-11T13:15:28.001Z</time></trkpt><trkpt lat="45.20572793831817" lon="9.306729343498837"><ele>66.0</ele><time>2026-04-11T13:15:29.001Z</time></trkpt><trkpt lat="45.20581655855132" lon="9.306787038873582"><ele>66.0</ele><time>2026-04-11T13:15:30.001Z</time></trkpt><trkpt lat="45.205895768363" lon="9.306844967227228"><ele>66.0</ele><time>2026-04-11T13:15:31.001Z</time></trkpt><trkpt lat="45.205953037461896" lon="9.306900925184433"><ele>66.0</ele><time>2026-04-11T13:15:32.001Z</time></trkpt><trkpt lat="45.20602593581447" lon="9.306889842812232"><ele>66.0</ele><time>2026-04-11T13:15:33.001Z</time></trkpt><trkpt lat="45.2061086349617" lon="9.306875878993411"><ele>66.0</ele><time>2026-04-11T13:15:34.001Z</time></trkpt><trkpt lat="45.20620720896103" lon="9.306881765443942"><ele>66.0</ele><time>2026-04-11T13:15:35.001Z</time></trkpt><trkpt lat="45.206286993287755" lon="9.306864257456363"><ele>66.0</ele><time>2026-04-11T13:15:36.001Z</time></trkpt><trkpt lat="45.20635591592499" lon="9.306859518342192"><ele>66.0</ele><time>2026-04-11T13:15:37.001Z</time></trkpt><trkpt lat="45.20648530481964" lon="9.306901302473591"><ele>66.0</ele><time>2026-04-11T13:15:39.001Z</time></trkpt><trkpt lat="45.206528939137534" lon="9.307005262159187"><ele>66.0</ele><time>2026-04-11T13:15:40.001Z</time></trkpt><trkpt lat="45.20658229408327" lon="9.307085399427677"><ele>66.0</ele><time>2026-04-11T13:15:41.001Z</time></trkpt><trkpt lat="45.20662671146447" lon="9.307184789543106"><ele>66.0</ele><time>2026-04-11T13:15:42.001Z</time></trkpt><trkpt lat="45.206673370469325" lon="9.307274663210181"><ele>66.39999999999999</ele><time>2026-04-11T13:15:43.001Z</time></trkpt><trkpt lat="45.206726501389035" lon="9.307366507359708"><ele>66.8</ele><time>2026-04-11T13:15:44.001Z</time></trkpt><trkpt lat="45.20678320072321" lon="9.30745436333676"><ele>67.19999999999999</ele><time>2026-04-11T13:15:45.001Z</time></trkpt><trkpt lat="45.206829432365424" lon="9.307530437294172"><ele>67.6</ele><time>2026-04-11T13:15:46.001Z</time></trkpt><trkpt lat="45.20691387505794" lon="9.307671601175057"><ele>68.0</ele><time>2026-04-11T13:15:48.002Z</time></trkpt><trkpt lat="45.20698303498226" lon="9.307736655030583"><ele>68.0</ele><time>2026-04-11T13:15:49.002Z</time></trkpt><trkpt lat="45.20704038129771" lon="9.307830237239394"><ele>68.0</ele><time>2026-04-11T13:15:50.002Z</time></trkpt><trkpt lat="45.20711751313512" lon="9.307903627547855"><ele>68.0</ele><time>2026-04-11T13:15:51.002Z</time></trkpt><trkpt lat="45.207199068868675" lon="9.307969632480859"><ele>68.0</ele><time>2026-04-11T13:15:52.002Z</time></trkpt><trkpt lat="45.207275438728544" lon="9.308023209535664"><ele>68.0</ele><time>2026-04-11T13:15:53.002Z</time></trkpt><trkpt lat="45.20734150839373" lon="9.30806840895645"><ele>68.0</ele><time>2026-04-11T13:15:54.002Z</time></trkpt><trkpt lat="45.20740907314338" lon="9.30811650548798"><ele>68.71428571428571</ele><time>2026-04-11T13:15:55.002Z</time></trkpt><trkpt lat="45.20747830544627" lon="9.308169296769803"><ele>69.42857142857143</ele><time>2026-04-11T13:15:56.002Z</time></trkpt><trkpt lat="45.207540341568965" lon="9.308215609590917"><ele>70.14285714285714</ele><time>2026-04-11T13:15:57.002Z</time></trkpt><trkpt lat="45.20760102633687" lon="9.308260231209628"><ele>70.85714285714286</ele><time>2026-04-11T13:15:58.002Z</time></trkpt><trkpt lat="45.20765918175638" lon="9.308297462666202"><ele>71.57142857142857</ele><time>2026-04-11T13:15:59.002Z</time></trkpt><trkpt lat="45.207726087303634" lon="9.308329115609666"><ele>72.28571428571428</ele><time>2026-04-11T13:16:00.002Z</time></trkpt><trkpt lat="45.207797636834144" lon="9.308348939997671"><ele>73.0</ele><time>2026-04-11T13:16:01.002Z</time></trkpt><trkpt lat="45.207867976488494" lon="9.308339695228346"><ele>73.0</ele><time>2026-04-11T13:16:02.002Z</time></trkpt><trkpt lat="45.20794044665871" lon="9.308365342425986"><ele>73.0</ele><time>2026-04-11T13:16:03.002Z</time></trkpt><trkpt lat="45.20800800563503" lon="9.308370748929763"><ele>73.0</ele><time>2026-04-11T13:16:04.002Z</time></trkpt><trkpt lat="45.2080836133994" lon="9.30837392170541"><ele>73.0</ele><time>2026-04-11T13:16:05.002Z</time></trkpt><trkpt lat="45.20815078218216" lon="9.308368598432098"><ele>73.0</ele><time>2026-04-11T13:16:06.002Z</time></trkpt><trkpt lat="45.20824714758492" lon="9.308376013726766"><ele>73.0</ele><time>2026-04-11T13:16:08.002Z</time></trkpt><trkpt lat="45.20834970403194" lon="9.308465073392423"><ele>73.0</ele><time>2026-04-11T13:16:11.002Z</time></trkpt><trkpt lat="45.20847831774159" lon="9.308432285424892"><ele>73.0</ele><time>2026-04-11T13:16:29Z</time></trkpt><trkpt lat="45.208540234038544" lon="9.308357920906255"><ele>73.0</ele><time>2026-04-11T13:16:30Z</time></trkpt><trkpt lat="45.20860433376594" lon="9.308289639363815"><ele>73.0</ele><time>2026-04-11T13:16:31Z</time></trkpt><trkpt lat="45.208660499457025" lon="9.308225514154545"><ele>73.0</ele><time>2026-04-11T13:16:32Z</time></trkpt><trkpt lat="45.20872285126423" lon="9.308188699391051"><ele>73.0</ele><time>2026-04-11T13:16:33Z</time></trkpt><trkpt lat="45.208791375649255" lon="9.30817576137541"><ele>73.0</ele><time>2026-04-11T13:16:34Z</time></trkpt><trkpt lat="45.20887399142796" lon="9.308189294956637"><ele>73.0</ele><time>2026-04-11T13:16:35Z</time></trkpt><trkpt lat="45.2089649857409" lon="9.308177197176963"><ele>73.0</ele><time>2026-04-11T13:16:36Z</time></trkpt><trkpt lat="45.209055907084036" lon="9.308139703639132"><ele>73.0</ele><time>2026-04-11T13:16:37Z</time></trkpt><trkpt lat="45.20913678285239" lon="9.3080918765407"><ele>73.0</ele><time>2026-04-11T13:16:38Z</time></trkpt><trkpt lat="45.20921033783348" lon="9.308028577613365"><ele>73.0</ele><time>2026-04-11T13:16:39Z</time></trkpt><trkpt lat="45.20929143254272" lon="9.307974429097948"><ele>72.8</ele><time>2026-04-11T13:16:40Z</time></trkpt><trkpt lat="45.209356980587295" lon="9.307899889503787"><ele>72.6</ele><time>2026-04-11T13:16:41Z</time></trkpt><trkpt lat="45.20941160681545" lon="9.307826518636823"><ele>72.4</ele><time>2026-04-11T13:16:42Z</time></trkpt><trkpt lat="45.209453995798064" lon="9.307719132532155"><ele>72.2</ele><time>2026-04-11T13:16:44Z</time></trkpt><trkpt lat="45.209517424858134" lon="9.307614267217067"><ele>72.0</ele><time>2026-04-11T13:16:46Z</time></trkpt><trkpt lat="45.20957321936113" lon="9.307459484483058"><ele>72.0</ele><time>2026-04-11T13:16:48Z</time></trkpt><trkpt lat="45.20962355648324" lon="9.307401289206826"><ele>72.0</ele><time>2026-04-11T13:16:49Z</time></trkpt><trkpt lat="45.209684491545445" lon="9.307366252698788"><ele>72.0</ele><time>2026-04-11T13:16:50Z</time></trkpt><trkpt lat="45.20981273496102" lon="9.307405769873416"><ele>72.0</ele><time>2026-04-11T13:16:52Z</time></trkpt><trkpt lat="45.209897538094545" lon="9.307420772532847"><ele>72.0</ele><time>2026-04-11T13:16:53Z</time></trkpt><trkpt lat="45.20998386242454" lon="9.307436044319255"><ele>72.0</ele><time>2026-04-11T13:16:54Z</time></trkpt><trkpt lat="45.210074704988486" lon="9.30745112093444"><ele>72.2</ele><time>2026-04-11T13:16:55Z</time></trkpt><trkpt lat="45.210170909922155" lon="9.307461690471094"><ele>72.4</ele><time>2026-04-11T13:16:56Z</time></trkpt><trkpt lat="45.21027410632826" lon="9.307471609536597"><ele>72.6</ele><time>2026-04-11T13:16:57Z</time></trkpt><trkpt lat="45.210376577356016" lon="9.307481458877268"><ele>72.8</ele><time>2026-04-11T13:16:58Z</time></trkpt><trkpt lat="45.21046886478083" lon="9.307490329392516"><ele>73.0</ele><time>2026-04-11T13:16:59.001Z</time></trkpt><trkpt lat="45.210561583780915" lon="9.307478755898877"><ele>73.0</ele><time>2026-04-11T13:17:00.001Z</time></trkpt><trkpt lat="45.21065023097435" lon="9.307488584149214"><ele>73.0</ele><time>2026-04-11T13:17:01.001Z</time></trkpt><trkpt lat="45.21074067295076" lon="9.307494419054986"><ele>73.0</ele><time>2026-04-11T13:17:02.001Z</time></trkpt><trkpt lat="45.210834181259884" lon="9.307484808981034"><ele>73.0</ele><time>2026-04-11T13:17:03.001Z</time></trkpt><trkpt lat="45.210926333296136" lon="9.307452429534992"><ele>73.0</ele><time>2026-04-11T13:17:04.001Z</time></trkpt><trkpt lat="45.21102031444281" lon="9.307435793672097"><ele>73.0</ele><time>2026-04-11T13:17:05.001Z</time></trkpt><trkpt lat="45.21111382294025" lon="9.30737002999433"><ele>73.0</ele><time>2026-04-11T13:17:06.001Z</time></trkpt><trkpt lat="45.21121657095735" lon="9.30731546894762"><ele>73.0</ele><time>2026-04-11T13:17:07.001Z</time></trkpt><trkpt lat="45.21132050566073" lon="9.307273399954704"><ele>73.0</ele><time>2026-04-11T13:17:08.001Z</time></trkpt><trkpt lat="45.21141598714931" lon="9.307201984093457"><ele>73.0</ele><time>2026-04-11T13:17:09.001Z</time></trkpt><trkpt lat="45.211507064303596" lon="9.307120159272381"><ele>73.5</ele><time>2026-04-11T13:17:10.001Z</time></trkpt><trkpt lat="45.21159690350442" lon="9.307029290168252"><ele>74.0</ele><time>2026-04-11T13:17:11.001Z</time></trkpt><trkpt lat="45.21168393602294" lon="9.30692471940778"><ele>74.5</ele><time>2026-04-11T13:17:12.001Z</time></trkpt><trkpt lat="45.21176577827439" lon="9.30680639127047"><ele>75.0</ele><time>2026-04-11T13:17:13.001Z</time></trkpt><trkpt lat="45.21184114627465" lon="9.306681088511784"><ele>75.0</ele><time>2026-04-11T13:17:14.001Z</time></trkpt><trkpt lat="45.21191402224296" lon="9.306546996573653"><ele>75.0</ele><time>2026-04-11T13:17:15.001Z</time></trkpt><trkpt lat="45.21199542900081" lon="9.306394375365805"><ele>75.0</ele><time>2026-04-11T13:17:16.001Z</time></trkpt><trkpt lat="45.21209243447442" lon="9.306220204637183"><ele>75.0</ele><time>2026-04-11T13:17:17.001Z</time></trkpt><trkpt lat="45.212192012921165" lon="9.306045302500328"><ele>75.0</ele><time>2026-04-11T13:17:18.001Z</time></trkpt><trkpt lat="45.21228740569279" lon="9.305876996658442"><ele>75.0</ele><time>2026-04-11T13:17:19.001Z</time></trkpt><trkpt lat="45.21236772268311" lon="9.305698260891837"><ele>75.0</ele><time>2026-04-11T13:17:20.001Z</time></trkpt><trkpt lat="45.21245755427836" lon="9.305531482966574"><ele>75.0</ele><time>2026-04-11T13:17:21.001Z</time></trkpt><trkpt lat="45.21256013104449" lon="9.30538243862528"><ele>75.0</ele><time>2026-04-11T13:17:22.001Z</time></trkpt><trkpt lat="45.21265168404711" lon="9.305219040078837"><ele>75.0</ele><time>2026-04-11T13:17:23.001Z</time></trkpt><trkpt lat="45.21274504392972" lon="9.305055222795902"><ele>75.0</ele><time>2026-04-11T13:17:24.001Z</time></trkpt><trkpt lat="45.21283985905932" lon="9.30489681283214"><ele>75.0</ele><time>2026-04-11T13:17:25.001Z</time></trkpt><trkpt lat="45.21293851433996" lon="9.304742253296284"><ele>75.0</ele><time>2026-04-11T13:17:26.001Z</time></trkpt><trkpt lat="45.213029733858995" lon="9.304575132858853"><ele>75.0</ele><time>2026-04-11T13:17:27.001Z</time></trkpt><trkpt lat="45.21313644513359" lon="9.304425859037876"><ele>75.0</ele><time>2026-04-11T13:17:28.001Z</time></trkpt><trkpt lat="45.213242667335194" lon="9.304278215490983"><ele>75.0</ele><time>2026-04-11T13:17:29.001Z</time></trkpt><trkpt lat="45.21336159346255" lon="9.304148931629882"><ele>75.0</ele><time>2026-04-11T13:17:30.001Z</time></trkpt><trkpt lat="45.213474752935475" lon="9.304000100259234"><ele>75.0</ele><time>2026-04-11T13:17:31.001Z</time></trkpt><trkpt lat="45.213585384386" lon="9.30385201170318"><ele>75.0</ele><time>2026-04-11T13:17:32.001Z</time></trkpt><trkpt lat="45.21368591223235" lon="9.303684583740495"><ele>74.33333333333333</ele><time>2026-04-11T13:17:33.001Z</time></trkpt><trkpt lat="45.213794087105306" lon="9.303530660821314"><ele>73.66666666666666</ele><time>2026-04-11T13:17:34.001Z</time></trkpt><trkpt lat="45.21389967172837" lon="9.303372395403947"><ele>73.0</ele><time>2026-04-11T13:17:35.001Z</time></trkpt><trkpt lat="45.2139999540071" lon="9.303220876561923"><ele>73.0</ele><time>2026-04-11T13:17:36.001Z</time></trkpt><trkpt lat="45.21409588055691" lon="9.303067836933636"><ele>73.0</ele><time>2026-04-11T13:17:37.001Z</time></trkpt><trkpt lat="45.21419827066706" lon="9.302934777798546"><ele>73.0</ele><time>2026-04-11T13:17:38.001Z</time></trkpt><trkpt lat="45.214288343074486" lon="9.302787103448853"><ele>73.0</ele><time>2026-04-11T13:17:39.001Z</time></trkpt><trkpt lat="45.214384576104806" lon="9.302645977243273"><ele>73.0</ele><time>2026-04-11T13:17:40.001Z</time></trkpt><trkpt lat="45.21448348405176" lon="9.302512582016902"><ele>73.0</ele><time>2026-04-11T13:17:41.001Z</time></trkpt><trkpt lat="45.21458681332681" lon="9.302378376719643"><ele>73.0</ele><time>2026-04-11T13:17:42.001Z</time></trkpt><trkpt lat="45.2146932600976" lon="9.302243340225584"><ele>73.0</ele><time>2026-04-11T13:17:43.001Z</time></trkpt><trkpt lat="45.21480297615315" lon="9.30210415667216"><ele>73.0</ele><time>2026-04-11T13:17:44.001Z</time></trkpt><trkpt lat="45.214909717024305" lon="9.301968746522377"><ele>73.0</ele><time>2026-04-11T13:17:45.001Z</time></trkpt><trkpt lat="45.2150137268257" lon="9.301836874332304"><ele>73.0</ele><time>2026-04-11T13:17:46.001Z</time></trkpt><trkpt lat="45.215118007321166" lon="9.30170465545797"><ele>73.0</ele><time>2026-04-11T13:17:47.001Z</time></trkpt><trkpt lat="45.215225004742855" lon="9.301568991586016"><ele>73.0</ele><time>2026-04-11T13:17:48.001Z</time></trkpt><trkpt lat="45.21532267336486" lon="9.301445153464522"><ele>73.0</ele><time>2026-04-11T13:17:49.001Z</time></trkpt><trkpt lat="45.2154185658253" lon="9.301314649468097"><ele>73.0</ele><time>2026-04-11T13:17:50.001Z</time></trkpt><trkpt lat="45.21550132691307" lon="9.301198944456909"><ele>73.0</ele><time>2026-04-11T13:17:51.001Z</time></trkpt><trkpt lat="45.21557951550657" lon="9.301067594480887"><ele>73.2</ele><time>2026-04-11T13:17:52.001Z</time></trkpt><trkpt lat="45.21567318023341" lon="9.300969565778066"><ele>73.4</ele><time>2026-04-11T13:17:53.001Z</time></trkpt><trkpt lat="45.21574301835915" lon="9.300851048629248"><ele>73.60000000000001</ele><time>2026-04-11T13:17:54.001Z</time></trkpt><trkpt lat="45.21582759634134" lon="9.300766333409626"><ele>73.8</ele><time>2026-04-11T13:17:55.001Z</time></trkpt><trkpt lat="45.21592313752681" lon="9.300728141738542"><ele>74.0</ele><time>2026-04-11T13:17:56.001Z</time></trkpt><trkpt lat="45.21601434620404" lon="9.30069040858402"><ele>74.0</ele><time>2026-04-11T13:17:57.001Z</time></trkpt><trkpt lat="45.21610753551554" lon="9.300672789140203"><ele>74.0</ele><time>2026-04-11T13:17:58.002Z</time></trkpt><trkpt lat="45.21620764804951" lon="9.300643561072432"><ele>74.0</ele><time>2026-04-11T13:17:59.002Z</time></trkpt><trkpt lat="45.21631269939306" lon="9.300593123128852"><ele>74.0</ele><time>2026-04-11T13:18:00.002Z</time></trkpt><trkpt lat="45.21640859769435" lon="9.300499418869963"><ele>74.0</ele><time>2026-04-11T13:18:01.002Z</time></trkpt><trkpt lat="45.21650899762723" lon="9.300431274379244"><ele>74.4</ele><time>2026-04-11T13:18:02.002Z</time></trkpt><trkpt lat="45.216601543861124" lon="9.300359917859895"><ele>74.80000000000001</ele><time>2026-04-11T13:18:03.002Z</time></trkpt><trkpt lat="45.21669356335036" lon="9.300296041158848"><ele>75.19999999999999</ele><time>2026-04-11T13:18:04.002Z</time></trkpt><trkpt lat="45.21677971621901" lon="9.30021599457587"><ele>75.6</ele><time>2026-04-11T13:18:05.002Z</time></trkpt><trkpt lat="45.21686762749262" lon="9.300153244712881"><ele>76.0</ele><time>2026-04-11T13:18:06.002Z</time></trkpt><trkpt lat="45.21696069476653" lon="9.300110620822291"><ele>76.0</ele><time>2026-04-11T13:18:07.002Z</time></trkpt><trkpt lat="45.217041278729205" lon="9.300064072388079"><ele>76.0</ele><time>2026-04-11T13:18:08.002Z</time></trkpt><trkpt lat="45.217125784741704" lon="9.300026626101205"><ele>76.0</ele><time>2026-04-11T13:18:09.002Z</time></trkpt><trkpt lat="45.217211466918535" lon="9.299993727717476"><ele>76.0</ele><time>2026-04-11T13:18:10.002Z</time></trkpt><trkpt lat="45.21729259343186" lon="9.299962749715624"><ele>76.0</ele><time>2026-04-11T13:18:11.002Z</time></trkpt><trkpt lat="45.21737104441087" lon="9.299926242639465"><ele>76.0</ele><time>2026-04-11T13:18:12.002Z</time></trkpt><trkpt lat="45.21744465395205" lon="9.299887669568486"><ele>76.0</ele><time>2026-04-11T13:18:13.002Z</time></trkpt><trkpt lat="45.21750871725391" lon="9.299854434562398"><ele>76.0</ele><time>2026-04-11T13:18:14.002Z</time></trkpt><trkpt lat="45.21757894887421" lon="9.299824699829847"><ele>76.0</ele><time>2026-04-11T13:18:15.002Z</time></trkpt><trkpt lat="45.217686510204025" lon="9.299754712506408"><ele>76.0</ele><time>2026-04-11T13:18:17.002Z</time></trkpt><trkpt lat="45.2177711491322" lon="9.299736979744372"><ele>76.0</ele><time>2026-04-11T13:18:19.002Z</time></trkpt><trkpt lat="45.2178613795439" lon="9.299875317369121"><ele>76.0</ele><time>2026-04-11T13:18:22.002Z</time></trkpt><trkpt lat="45.21789621763468" lon="9.300011415576975"><ele>76.0</ele><time>2026-04-11T13:18:24.002Z</time></trkpt><trkpt lat="45.21794317950972" lon="9.300136268758916"><ele>76.0</ele><time>2026-04-11T13:18:26.002Z</time></trkpt><trkpt lat="45.217986395383804" lon="9.300265850219434"><ele>76.0</ele><time>2026-04-11T13:18:28.002Z</time></trkpt><trkpt lat="45.21803014338191" lon="9.300390227089512"><ele>76.0</ele><time>2026-04-11T13:18:30.002Z</time></trkpt><trkpt lat="45.218065429795615" lon="9.300522999408285"><ele>76.0</ele><time>2026-04-11T13:18:32Z</time></trkpt><trkpt lat="45.218098708057965" lon="9.300638449649975"><ele>76.0</ele><time>2026-04-11T13:18:34Z</time></trkpt><trkpt lat="45.21815144503561" lon="9.300735236826828"><ele>76.0</ele><time>2026-04-11T13:18:36Z</time></trkpt><trkpt lat="45.21819885483488" lon="9.30081647550056"><ele>76.0</ele><time>2026-04-11T13:18:38Z</time></trkpt><trkpt lat="45.2182694383227" lon="9.300859008041643"><ele>76.0</ele><time>2026-04-11T13:18:40Z</time></trkpt><trkpt lat="45.218351083479206" lon="9.300898566531153"><ele>76.0</ele><time>2026-04-11T13:18:42Z</time></trkpt><trkpt lat="45.218435238651686" lon="9.300934930062956"><ele>75.8</ele><time>2026-04-11T13:18:44Z</time></trkpt><trkpt lat="45.21852378053189" lon="9.300987484127681"><ele>75.6</ele><time>2026-04-11T13:18:46Z</time></trkpt><trkpt lat="45.21862743913019" lon="9.301078327937198"><ele>75.4</ele><time>2026-04-11T13:18:48Z</time></trkpt><trkpt lat="45.21869950963397" lon="9.301152910375908"><ele>75.2</ele><time>2026-04-11T13:18:49Z</time></trkpt><trkpt lat="45.218784657890616" lon="9.30125966533096"><ele>75.0</ele><time>2026-04-11T13:18:50Z</time></trkpt><trkpt lat="45.2188785015341" lon="9.301373775408418"><ele>75.0</ele><time>2026-04-11T13:18:51Z</time></trkpt><trkpt lat="45.21897287659372" lon="9.301486490209266"><ele>75.0</ele><time>2026-04-11T13:18:52Z</time></trkpt><trkpt lat="45.21905883542709" lon="9.301586006704072"><ele>75.0</ele><time>2026-04-11T13:18:53Z</time></trkpt><trkpt lat="45.219139214833724" lon="9.301689387678048"><ele>75.0</ele><time>2026-04-11T13:18:54Z</time></trkpt><trkpt lat="45.21921412514239" lon="9.301810778956378"><ele>75.0</ele><time>2026-04-11T13:18:55Z</time></trkpt><trkpt lat="45.21929621757575" lon="9.301966813059057"><ele>75.0</ele><time>2026-04-11T13:18:56Z</time></trkpt><trkpt lat="45.21939075080559" lon="9.30214834368733"><ele>75.0</ele><time>2026-04-11T13:18:57Z</time></trkpt><trkpt lat="45.21947263621652" lon="9.302305139680248"><ele>75.0</ele><time>2026-04-11T13:18:58Z</time></trkpt><trkpt lat="45.21954086130317" lon="9.302431647274153"><ele>75.0</ele><time>2026-04-11T13:18:59Z</time></trkpt><trkpt lat="45.21959959704057" lon="9.302580313903924"><ele>75.0</ele><time>2026-04-11T13:19:00Z</time></trkpt><trkpt lat="45.21971164541737" lon="9.302695445577696"><ele>75.0</ele><time>2026-04-11T13:19:01Z</time></trkpt><trkpt lat="45.2198336610751" lon="9.302834349287222"><ele>75.0</ele><time>2026-04-11T13:19:02Z</time></trkpt><trkpt lat="45.219957707424065" lon="9.302999774081641"><ele>75.0</ele><time>2026-04-11T13:19:03Z</time></trkpt><trkpt lat="45.22008946739656" lon="9.303147973404462"><ele>75.0</ele><time>2026-04-11T13:19:04Z</time></trkpt><trkpt lat="45.22021580777936" lon="9.303289069853523"><ele>75.0</ele><time>2026-04-11T13:19:05Z</time></trkpt><trkpt lat="45.22033843742584" lon="9.303426022325379"><ele>75.0</ele><time>2026-04-11T13:19:06Z</time></trkpt><trkpt lat="45.22046258352148" lon="9.303564668156367"><ele>75.0</ele><time>2026-04-11T13:19:07.001Z</time></trkpt><trkpt lat="45.22057996255682" lon="9.303695756650637"><ele>75.0</ele><time>2026-04-11T13:19:08.001Z</time></trkpt><trkpt lat="45.220680252173715" lon="9.303808919276804"><ele>75.0</ele><time>2026-04-11T13:19:09.001Z</time></trkpt><trkpt lat="45.22076827572982" lon="9.303915381594381"><ele>74.5</ele><time>2026-04-11T13:19:10.001Z</time></trkpt><trkpt lat="45.220850551603945" lon="9.304027862600583"><ele>74.0</ele><time>2026-04-11T13:19:11.001Z</time></trkpt><trkpt lat="45.220947785119236" lon="9.304133530607038"><ele>73.5</ele><time>2026-04-11T13:19:12.001Z</time></trkpt><trkpt lat="45.221034839518296" lon="9.304269588282539"><ele>73.0</ele><time>2026-04-11T13:19:13.001Z</time></trkpt><trkpt lat="45.22111104979689" lon="9.304419081783522"><ele>73.0</ele><time>2026-04-11T13:19:14.001Z</time></trkpt><trkpt lat="45.221189450717915" lon="9.304561062142444"><ele>73.0</ele><time>2026-04-11T13:19:15.001Z</time></trkpt><trkpt lat="45.221273291934615" lon="9.304679619099574"><ele>73.0</ele><time>2026-04-11T13:19:16.001Z</time></trkpt><trkpt lat="45.22131986365813" lon="9.304811301345536"><ele>73.0</ele><time>2026-04-11T13:19:17.001Z</time></trkpt><trkpt lat="45.22137548673585" lon="9.304920767505967"><ele>73.0</ele><time>2026-04-11T13:19:18.001Z</time></trkpt><trkpt lat="45.221426644656404" lon="9.305021445962907"><ele>73.33333333333333</ele><time>2026-04-11T13:19:19.001Z</time></trkpt><trkpt lat="45.221491860646466" lon="9.305119494821499"><ele>73.66666666666666</ele><time>2026-04-11T13:19:20.001Z</time></trkpt><trkpt lat="45.22155544084102" lon="9.305221494302975"><ele>74.0</ele><time>2026-04-11T13:19:21.001Z</time></trkpt><trkpt lat="45.22160000132199" lon="9.305331817270659"><ele>74.33333333333333</ele><time>2026-04-11T13:19:22.001Z</time></trkpt><trkpt lat="45.22166030686711" lon="9.305399126191517"><ele>74.66666666666667</ele><time>2026-04-11T13:19:23.001Z</time></trkpt><trkpt lat="45.22170365864233" lon="9.305475693738414"><ele>75.0</ele><time>2026-04-11T13:19:24.001Z</time></trkpt><trkpt lat="45.22176056049865" lon="9.305589300084044"><ele>75.0</ele><time>2026-04-11T13:19:26.001Z</time></trkpt><trkpt lat="45.221812120626204" lon="9.305680203841227"><ele>75.0</ele><time>2026-04-11T13:19:29.001Z</time></trkpt><trkpt lat="45.221863541477376" lon="9.305764959201909"><ele>75.0</ele><time>2026-04-11T13:19:31.001Z</time></trkpt><trkpt lat="45.22192544092724" lon="9.305884033089738"><ele>75.0</ele><time>2026-04-11T13:19:33.001Z</time></trkpt><trkpt lat="45.22198002631972" lon="9.306012823399312"><ele>75.0</ele><time>2026-04-11T13:19:35.001Z</time></trkpt><trkpt lat="45.222034042348064" lon="9.306087959989192"><ele>75.0</ele><time>2026-04-11T13:19:37.001Z</time></trkpt><trkpt lat="45.22208468149517" lon="9.30615233807737"><ele>75.0</ele><time>2026-04-11T13:19:39.001Z</time></trkpt><trkpt lat="45.22212161444641" lon="9.30623159970777"><ele>75.0</ele><time>2026-04-11T13:19:41.001Z</time></trkpt><trkpt lat="45.22223439613474" lon="9.306081449659702"><ele>75.0</ele><time>2026-04-11T13:19:45.001Z</time></trkpt><trkpt lat="45.22233979860409" lon="9.305966825577102"><ele>75.0</ele><time>2026-04-11T13:19:47.001Z</time></trkpt><trkpt lat="45.22241815873268" lon="9.305893090672008"><ele>75.0</ele><time>2026-04-11T13:19:48.001Z</time></trkpt><trkpt lat="45.22250076162329" lon="9.30581848561628"><ele>74.8</ele><time>2026-04-11T13:19:49.001Z</time></trkpt><trkpt lat="45.22259665994703" lon="9.305727386801005"><ele>74.6</ele><time>2026-04-11T13:19:50.001Z</time></trkpt><trkpt lat="45.22268530253432" lon="9.305644823135582"><ele>74.4</ele><time>2026-04-11T13:19:51.001Z</time></trkpt><trkpt lat="45.222770847662666" lon="9.305564170525573"><ele>74.2</ele><time>2026-04-11T13:19:52.001Z</time></trkpt><trkpt lat="45.22284510681847" lon="9.305493280476744"><ele>74.0</ele><time>2026-04-11T13:19:53.001Z</time></trkpt><trkpt lat="45.222910473938285" lon="9.305429609029051"><ele>74.0</ele><time>2026-04-11T13:19:54.001Z</time></trkpt><trkpt lat="45.22296725900113" lon="9.305372209771217"><ele>74.0</ele><time>2026-04-11T13:19:55.001Z</time></trkpt><trkpt lat="45.223051370703004" lon="9.305310452016176"><ele>74.0</ele><time>2026-04-11T13:19:57.001Z</time></trkpt><trkpt lat="45.22293518550827" lon="9.305393904194998"><ele>74.0</ele><time>2026-04-11T13:20:07.002Z</time></trkpt><trkpt lat="45.22285655738722" lon="9.30549252826507"><ele>74.0</ele><time>2026-04-11T13:20:08.002Z</time></trkpt><trkpt lat="45.22275946478139" lon="9.305585544534758"><ele>74.0</ele><time>2026-04-11T13:20:09.002Z</time></trkpt><trkpt lat="45.222665885892106" lon="9.305677459041284"><ele>74.0</ele><time>2026-04-11T13:20:10.002Z</time></trkpt><trkpt lat="45.22257517793377" lon="9.305756502504117"><ele>74.0</ele><time>2026-04-11T13:20:11.002Z</time></trkpt><trkpt lat="45.22250106690917" lon="9.30582297320023"><ele>74.0</ele><time>2026-04-11T13:20:12.002Z</time></trkpt><trkpt lat="45.22242865874123" lon="9.305891898749277"><ele>74.0</ele><time>2026-04-11T13:20:13.002Z</time></trkpt><trkpt lat="45.22235519716001" lon="9.305961865399755"><ele>74.2</ele><time>2026-04-11T13:20:14.002Z</time></trkpt><trkpt lat="45.22229028327819" lon="9.306027216745466"><ele>74.4</ele><time>2026-04-11T13:20:15.002Z</time></trkpt><trkpt lat="45.22223504695975" lon="9.306092237633422"><ele>74.6</ele><time>2026-04-11T13:20:16.002Z</time></trkpt><trkpt lat="45.22216595248966" lon="9.306174124078472"><ele>74.8</ele><time>2026-04-11T13:20:18.002Z</time></trkpt><trkpt lat="45.22207243629427" lon="9.306152614866287"><ele>75.0</ele><time>2026-04-11T13:20:21.002Z</time></trkpt><trkpt lat="45.222012320931654" lon="9.30599460869309"><ele>75.0</ele><time>2026-04-11T13:20:23.002Z</time></trkpt><trkpt lat="45.22196587528122" lon="9.305911318072022"><ele>75.0</ele><time>2026-04-11T13:20:24.002Z</time></trkpt><trkpt lat="45.22191140980402" lon="9.305847512334223"><ele>75.0</ele><time>2026-04-11T13:20:25.002Z</time></trkpt><trkpt lat="45.22188182267505" lon="9.305759726811374"><ele>75.0</ele><time>2026-04-11T13:20:26.002Z</time></trkpt><trkpt lat="45.22182551169654" lon="9.305687451350641"><ele>75.0</ele><time>2026-04-11T13:20:27.002Z</time></trkpt><trkpt lat="45.2217726955681" lon="9.305590973799754"><ele>75.0</ele><time>2026-04-11T13:20:28.002Z</time></trkpt><trkpt lat="45.221718069087565" lon="9.305491179640757"><ele>75.0</ele><time>2026-04-11T13:20:29.002Z</time></trkpt><trkpt lat="45.22166628289935" lon="9.30540087539425"><ele>75.0</ele><time>2026-04-11T13:20:30.002Z</time></trkpt><trkpt lat="45.22160673051193" lon="9.305295416770864"><ele>75.0</ele><time>2026-04-11T13:20:31.002Z</time></trkpt><trkpt lat="45.22153032065856" lon="9.305165442005329"><ele>75.0</ele><time>2026-04-11T13:20:32.002Z</time></trkpt><trkpt lat="45.22145189758132" lon="9.304990448695388"><ele>75.0</ele><time>2026-04-11T13:20:33.002Z</time></trkpt><trkpt lat="45.22135129359997" lon="9.304792460437394"><ele>74.5</ele><time>2026-04-11T13:20:34.002Z</time></trkpt><trkpt lat="45.22124991606791" lon="9.30463469627018"><ele>74.0</ele><time>2026-04-11T13:20:35.002Z</time></trkpt><trkpt lat="45.22117084994824" lon="9.304478580391976"><ele>73.5</ele><time>2026-04-11T13:20:36.002Z</time></trkpt><trkpt lat="45.2211035170706" lon="9.304345385438099"><ele>73.0</ele><time>2026-04-11T13:20:37Z</time></trkpt><trkpt lat="45.221038636287204" lon="9.30423186045143"><ele>73.0</ele><time>2026-04-11T13:20:38Z</time></trkpt><trkpt lat="45.22095952802139" lon="9.304149518681793"><ele>73.0</ele><time>2026-04-11T13:20:39Z</time></trkpt><trkpt lat="45.22090378648519" lon="9.304065614474217"><ele>73.0</ele><time>2026-04-11T13:20:40Z</time></trkpt><trkpt lat="45.220856845194554" lon="9.303997815753862"><ele>73.0</ele><time>2026-04-11T13:20:41Z</time></trkpt><trkpt lat="45.22077180209655" lon="9.303884984708544"><ele>73.0</ele><time>2026-04-11T13:20:43Z</time></trkpt><trkpt lat="45.2207080372085" lon="9.303802309314934"><ele>73.0</ele><time>2026-04-11T13:20:44Z</time></trkpt><trkpt lat="45.220615839250335" lon="9.303703791376961"><ele>73.5</ele><time>2026-04-11T13:20:45Z</time></trkpt><trkpt lat="45.220505955163816" lon="9.303581690090468"><ele>74.0</ele><time>2026-04-11T13:20:46Z</time></trkpt><trkpt lat="45.220397316662" lon="9.303453389163108"><ele>74.5</ele><time>2026-04-11T13:20:47Z</time></trkpt><trkpt lat="45.22029447147792" lon="9.30333246725236"><ele>75.0</ele><time>2026-04-11T13:20:48Z</time></trkpt><trkpt lat="45.220182128915695" lon="9.30321140221264"><ele>75.0</ele><time>2026-04-11T13:20:49Z</time></trkpt><trkpt lat="45.22009027921952" lon="9.303110438388892"><ele>75.0</ele><time>2026-04-11T13:20:50Z</time></trkpt><trkpt lat="45.22000613180434" lon="9.303017186024004"><ele>75.0</ele><time>2026-04-11T13:20:51Z</time></trkpt><trkpt lat="45.219919512892645" lon="9.302917536620845"><ele>75.0</ele><time>2026-04-11T13:20:52Z</time></trkpt><trkpt lat="45.219836186488976" lon="9.302828481655233"><ele>75.0</ele><time>2026-04-11T13:20:53Z</time></trkpt><trkpt lat="45.21977476682164" lon="9.302728886770797"><ele>75.0</ele><time>2026-04-11T13:20:54Z</time></trkpt><trkpt lat="45.21966989985769" lon="9.302631312531789"><ele>75.0</ele><time>2026-04-11T13:20:56Z</time></trkpt><trkpt lat="45.21976647118717" lon="9.302520301480625"><ele>75.0</ele><time>2026-04-11T13:21:01Z</time></trkpt><trkpt lat="45.21986407609355" lon="9.302452058205894"><ele>75.0</ele><time>2026-04-11T13:21:02Z</time></trkpt><trkpt lat="45.21997298631244" lon="9.302386182589817"><ele>74.66666666666667</ele><time>2026-04-11T13:21:03Z</time></trkpt><trkpt lat="45.220103424225485" lon="9.302295110588599"><ele>74.33333333333334</ele><time>2026-04-11T13:21:04Z</time></trkpt><trkpt lat="45.220253556015216" lon="9.302183717948253"><ele>74.0</ele><time>2026-04-11T13:21:05Z</time></trkpt><trkpt lat="45.22040556660496" lon="9.302068882393158"><ele>74.0</ele><time>2026-04-11T13:21:06Z</time></trkpt><trkpt lat="45.22054725209403" lon="9.301933868554125"><ele>74.0</ele><time>2026-04-11T13:21:07Z</time></trkpt><trkpt lat="45.220681075912" lon="9.301827988161335"><ele>74.0</ele><time>2026-04-11T13:21:08Z</time></trkpt><trkpt lat="45.22082243220315" lon="9.301715460038734"><ele>74.0</ele><time>2026-04-11T13:21:09Z</time></trkpt><trkpt lat="45.220967034857274" lon="9.301587721581498"><ele>74.0</ele><time>2026-04-11T13:21:10Z</time></trkpt><trkpt lat="45.221117840764876" lon="9.301461674015858"><ele>74.0</ele><time>2026-04-11T13:21:11Z</time></trkpt><trkpt lat="45.221259711968614" lon="9.301345806350506"><ele>74.33333333333334</ele><time>2026-04-11T13:21:12Z</time></trkpt><trkpt lat="45.221400958150575" lon="9.301230363024464"><ele>74.66666666666667</ele><time>2026-04-11T13:21:13Z</time></trkpt><trkpt lat="45.221543613484975" lon="9.301115231549119"><ele>75.0</ele><time>2026-04-11T13:21:14Z</time></trkpt><trkpt lat="45.22167946107118" lon="9.30101725456799"><ele>75.0</ele><time>2026-04-11T13:21:15Z</time></trkpt><trkpt lat="45.22180746209302" lon="9.300933627046316"><ele>75.0</ele><time>2026-04-11T13:21:16Z</time></trkpt><trkpt lat="45.22192659577534" lon="9.30086834591782"><ele>75.0</ele><time>2026-04-11T13:21:17Z</time></trkpt><trkpt lat="45.222058605372716" lon="9.300846692141329"><ele>75.0</ele><time>2026-04-11T13:21:18.001Z</time></trkpt><trkpt lat="45.222197468049465" lon="9.30081386373592"><ele>75.0</ele><time>2026-04-11T13:21:19.001Z</time></trkpt><trkpt lat="45.22233125937685" lon="9.300757046258592"><ele>75.0</ele><time>2026-04-11T13:21:20.001Z</time></trkpt><trkpt lat="45.22247081582121" lon="9.300721713381341"><ele>75.0</ele><time>2026-04-11T13:21:21.001Z</time></trkpt><trkpt lat="45.222614512605396" lon="9.300666052327845"><ele>75.0</ele><time>2026-04-11T13:21:22.001Z</time></trkpt><trkpt lat="45.22275768619853" lon="9.300585200003582"><ele>74.66666666666667</ele><time>2026-04-11T13:21:23.001Z</time></trkpt><trkpt lat="45.22289732011101" lon="9.300488633141525"><ele>74.33333333333334</ele><time>2026-04-11T13:21:24.001Z</time></trkpt><trkpt lat="45.22304565238155" lon="9.30037145792007"><ele>74.0</ele><time>2026-04-11T13:21:25.001Z</time></trkpt><trkpt lat="45.22319397995677" lon="9.300255701084543"><ele>73.66666666666667</ele><time>2026-04-11T13:21:26.001Z</time></trkpt><trkpt lat="45.22335146678659" lon="9.300135447168453"><ele>73.33333333333333</ele><time>2026-04-11T13:21:27.001Z</time></trkpt><trkpt lat="45.22352283537606" lon="9.300002244099298"><ele>73.0</ele><time>2026-04-11T13:21:28.001Z</time></trkpt><trkpt lat="45.2236951743032" lon="9.29986934973694"><ele>73.0</ele><time>2026-04-11T13:21:29.001Z</time></trkpt><trkpt lat="45.22385478433745" lon="9.299745767360134"><ele>73.0</ele><time>2026-04-11T13:21:30.001Z</time></trkpt><trkpt lat="45.22398673074249" lon="9.299643456104386"><ele>73.0</ele><time>2026-04-11T13:21:31.001Z</time></trkpt><trkpt lat="45.224103542083185" lon="9.29958943329634"><ele>73.33333333333333</ele><time>2026-04-11T13:21:32.001Z</time></trkpt><trkpt lat="45.22418300292656" lon="9.299546274551794"><ele>73.66666666666666</ele><time>2026-04-11T13:21:33.001Z</time></trkpt><trkpt lat="45.22426780084538" lon="9.299533454554647"><ele>74.0</ele><time>2026-04-11T13:21:35.001Z</time></trkpt><trkpt lat="45.22431092826108" lon="9.29960768668316"><ele>74.33333333333333</ele><time>2026-04-11T13:21:37.001Z</time></trkpt><trkpt lat="45.224379997048594" lon="9.299661625480443"><ele>74.66666666666667</ele><time>2026-04-11T13:21:38.001Z</time></trkpt><trkpt lat="45.22445128668516" lon="9.299713392107378"><ele>75.0</ele><time>2026-04-11T13:21:39.001Z</time></trkpt><trkpt lat="45.22452122223703" lon="9.299749415498454"><ele>75.0</ele><time>2026-04-11T13:21:40.001Z</time></trkpt><trkpt lat="45.22461263154498" lon="9.299703055510472"><ele>75.0</ele><time>2026-04-11T13:21:41.001Z</time></trkpt><trkpt lat="45.22468605290957" lon="9.2996012546878"><ele>75.0</ele><time>2026-04-11T13:21:42.001Z</time></trkpt><trkpt lat="45.224780495910686" lon="9.299508739305082"><ele>75.0</ele><time>2026-04-11T13:21:43.001Z</time></trkpt><trkpt lat="45.224908966446954" lon="9.29942001737244"><ele>75.33333333333333</ele><time>2026-04-11T13:21:44.001Z</time></trkpt><trkpt lat="45.22505011559047" lon="9.299300049574065"><ele>75.66666666666666</ele><time>2026-04-11T13:21:45.001Z</time></trkpt><trkpt lat="45.225213587599725" lon="9.299161677049568"><ele>76.0</ele><time>2026-04-11T13:21:46.001Z</time></trkpt><trkpt lat="45.22536756647308" lon="9.299031163702683"><ele>76.0</ele><time>2026-04-11T13:21:47.001Z</time></trkpt><trkpt lat="45.22549980981558" lon="9.298916322228752"><ele>76.0</ele><time>2026-04-11T13:21:48.001Z</time></trkpt><trkpt lat="45.22562820738039" lon="9.298805362191787"><ele>76.0</ele><time>2026-04-11T13:21:49.001Z</time></trkpt><trkpt lat="45.2257739157434" lon="9.298681668833767"><ele>76.0</ele><time>2026-04-11T13:21:50.001Z</time></trkpt><trkpt lat="45.225917979386516" lon="9.298559372031592"><ele>76.0</ele><time>2026-04-11T13:21:51.001Z</time></trkpt><trkpt lat="45.22605311792825" lon="9.298442763494965"><ele>76.0</ele><time>2026-04-11T13:21:52.001Z</time></trkpt><trkpt lat="45.22618483575409" lon="9.298326825496185"><ele>76.0</ele><time>2026-04-11T13:21:53.001Z</time></trkpt><trkpt lat="45.22629344264443" lon="9.29819739113245"><ele>76.0</ele><time>2026-04-11T13:21:54.001Z</time></trkpt><trkpt lat="45.22640696324075" lon="9.298089867083387"><ele>76.0</ele><time>2026-04-11T13:21:55.001Z</time></trkpt><trkpt lat="45.22653452923123" lon="9.298009855303885"><ele>76.0</ele><time>2026-04-11T13:21:56.001Z</time></trkpt><trkpt lat="45.22667673847594" lon="9.29792896532943"><ele>75.33333333333333</ele><time>2026-04-11T13:21:57.001Z</time></trkpt><trkpt lat="45.22683051149718" lon="9.29782383735361"><ele>74.66666666666667</ele><time>2026-04-11T13:21:58.001Z</time></trkpt><trkpt lat="45.22697996084632" lon="9.29768253782545"><ele>74.0</ele><time>2026-04-11T13:21:59.001Z</time></trkpt><trkpt lat="45.22714466733123" lon="9.297549536542101"><ele>74.0</ele><time>2026-04-11T13:22:00.001Z</time></trkpt><trkpt lat="45.22731723351901" lon="9.297436605783135"><ele>74.0</ele><time>2026-04-11T13:22:01.001Z</time></trkpt><trkpt lat="45.22746590299669" lon="9.297324470329151"><ele>74.0</ele><time>2026-04-11T13:22:02.001Z</time></trkpt><trkpt lat="45.22758925581679" lon="9.297232616114938"><ele>74.0</ele><time>2026-04-11T13:22:03.001Z</time></trkpt><trkpt lat="45.227694500248155" lon="9.29715461814366"><ele>74.0</ele><time>2026-04-11T13:22:04.001Z</time></trkpt><trkpt lat="45.22778296144675" lon="9.297088648780958"><ele>74.0</ele><time>2026-04-11T13:22:05.001Z</time></trkpt><trkpt lat="45.227842703166864" lon="9.29702097760521"><ele>74.0</ele><time>2026-04-11T13:22:06.001Z</time></trkpt><trkpt lat="45.22795099363964" lon="9.296997456795758"><ele>74.0</ele><time>2026-04-11T13:22:08.001Z</time></trkpt><trkpt lat="45.2280490948922" lon="9.297059841058104"><ele>74.0</ele><time>2026-04-11T13:22:10.001Z</time></trkpt><trkpt lat="45.228080746554056" lon="9.297183474526785"><ele>74.0</ele><time>2026-04-11T13:22:11.001Z</time></trkpt><trkpt lat="45.2281368045942" lon="9.297317032111064"><ele>74.0</ele><time>2026-04-11T13:22:12.001Z</time></trkpt><trkpt lat="45.22821248156106" lon="9.297470880766271"><ele>74.0</ele><time>2026-04-11T13:22:13.001Z</time></trkpt><trkpt lat="45.22830707900131" lon="9.29764585189119"><ele>74.33333333333334</ele><time>2026-04-11T13:22:14.001Z</time></trkpt><trkpt lat="45.22841478218734" lon="9.297842460225285"><ele>74.66666666666667</ele><time>2026-04-11T13:22:15.001Z</time></trkpt><trkpt lat="45.228520844523246" lon="9.298039672399387"><ele>75.0</ele><time>2026-04-11T13:22:16.001Z</time></trkpt><trkpt lat="45.22860404191893" lon="9.298192237028223"><ele>75.0</ele><time>2026-04-11T13:22:17.002Z</time></trkpt><trkpt lat="45.22867743946983" lon="9.298304628567884"><ele>75.0</ele><time>2026-04-11T13:22:18.002Z</time></trkpt><trkpt lat="45.22873723797782" lon="9.298412596689609"><ele>75.0</ele><time>2026-04-11T13:22:19.002Z</time></trkpt><trkpt lat="45.22878542671235" lon="9.29850304711816"><ele>75.0</ele><time>2026-04-11T13:22:20.002Z</time></trkpt><trkpt lat="45.228832880088014" lon="9.298574804656585"><ele>75.0</ele><time>2026-04-11T13:22:21.002Z</time></trkpt><trkpt lat="45.22888464976981" lon="9.298626624547216"><ele>75.0</ele><time>2026-04-11T13:22:22.002Z</time></trkpt><trkpt lat="45.22898350314568" lon="9.298657914428173"><ele>75.25</ele><time>2026-04-11T13:22:24.002Z</time></trkpt><trkpt lat="45.22905104572987" lon="9.298564747176412"><ele>75.5</ele><time>2026-04-11T13:22:25.002Z</time></trkpt><trkpt lat="45.2291313411048" lon="9.298461618607806"><ele>75.75</ele><time>2026-04-11T13:22:26.002Z</time></trkpt><trkpt lat="45.229224775420825" lon="9.298331853164177"><ele>76.0</ele><time>2026-04-11T13:22:27.002Z</time></trkpt><trkpt lat="45.22932477996171" lon="9.298241290660911"><ele>76.0</ele><time>2026-04-11T13:22:28.002Z</time></trkpt><trkpt lat="45.229409429865996" lon="9.298159986056692"><ele>76.0</ele><time>2026-04-11T13:22:29.002Z</time></trkpt><trkpt lat="45.22949828208705" lon="9.298118462831667"><ele>76.0</ele><time>2026-04-11T13:22:30.002Z</time></trkpt><trkpt lat="45.22958715874148" lon="9.29809799155233"><ele>76.0</ele><time>2026-04-11T13:22:31.002Z</time></trkpt><trkpt lat="45.22969786594064" lon="9.298072275780118"><ele>76.0</ele><time>2026-04-11T13:22:32.002Z</time></trkpt><trkpt lat="45.229832442007925" lon="9.298046600255882"><ele>75.75</ele><time>2026-04-11T13:22:33.002Z</time></trkpt><trkpt lat="45.229969868046865" lon="9.29802642761352"><ele>75.5</ele><time>2026-04-11T13:22:34.002Z</time></trkpt><trkpt lat="45.230099977484315" lon="9.298009390573016"><ele>75.25</ele><time>2026-04-11T13:22:35.002Z</time></trkpt><trkpt lat="45.23022540527678" lon="9.29799451168057"><ele>75.0</ele><time>2026-04-11T13:22:36.002Z</time></trkpt><trkpt lat="45.23034054316441" lon="9.2979589171377"><ele>75.0</ele><time>2026-04-11T13:22:37.002Z</time></trkpt><trkpt lat="45.23046154827356" lon="9.297950003341908"><ele>75.0</ele><time>2026-04-11T13:22:38.002Z</time></trkpt><trkpt lat="45.230572999103366" lon="9.297931010014896"><ele>75.0</ele><time>2026-04-11T13:22:39.002Z</time></trkpt><trkpt lat="45.230683296977624" lon="9.297914205906473"><ele>75.0</ele><time>2026-04-11T13:22:40.002Z</time></trkpt><trkpt lat="45.23078304822172" lon="9.297929390430468"><ele>75.0</ele><time>2026-04-11T13:22:41.002Z</time></trkpt><trkpt lat="45.23087933314321" lon="9.297939239763371"><ele>75.2</ele><time>2026-04-11T13:22:42.002Z</time></trkpt><trkpt lat="45.230973105687326" lon="9.29797079090325"><ele>75.4</ele><time>2026-04-11T13:22:43Z</time></trkpt><trkpt lat="45.231068881244376" lon="9.298015549105111"><ele>75.6</ele><time>2026-04-11T13:22:44Z</time></trkpt><trkpt lat="45.23117187917553" lon="9.298054486527473"><ele>75.8</ele><time>2026-04-11T13:22:45Z</time></trkpt><trkpt lat="45.23126698404373" lon="9.29806556799471"><ele>76.0</ele><time>2026-04-11T13:22:46Z</time></trkpt><trkpt lat="45.23136650380675" lon="9.298089825773038"><ele>76.0</ele><time>2026-04-11T13:22:47Z</time></trkpt><trkpt lat="45.2314716228712" lon="9.298095444161214"><ele>76.0</ele><time>2026-04-11T13:22:48Z</time></trkpt><trkpt lat="45.2315843974678" lon="9.298100601043064"><ele>76.0</ele><time>2026-04-11T13:22:49Z</time></trkpt><trkpt lat="45.23170071142143" lon="9.29807839931836"><ele>76.0</ele><time>2026-04-11T13:22:50Z</time></trkpt><trkpt lat="45.23183120656835" lon="9.29806374091809"><ele>76.0</ele><time>2026-04-11T13:22:51Z</time></trkpt><trkpt lat="45.23194414687724" lon="9.298054433827076"><ele>76.0</ele><time>2026-04-11T13:22:52Z</time></trkpt><trkpt lat="45.232043006193564" lon="9.298073685329898"><ele>76.0</ele><time>2026-04-11T13:22:53Z</time></trkpt><trkpt lat="45.23214884077607" lon="9.298065731710196"><ele>76.0</ele><time>2026-04-11T13:22:54Z</time></trkpt><trkpt lat="45.232260321832" lon="9.298035882985458"><ele>76.0</ele><time>2026-04-11T13:22:55Z</time></trkpt><trkpt lat="45.23237197353427" lon="9.298017016920223"><ele>75.6</ele><time>2026-04-11T13:22:56Z</time></trkpt><trkpt lat="45.23248874039109" lon="9.298013787587747"><ele>75.19999999999999</ele><time>2026-04-11T13:22:57Z</time></trkpt><trkpt lat="45.23258827325801" lon="9.297972148580959"><ele>74.80000000000001</ele><time>2026-04-11T13:22:58Z</time></trkpt><trkpt lat="45.2327006310555" lon="9.297955007293414"><ele>74.4</ele><time>2026-04-11T13:22:59Z</time></trkpt><trkpt lat="45.23280821104956" lon="9.297936011030432"><ele>74.0</ele><time>2026-04-11T13:23:00Z</time></trkpt><trkpt lat="45.23291331317593" lon="9.297906830232206"><ele>74.0</ele><time>2026-04-11T13:23:01Z</time></trkpt><trkpt lat="45.23301854834352" lon="9.297891432579489"><ele>74.0</ele><time>2026-04-11T13:23:02Z</time></trkpt><trkpt lat="45.23312426639156" lon="9.297872434409392"><ele>74.0</ele><time>2026-04-11T13:23:03Z</time></trkpt><trkpt lat="45.23321643197409" lon="9.2978566430771"><ele>74.0</ele><time>2026-04-11T13:23:04Z</time></trkpt><trkpt lat="45.23331579494249" lon="9.297828636950713"><ele>74.0</ele><time>2026-04-11T13:23:05Z</time></trkpt><trkpt lat="45.23342425356641" lon="9.297803648597307"><ele>74.4</ele><time>2026-04-11T13:23:06Z</time></trkpt><trkpt lat="45.23352952380677" lon="9.297783582562074"><ele>74.80000000000001</ele><time>2026-04-11T13:23:07Z</time></trkpt><trkpt lat="45.23362112739325" lon="9.297766079027301"><ele>75.19999999999999</ele><time>2026-04-11T13:23:08Z</time></trkpt><trkpt lat="45.23371763410683" lon="9.29774117819399"><ele>75.6</ele><time>2026-04-11T13:23:09Z</time></trkpt><trkpt lat="45.23382070455779" lon="9.297712669617017"><ele>76.0</ele><time>2026-04-11T13:23:10Z</time></trkpt><trkpt lat="45.23392556518785" lon="9.297677654781166"><ele>76.0</ele><time>2026-04-11T13:23:11Z</time></trkpt><trkpt lat="45.234024167522016" lon="9.297638880663902"><ele>76.0</ele><time>2026-04-11T13:23:12Z</time></trkpt><trkpt lat="45.23412142151393" lon="9.297595197038335"><ele>76.0</ele><time>2026-04-11T13:23:13Z</time></trkpt><trkpt lat="45.23421187842932" lon="9.297539677710077"><ele>76.0</ele><time>2026-04-11T13:23:14Z</time></trkpt><trkpt lat="45.23431147972265" lon="9.297465563869409"><ele>76.0</ele><time>2026-04-11T13:23:15Z</time></trkpt><trkpt lat="45.23440075557778" lon="9.297395546056395"><ele>76.0</ele><time>2026-04-11T13:23:16Z</time></trkpt><trkpt lat="45.234488218805716" lon="9.29732559469409"><ele>76.0</ele><time>2026-04-11T13:23:17Z</time></trkpt><trkpt lat="45.2345682542097" lon="9.297251089995308"><ele>76.0</ele><time>2026-04-11T13:23:18Z</time></trkpt><trkpt lat="45.23463422843841" lon="9.29716607282538"><ele>76.0</ele><time>2026-04-11T13:23:19Z</time></trkpt><trkpt lat="45.234693580685686" lon="9.297065031802411"><ele>76.0</ele><time>2026-04-11T13:23:20Z</time></trkpt><trkpt lat="45.23474677374487" lon="9.29694971304244"><ele>75.75</ele><time>2026-04-11T13:23:21Z</time></trkpt><trkpt lat="45.23480908977968" lon="9.29682194172102"><ele>75.5</ele><time>2026-04-11T13:23:22Z</time></trkpt><trkpt lat="45.23488023069974" lon="9.296684301034787"><ele>75.25</ele><time>2026-04-11T13:23:23Z</time></trkpt><trkpt lat="45.23496582146387" lon="9.296525461848631"><ele>75.0</ele><time>2026-04-11T13:23:24Z</time></trkpt><trkpt lat="45.23504580043584" lon="9.29637985509315"><ele>75.5</ele><time>2026-04-11T13:23:25.001Z</time></trkpt><trkpt lat="45.23511460056418" lon="9.296260277813147"><ele>76.0</ele><time>2026-04-11T13:23:26.001Z</time></trkpt><trkpt lat="45.23518702805378" lon="9.296110601156787"><ele>76.5</ele><time>2026-04-11T13:23:27.001Z</time></trkpt><trkpt lat="45.23527293490317" lon="9.295944072290556"><ele>77.0</ele><time>2026-04-11T13:23:28.001Z</time></trkpt><trkpt lat="45.23535883548963" lon="9.29579587114531"><ele>77.0</ele><time>2026-04-11T13:23:29.001Z</time></trkpt><trkpt lat="45.23545350791062" lon="9.295648733439279"><ele>77.0</ele><time>2026-04-11T13:23:30.001Z</time></trkpt><trkpt lat="45.23556669398727" lon="9.295524129350776"><ele>77.0</ele><time>2026-04-11T13:23:31.001Z</time></trkpt><trkpt lat="45.235649845724936" lon="9.295396863058127"><ele>77.0</ele><time>2026-04-11T13:23:32.001Z</time></trkpt><trkpt lat="45.235719444497015" lon="9.295287219081914"><ele>77.0</ele><time>2026-04-11T13:23:33.001Z</time></trkpt><trkpt lat="45.23578535243412" lon="9.295182704777467"><ele>77.0</ele><time>2026-04-11T13:23:34.001Z</time></trkpt><trkpt lat="45.2358550804788" lon="9.29507205139776"><ele>77.0</ele><time>2026-04-11T13:23:35.001Z</time></trkpt><trkpt lat="45.235924169240555" lon="9.294963950902082"><ele>77.0</ele><time>2026-04-11T13:23:36.001Z</time></trkpt><trkpt lat="45.235989823805916" lon="9.294866482663302"><ele>77.0</ele><time>2026-04-11T13:23:37.001Z</time></trkpt><trkpt lat="45.23605803754875" lon="9.294768339707769"><ele>76.66666666666667</ele><time>2026-04-11T13:23:38.001Z</time></trkpt><trkpt lat="45.23611387986051" lon="9.294655207630566"><ele>76.33333333333334</ele><time>2026-04-11T13:23:39.001Z</time></trkpt><trkpt lat="45.23619690659026" lon="9.294548873636241"><ele>76.0</ele><time>2026-04-11T13:23:40.001Z</time></trkpt><trkpt lat="45.23625027738111" lon="9.294453698804666"><ele>75.66666666666667</ele><time>2026-04-11T13:23:41.001Z</time></trkpt><trkpt lat="45.23628928127318" lon="9.294358788487973"><ele>75.33333333333333</ele><time>2026-04-11T13:23:42.001Z</time></trkpt><trkpt lat="45.23632181641256" lon="9.294259963493117"><ele>75.0</ele><time>2026-04-11T13:23:43.001Z</time></trkpt><trkpt lat="45.23634298867722" lon="9.294174448744299"><ele>75.0</ele><time>2026-04-11T13:23:44.001Z</time></trkpt><trkpt lat="45.23640516986835" lon="9.294047646389108"><ele>75.0</ele><time>2026-04-11T13:23:46.001Z</time></trkpt><trkpt lat="45.23644467653074" lon="9.29395127252506"><ele>75.0</ele><time>2026-04-11T13:23:48.001Z</time></trkpt><trkpt lat="45.23637848254998" lon="9.293837302207898"><ele>75.0</ele><time>2026-04-11T13:23:49.001Z</time></trkpt><trkpt lat="45.23634597913942" lon="9.293750059015105"><ele>75.0</ele><time>2026-04-11T13:23:50.001Z</time></trkpt><trkpt lat="45.23629280519993" lon="9.293624693904981"><ele>75.2</ele><time>2026-04-11T13:23:51.001Z</time></trkpt><trkpt lat="45.23623366902485" lon="9.293491891040496"><ele>75.4</ele><time>2026-04-11T13:23:52.001Z</time></trkpt><trkpt lat="45.23618943506335" lon="9.293394212714485"><ele>75.6</ele><time>2026-04-11T13:23:53.001Z</time></trkpt><trkpt lat="45.236168582854006" lon="9.29330898802223"><ele>75.8</ele><time>2026-04-11T13:23:54.001Z</time></trkpt><trkpt lat="45.236143790088136" lon="9.293192868846079"><ele>76.0</ele><time>2026-04-11T13:23:56.001Z</time></trkpt><trkpt lat="45.23628056155956" lon="9.292983241296984"><ele>76.25</ele><time>2026-04-11T13:23:59.001Z</time></trkpt><trkpt lat="45.23636380107472" lon="9.292873278523807"><ele>76.5</ele><time>2026-04-11T13:24:00.001Z</time></trkpt><trkpt lat="45.2364441220227" lon="9.292750353524031"><ele>76.75</ele><time>2026-04-11T13:24:01.001Z</time></trkpt><trkpt lat="45.23652952458626" lon="9.292616981168047"><ele>77.0</ele><time>2026-04-11T13:24:02.001Z</time></trkpt><trkpt lat="45.236625244141244" lon="9.292508235565705"><ele>77.0</ele><time>2026-04-11T13:24:03.001Z</time></trkpt><trkpt lat="45.23670398221067" lon="9.292389149301997"><ele>77.0</ele><time>2026-04-11T13:24:04.001Z</time></trkpt><trkpt lat="45.23677188432953" lon="9.292267946509067"><ele>77.0</ele><time>2026-04-11T13:24:05.001Z</time></trkpt><trkpt lat="45.236852727093975" lon="9.292149535707578"><ele>77.0</ele><time>2026-04-11T13:24:06.001Z</time></trkpt><trkpt lat="45.23686741511346" lon="9.291992835238824"><ele>77.0</ele><time>2026-04-11T13:24:07.001Z</time></trkpt><trkpt lat="45.23691398928783" lon="9.291854451048458"><ele>77.0</ele><time>2026-04-11T13:24:08.001Z</time></trkpt><trkpt lat="45.23708496347212" lon="9.291801927949692"><ele>77.0</ele><time>2026-04-11T13:24:09.001Z</time></trkpt><trkpt lat="45.23715647881151" lon="9.291699608519966"><ele>77.0</ele><time>2026-04-11T13:24:10.001Z</time></trkpt><trkpt lat="45.23723358441173" lon="9.291594222069689"><ele>77.0</ele><time>2026-04-11T13:24:11.001Z</time></trkpt><trkpt lat="45.237312753347595" lon="9.291487028101109"><ele>77.0</ele><time>2026-04-11T13:24:12.001Z</time></trkpt><trkpt lat="45.23738395845275" lon="9.291381254553869"><ele>77.0</ele><time>2026-04-11T13:24:13.001Z</time></trkpt><trkpt lat="45.23744386791901" lon="9.291285570481131"><ele>77.0</ele><time>2026-04-11T13:24:14.001Z</time></trkpt><trkpt lat="45.237495499754026" lon="9.291189029293031"><ele>77.0</ele><time>2026-04-11T13:24:15.001Z</time></trkpt><trkpt lat="45.23753169970139" lon="9.291075425183454"><ele>77.0</ele><time>2026-04-11T13:24:16.001Z</time></trkpt><trkpt lat="45.23755914603963" lon="9.290947370807618"><ele>77.0</ele><time>2026-04-11T13:24:17.001Z</time></trkpt><trkpt lat="45.23758286079866" lon="9.290811301073642"><ele>77.0</ele><time>2026-04-11T13:24:18.001Z</time></trkpt><trkpt lat="45.23762138571605" lon="9.290672897611453"><ele>77.0</ele><time>2026-04-11T13:24:19.001Z</time></trkpt><trkpt lat="45.237654690191604" lon="9.290528285449339"><ele>77.0</ele><time>2026-04-11T13:24:20.001Z</time></trkpt><trkpt lat="45.23768913706924" lon="9.290396651031108"><ele>77.0</ele><time>2026-04-11T13:24:21.001Z</time></trkpt><trkpt lat="45.237720914094375" lon="9.290275538201145"><ele>77.0</ele><time>2026-04-11T13:24:22.001Z</time></trkpt><trkpt lat="45.23775467664188" lon="9.290147123073872"><ele>77.0</ele><time>2026-04-11T13:24:23.001Z</time></trkpt><trkpt lat="45.23779215129541" lon="9.290012879773803"><ele>77.0</ele><time>2026-04-11T13:24:24.002Z</time></trkpt><trkpt lat="45.23782644088282" lon="9.289878150576381"><ele>77.0</ele><time>2026-04-11T13:24:25.002Z</time></trkpt><trkpt lat="45.237860663099184" lon="9.28973549071353"><ele>76.8</ele><time>2026-04-11T13:24:26.002Z</time></trkpt><trkpt lat="45.23789255032136" lon="9.289593315289697"><ele>76.6</ele><time>2026-04-11T13:24:27.002Z</time></trkpt><trkpt lat="45.237921495389834" lon="9.289461055941143"><ele>76.39999999999999</ele><time>2026-04-11T13:24:28.002Z</time></trkpt><trkpt lat="45.23795069933673" lon="9.289323656705253"><ele>76.2</ele><time>2026-04-11T13:24:29.002Z</time></trkpt><trkpt lat="45.23797891408904" lon="9.289184831094483"><ele>76.0</ele><time>2026-04-11T13:24:30.002Z</time></trkpt><trkpt lat="45.23800744267969" lon="9.289047613173052"><ele>76.2</ele><time>2026-04-11T13:24:31.002Z</time></trkpt><trkpt lat="45.23803456020938" lon="9.28891792409531"><ele>76.39999999999999</ele><time>2026-04-11T13:24:32.002Z</time></trkpt><trkpt lat="45.238062056904276" lon="9.288791159015911"><ele>76.6</ele><time>2026-04-11T13:24:33.002Z</time></trkpt><trkpt lat="45.23808793201576" lon="9.288662609167828"><ele>76.8</ele><time>2026-04-11T13:24:34.002Z</time></trkpt><trkpt lat="45.23811579053395" lon="9.288529635879408"><ele>77.0</ele><time>2026-04-11T13:24:35.002Z</time></trkpt><trkpt lat="45.238146543226044" lon="9.288396872317788"><ele>77.0</ele><time>2026-04-11T13:24:36.002Z</time></trkpt><trkpt lat="45.23817344790751" lon="9.28826903393902"><ele>77.0</ele><time>2026-04-11T13:24:37.002Z</time></trkpt><trkpt lat="45.238201706459115" lon="9.28814444278514"><ele>77.0</ele><time>2026-04-11T13:24:38.002Z</time></trkpt><trkpt lat="45.23823142992104" lon="9.288002194539994"><ele>77.0</ele><time>2026-04-11T13:24:39.002Z</time></trkpt><trkpt lat="45.2382612892832" lon="9.287866317851888"><ele>77.0</ele><time>2026-04-11T13:24:40.002Z</time></trkpt><trkpt lat="45.23829621073179" lon="9.287719114893997"><ele>77.2</ele><time>2026-04-11T13:24:41.002Z</time></trkpt><trkpt lat="45.23832929085916" lon="9.287573408230635"><ele>77.4</ele><time>2026-04-11T13:24:42.002Z</time></trkpt><trkpt lat="45.23835837504281" lon="9.287427872053971"><ele>77.6</ele><time>2026-04-11T13:24:43.002Z</time></trkpt><trkpt lat="45.23838144651569" lon="9.287289887556334"><ele>77.8</ele><time>2026-04-11T13:24:44.002Z</time></trkpt><trkpt lat="45.238401116035504" lon="9.287166447751321"><ele>78.0</ele><time>2026-04-11T13:24:45.002Z</time></trkpt><trkpt lat="45.23843027099901" lon="9.287051108605056"><ele>78.0</ele><time>2026-04-11T13:24:46.002Z</time></trkpt><trkpt lat="45.23847253978569" lon="9.286968457125644"><ele>78.0</ele><time>2026-04-11T13:24:47.002Z</time></trkpt><trkpt lat="45.23852404270098" lon="9.286886453605922"><ele>78.0</ele><time>2026-04-11T13:24:48.002Z</time></trkpt><trkpt lat="45.23858968570116" lon="9.286777534694144"><ele>78.0</ele><time>2026-04-11T13:24:49Z</time></trkpt><trkpt lat="45.238655824693886" lon="9.28666141465144"><ele>78.0</ele><time>2026-04-11T13:24:50Z</time></trkpt><trkpt lat="45.238719677540566" lon="9.28653792397819"><ele>78.0</ele><time>2026-04-11T13:24:51Z</time></trkpt><trkpt lat="45.2387754755741" lon="9.286416803951287"><ele>78.0</ele><time>2026-04-11T13:24:52Z</time></trkpt><trkpt lat="45.238825314743956" lon="9.28629682616648"><ele>78.0</ele><time>2026-04-11T13:24:53Z</time></trkpt><trkpt lat="45.23887936085099" lon="9.2861994482915"><ele>78.0</ele><time>2026-04-11T13:24:54Z</time></trkpt><trkpt lat="45.2389526845188" lon="9.286116656437986"><ele>78.0</ele><time>2026-04-11T13:24:55Z</time></trkpt><trkpt lat="45.239041799176015" lon="9.286040512490962"><ele>78.0</ele><time>2026-04-11T13:24:56Z</time></trkpt><trkpt lat="45.23912608036038" lon="9.285963839711718"><ele>78.0</ele><time>2026-04-11T13:24:57Z</time></trkpt><trkpt lat="45.23919072710977" lon="9.285886403250622"><ele>78.0</ele><time>2026-04-11T13:24:58Z</time></trkpt><trkpt lat="45.23924464654858" lon="9.28577507315972"><ele>78.0</ele><time>2026-04-11T13:24:59Z</time></trkpt><trkpt lat="45.23928385998751" lon="9.285644742472762"><ele>78.0</ele><time>2026-04-11T13:25:00Z</time></trkpt><trkpt lat="45.23932307207938" lon="9.285516272167506"><ele>78.4</ele><time>2026-04-11T13:25:01Z</time></trkpt><trkpt lat="45.23937411540615" lon="9.285385422749796"><ele>78.8</ele><time>2026-04-11T13:25:02Z</time></trkpt><trkpt lat="45.23942025588257" lon="9.285255202676701"><ele>79.2</ele><time>2026-04-11T13:25:03Z</time></trkpt><trkpt lat="45.23946533669075" lon="9.285133347905912"><ele>79.6</ele><time>2026-04-11T13:25:04Z</time></trkpt><trkpt lat="45.23950734625006" lon="9.285010748505846"><ele>80.0</ele><time>2026-04-11T13:25:05Z</time></trkpt><trkpt lat="45.23954783149533" lon="9.284880324113026"><ele>79.8</ele><time>2026-04-11T13:25:06Z</time></trkpt><trkpt lat="45.23958703448714" lon="9.28475122271634"><ele>79.6</ele><time>2026-04-11T13:25:07Z</time></trkpt><trkpt lat="45.23962740813317" lon="9.284632627797727"><ele>79.4</ele><time>2026-04-11T13:25:08Z</time></trkpt><trkpt lat="45.23967525867908" lon="9.284518667329664"><ele>79.2</ele><time>2026-04-11T13:25:09Z</time></trkpt><trkpt lat="45.239744310923484" lon="9.284425931528453"><ele>79.0</ele><time>2026-04-11T13:25:10Z</time></trkpt><trkpt lat="45.239824467931314" lon="9.284334333343944"><ele>78.75</ele><time>2026-04-11T13:25:11Z</time></trkpt><trkpt lat="45.23991104038179" lon="9.284233774447221"><ele>78.5</ele><time>2026-04-11T13:25:12Z</time></trkpt><trkpt lat="45.23999941761935" lon="9.284123578334528"><ele>78.25</ele><time>2026-04-11T13:25:13Z</time></trkpt><trkpt lat="45.240087033534856" lon="9.284014767666784"><ele>78.0</ele><time>2026-04-11T13:25:14Z</time></trkpt><trkpt lat="45.240173904184616" lon="9.283895098347289"><ele>78.0</ele><time>2026-04-11T13:25:15Z</time></trkpt><trkpt lat="45.24026339280097" lon="9.283775583249845"><ele>78.0</ele><time>2026-04-11T13:25:16Z</time></trkpt><trkpt lat="45.240352928418126" lon="9.283655736749886"><ele>78.0</ele><time>2026-04-11T13:25:17Z</time></trkpt><trkpt lat="45.240439646916656" lon="9.28354382975648"><ele>78.0</ele><time>2026-04-11T13:25:18Z</time></trkpt><trkpt lat="45.24052654295127" lon="9.28343233383793"><ele>78.0</ele><time>2026-04-11T13:25:19Z</time></trkpt><trkpt lat="45.240611694826526" lon="9.283316437382542"><ele>78.0</ele><time>2026-04-11T13:25:20Z</time></trkpt><trkpt lat="45.24069950330167" lon="9.283203082597977"><ele>78.0</ele><time>2026-04-11T13:25:21Z</time></trkpt><trkpt lat="45.240780319334455" lon="9.283100421440396"><ele>78.0</ele><time>2026-04-11T13:25:22Z</time></trkpt><trkpt lat="45.24086221405803" lon="9.282997718393862"><ele>78.2</ele><time>2026-04-11T13:25:23Z</time></trkpt><trkpt lat="45.24094058462343" lon="9.282896339744322"><ele>78.4</ele><time>2026-04-11T13:25:24Z</time></trkpt><trkpt lat="45.24101426654614" lon="9.282793498343942"><ele>78.60000000000001</ele><time>2026-04-11T13:25:25Z</time></trkpt><trkpt lat="45.2410854363716" lon="9.282689831640104"><ele>78.8</ele><time>2026-04-11T13:25:26Z</time></trkpt><trkpt lat="45.24115853628705" lon="9.282588705862768"><ele>79.0</ele><time>2026-04-11T13:25:27Z</time></trkpt><trkpt lat="45.24122502159293" lon="9.282507680441606"><ele>79.0</ele><time>2026-04-11T13:25:28Z</time></trkpt><trkpt lat="45.24128718905376" lon="9.282435137653925"><ele>79.0</ele><time>2026-04-11T13:25:29.001Z</time></trkpt><trkpt lat="45.24134372261735" lon="9.282362502575866"><ele>79.0</ele><time>2026-04-11T13:25:30.001Z</time></trkpt><trkpt lat="45.241416853945964" lon="9.282272043841973"><ele>79.0</ele><time>2026-04-11T13:25:32.001Z</time></trkpt><trkpt lat="45.24144532115442" lon="9.282132925222728"><ele>79.0</ele><time>2026-04-11T13:25:36.001Z</time></trkpt><trkpt lat="45.24140596721877" lon="9.2820139625155"><ele>79.0</ele><time>2026-04-11T13:25:37.001Z</time></trkpt><trkpt lat="45.24134134121274" lon="9.281887868515993"><ele>79.0</ele><time>2026-04-11T13:25:38.001Z</time></trkpt><trkpt lat="45.24127090357085" lon="9.281735719942226"><ele>79.0</ele><time>2026-04-11T13:25:39.001Z</time></trkpt><trkpt lat="45.24120033517079" lon="9.281565105900187"><ele>79.0</ele><time>2026-04-11T13:25:40.001Z</time></trkpt><trkpt lat="45.241129954555504" lon="9.28137532256959"><ele>79.0</ele><time>2026-04-11T13:25:41.001Z</time></trkpt><trkpt lat="45.24104902437013" lon="9.281169166508777"><ele>78.66666666666666</ele><time>2026-04-11T13:25:42.001Z</time></trkpt><trkpt lat="45.24096856270982" lon="9.280972912435443"><ele>78.33333333333333</ele><time>2026-04-11T13:25:43.001Z</time></trkpt><trkpt lat="45.24089339104577" lon="9.280759475015554"><ele>78.0</ele><time>2026-04-11T13:25:44.001Z</time></trkpt><trkpt lat="45.24085126235546" lon="9.280515917072412"><ele>78.0</ele><time>2026-04-11T13:25:45.001Z</time></trkpt><trkpt lat="45.240783562402164" lon="9.280276648917155"><ele>78.0</ele><time>2026-04-11T13:25:46.001Z</time></trkpt><trkpt lat="45.24073070859428" lon="9.2800220643347"><ele>78.0</ele><time>2026-04-11T13:25:47.001Z</time></trkpt><trkpt lat="45.24067701028431" lon="9.279760382192668"><ele>78.33333333333333</ele><time>2026-04-11T13:25:48.001Z</time></trkpt><trkpt lat="45.24062764680556" lon="9.279498440236264"><ele>78.66666666666666</ele><time>2026-04-11T13:25:49.001Z</time></trkpt><trkpt lat="45.24060501234208" lon="9.279220583441592"><ele>79.0</ele><time>2026-04-11T13:25:50.001Z</time></trkpt><trkpt lat="45.24058374974685" lon="9.278935971562381"><ele>78.66666666666666</ele><time>2026-04-11T13:25:51.001Z</time></trkpt><trkpt lat="45.24054992018395" lon="9.278656595698576"><ele>78.33333333333333</ele><time>2026-04-11T13:25:52.001Z</time></trkpt><trkpt lat="45.24053619806683" lon="9.278370026674606"><ele>78.0</ele><time>2026-04-11T13:25:53.001Z</time></trkpt><trkpt lat="45.24051433141357" lon="9.278101558654585"><ele>78.0</ele><time>2026-04-11T13:25:54.001Z</time></trkpt><trkpt lat="45.24048951148114" lon="9.277834764018342"><ele>78.0</ele><time>2026-04-11T13:25:55.001Z</time></trkpt><trkpt lat="45.240467274486505" lon="9.277572242875546"><ele>78.0</ele><time>2026-04-11T13:25:56.001Z</time></trkpt><trkpt lat="45.2404481643706" lon="9.27730879771664"><ele>78.0</ele><time>2026-04-11T13:25:57.001Z</time></trkpt><trkpt lat="45.2404291192492" lon="9.277041431595476"><ele>78.0</ele><time>2026-04-11T13:25:58.001Z</time></trkpt><trkpt lat="45.24040690825998" lon="9.276773064062281"><ele>78.0</ele><time>2026-04-11T13:25:59.001Z</time></trkpt><trkpt lat="45.24038477313973" lon="9.276511672953202"><ele>78.0</ele><time>2026-04-11T13:26:00.001Z</time></trkpt><trkpt lat="45.2403610830955" lon="9.27625526289815"><ele>78.0</ele><time>2026-04-11T13:26:01.001Z</time></trkpt><trkpt lat="45.24032677454374" lon="9.276002877008196"><ele>78.0</ele><time>2026-04-11T13:26:02.001Z</time></trkpt><trkpt lat="45.24028932198441" lon="9.275751295085488"><ele>78.0</ele><time>2026-04-11T13:26:03.001Z</time></trkpt><trkpt lat="45.24024431899365" lon="9.275507412302884"><ele>78.0</ele><time>2026-04-11T13:26:04.001Z</time></trkpt><trkpt lat="45.24022043422094" lon="9.275254749445148"><ele>78.0</ele><time>2026-04-11T13:26:05.001Z</time></trkpt><trkpt lat="45.24012822619671" lon="9.274763566675542"><ele>78.0</ele><time>2026-04-11T13:26:07.001Z</time></trkpt><trkpt lat="45.240082673144755" lon="9.274519923705787"><ele>78.0</ele><time>2026-04-11T13:26:08.001Z</time></trkpt><trkpt lat="45.24002386801978" lon="9.274286353727975"><ele>78.0</ele><time>2026-04-11T13:26:09.001Z</time></trkpt><trkpt lat="45.239951389157554" lon="9.274066432568382"><ele>78.0</ele><time>2026-04-11T13:26:10.001Z</time></trkpt><trkpt lat="45.23985703386522" lon="9.273850628635744"><ele>78.0</ele><time>2026-04-11T13:26:11.001Z</time></trkpt><trkpt lat="45.239752653837314" lon="9.273652747359602"><ele>78.0</ele><time>2026-04-11T13:26:12.001Z</time></trkpt><trkpt lat="45.23964877862505" lon="9.273446804796272"><ele>78.0</ele><time>2026-04-11T13:26:13.001Z</time></trkpt><trkpt lat="45.23954852842898" lon="9.273244134469088"><ele>78.0</ele><time>2026-04-11T13:26:14.001Z</time></trkpt><trkpt lat="45.239450559885206" lon="9.273040142778223"><ele>78.0</ele><time>2026-04-11T13:26:15.001Z</time></trkpt><trkpt lat="45.23935983986721" lon="9.272828096069107"><ele>78.0</ele><time>2026-04-11T13:26:16.001Z</time></trkpt><trkpt lat="45.2393154311225" lon="9.272585098078615"><ele>78.0</ele><time>2026-04-11T13:26:17.001Z</time></trkpt><trkpt lat="45.2392723241428" lon="9.27234515639532"><ele>78.0</ele><time>2026-04-11T13:26:18.001Z</time></trkpt><trkpt lat="45.239229533804796" lon="9.272096138586475"><ele>78.0</ele><time>2026-04-11T13:26:19.001Z</time></trkpt><trkpt lat="45.23917809429463" lon="9.271867107334383"><ele>78.0</ele><time>2026-04-11T13:26:20.001Z</time></trkpt><trkpt lat="45.23914227530557" lon="9.2716472604559"><ele>78.0</ele><time>2026-04-11T13:26:21.001Z</time></trkpt><trkpt lat="45.23910581512483" lon="9.271449155596946"><ele>78.25</ele><time>2026-04-11T13:26:22.001Z</time></trkpt><trkpt lat="45.23907505781297" lon="9.271255718958052"><ele>78.5</ele><time>2026-04-11T13:26:23.001Z</time></trkpt><trkpt lat="45.239046314886096" lon="9.271071263572388"><ele>78.75</ele><time>2026-04-11T13:26:24.001Z</time></trkpt><trkpt lat="45.23901537412052" lon="9.270901655562824"><ele>79.0</ele><time>2026-04-11T13:26:25.001Z</time></trkpt><trkpt lat="45.238983544249145" lon="9.270735073288476"><ele>78.8</ele><time>2026-04-11T13:26:26.001Z</time></trkpt><trkpt lat="45.238955121161794" lon="9.270578526446794"><ele>78.60000000000001</ele><time>2026-04-11T13:26:27.001Z</time></trkpt><trkpt lat="45.23893155043634" lon="9.270443372228645"><ele>78.4</ele><time>2026-04-11T13:26:28.001Z</time></trkpt><trkpt lat="45.23891312557305" lon="9.270338426441102"><ele>78.2</ele><time>2026-04-11T13:26:29.002Z</time></trkpt><trkpt lat="45.23894372928626" lon="9.270218615168936"><ele>78.0</ele><time>2026-04-11T13:26:32.002Z</time></trkpt><trkpt lat="45.239166910772425" lon="9.270145833757594"><ele>78.0</ele><time>2026-04-11T13:26:35.002Z</time></trkpt><trkpt lat="45.23929340075707" lon="9.270118725859788"><ele>78.0</ele><time>2026-04-11T13:26:36.002Z</time></trkpt><trkpt lat="45.23941573029256" lon="9.270103960650614"><ele>78.0</ele><time>2026-04-11T13:26:37.002Z</time></trkpt><trkpt lat="45.239527390387316" lon="9.270093253303243"><ele>78.0</ele><time>2026-04-11T13:26:38.002Z</time></trkpt><trkpt lat="45.23962473872287" lon="9.270076152721062"><ele>78.0</ele><time>2026-04-11T13:26:39.002Z</time></trkpt><trkpt lat="45.23972148500055" lon="9.270047937010938"><ele>78.0</ele><time>2026-04-11T13:26:40.002Z</time></trkpt><trkpt lat="45.239826624348474" lon="9.270009780436068"><ele>78.0</ele><time>2026-04-11T13:26:41.002Z</time></trkpt><trkpt lat="45.23993855650925" lon="9.269973092052206"><ele>78.0</ele><time>2026-04-11T13:26:42.002Z</time></trkpt><trkpt lat="45.24004703954328" lon="9.269940210624869"><ele>78.0</ele><time>2026-04-11T13:26:43.002Z</time></trkpt><trkpt lat="45.24015197982224" lon="9.269903359598372"><ele>78.25</ele><time>2026-04-11T13:26:44.002Z</time></trkpt><trkpt lat="45.240251601024674" lon="9.269852069144633"><ele>78.5</ele><time>2026-04-11T13:26:45.002Z</time></trkpt><trkpt lat="45.24035936630584" lon="9.269795201772604"><ele>78.75</ele><time>2026-04-11T13:26:46.002Z</time></trkpt><trkpt lat="45.24046429538839" lon="9.269742419391925"><ele>79.0</ele><time>2026-04-11T13:26:47.002Z</time></trkpt><trkpt lat="45.240591220542846" lon="9.26967962116715"><ele>79.25</ele><time>2026-04-11T13:26:48.002Z</time></trkpt><trkpt lat="45.240720774522714" lon="9.269614736096893"><ele>79.5</ele><time>2026-04-11T13:26:49.002Z</time></trkpt><trkpt lat="45.24083373396335" lon="9.26955442659374"><ele>79.75</ele><time>2026-04-11T13:26:50.002Z</time></trkpt><trkpt lat="45.24094097612705" lon="9.269503265569687"><ele>80.0</ele><time>2026-04-11T13:26:51.002Z</time></trkpt><trkpt lat="45.24104809818319" lon="9.269444307636716"><ele>80.0</ele><time>2026-04-11T13:26:52.002Z</time></trkpt><trkpt lat="45.24115957204977" lon="9.269377135325263"><ele>80.0</ele><time>2026-04-11T13:26:53.002Z</time></trkpt><trkpt lat="45.24127170855524" lon="9.269308919605736"><ele>80.0</ele><time>2026-04-11T13:26:54.002Z</time></trkpt><trkpt lat="45.241377440156825" lon="9.26925481372683"><ele>80.0</ele><time>2026-04-11T13:26:55Z</time></trkpt><trkpt lat="45.24147477493791" lon="9.269205734279826"><ele>80.2</ele><time>2026-04-11T13:26:56Z</time></trkpt><trkpt lat="45.24157065582525" lon="9.269163893545523"><ele>80.4</ele><time>2026-04-11T13:26:57Z</time></trkpt><trkpt lat="45.24165794592918" lon="9.269117416213307"><ele>80.6</ele><time>2026-04-11T13:26:58Z</time></trkpt><trkpt lat="45.24174538343101" lon="9.269076559356904"><ele>80.8</ele><time>2026-04-11T13:26:59Z</time></trkpt><trkpt lat="45.24187904745454" lon="9.26902172914815"><ele>81.0</ele><time>2026-04-11T13:27:01Z</time></trkpt><trkpt lat="45.24195981189735" lon="9.268967949802505"><ele>81.0</ele><time>2026-04-11T13:27:03Z</time></trkpt><trkpt lat="45.242054100709744" lon="9.268830203576565"><ele>81.0</ele><time>2026-04-11T13:27:05Z</time></trkpt><trkpt lat="45.242090404607495" lon="9.268724876458947"><ele>81.0</ele><time>2026-04-11T13:27:06Z</time></trkpt><trkpt lat="45.24213455079278" lon="9.268634457301765"><ele>81.0</ele><time>2026-04-11T13:27:07Z</time></trkpt><trkpt lat="45.24219227390181" lon="9.268545896986513"><ele>81.0</ele><time>2026-04-11T13:27:08Z</time></trkpt><trkpt lat="45.24229343108221" lon="9.268499966524942"><ele>80.75</ele><time>2026-04-11T13:27:09Z</time></trkpt><trkpt lat="45.24236062887598" lon="9.268373038771227"><ele>80.5</ele><time>2026-04-11T13:27:11Z</time></trkpt><trkpt lat="45.242353545132026" lon="9.268282745899684"><ele>80.25</ele><time>2026-04-11T13:27:12Z</time></trkpt><trkpt lat="45.242517475826666" lon="9.268132792012066"><ele>80.0</ele><time>2026-04-11T13:27:15Z</time></trkpt><trkpt lat="45.24264329890917" lon="9.268075096987086"><ele>80.0</ele><time>2026-04-11T13:27:16Z</time></trkpt><trkpt lat="45.242772512364354" lon="9.268013640834138"><ele>80.0</ele><time>2026-04-11T13:27:17Z</time></trkpt><trkpt lat="45.24289704807366" lon="9.267951729747384"><ele>80.0</ele><time>2026-04-11T13:27:18Z</time></trkpt><trkpt lat="45.24302563831766" lon="9.267881856477526"><ele>80.0</ele><time>2026-04-11T13:27:19Z</time></trkpt><trkpt lat="45.24315716313392" lon="9.267808994223842"><ele>80.0</ele><time>2026-04-11T13:27:20Z</time></trkpt><trkpt lat="45.24329001134972" lon="9.26773478084244"><ele>80.0</ele><time>2026-04-11T13:27:21Z</time></trkpt><trkpt lat="45.243424083063616" lon="9.26766540445963"><ele>80.0</ele><time>2026-04-11T13:27:22Z</time></trkpt><trkpt lat="45.24355137968903" lon="9.267598912359361"><ele>80.0</ele><time>2026-04-11T13:27:23Z</time></trkpt><trkpt lat="45.24366991805184" lon="9.267536118910254"><ele>80.0</ele><time>2026-04-11T13:27:24.001Z</time></trkpt><trkpt lat="45.24378990886832" lon="9.267470312501912"><ele>80.0</ele><time>2026-04-11T13:27:25.001Z</time></trkpt><trkpt lat="45.24390985823788" lon="9.267407406031154"><ele>80.0</ele><time>2026-04-11T13:27:26.001Z</time></trkpt><trkpt lat="45.24403077955274" lon="9.267344083019912"><ele>80.0</ele><time>2026-04-11T13:27:27.001Z</time></trkpt><trkpt lat="45.24414848253324" lon="9.267279199965449"><ele>80.0</ele><time>2026-04-11T13:27:28.001Z</time></trkpt><trkpt lat="45.2442714174166" lon="9.2672104096571"><ele>80.0</ele><time>2026-04-11T13:27:29.001Z</time></trkpt><trkpt lat="45.2443979844958" lon="9.26716410302161"><ele>80.0</ele><time>2026-04-11T13:27:30.001Z</time></trkpt><trkpt lat="45.24452531726498" lon="9.267095844098378"><ele>80.0</ele><time>2026-04-11T13:27:31.001Z</time></trkpt><trkpt lat="45.244651639110764" lon="9.267005503945358"><ele>80.0</ele><time>2026-04-11T13:27:32.001Z</time></trkpt><trkpt lat="45.24477855649934" lon="9.266942306182424"><ele>80.0</ele><time>2026-04-11T13:27:33.001Z</time></trkpt><trkpt lat="45.24490705148169" lon="9.266875875829866"><ele>80.0</ele><time>2026-04-11T13:27:34.001Z</time></trkpt><trkpt lat="45.2450199149695" lon="9.266807773953104"><ele>80.0</ele><time>2026-04-11T13:27:35.001Z</time></trkpt><trkpt lat="45.24512829613133" lon="9.266753316322346"><ele>80.0</ele><time>2026-04-11T13:27:36.001Z</time></trkpt><trkpt lat="45.24523795638353" lon="9.266686893766607"><ele>80.0</ele><time>2026-04-11T13:27:37.001Z</time></trkpt><trkpt lat="45.24535717713226" lon="9.266632625544503"><ele>80.0</ele><time>2026-04-11T13:27:38.001Z</time></trkpt><trkpt lat="45.24547349395982" lon="9.266570799375355"><ele>80.0</ele><time>2026-04-11T13:27:39.001Z</time></trkpt><trkpt lat="45.24558605179063" lon="9.266501551722333"><ele>80.25</ele><time>2026-04-11T13:27:40.001Z</time></trkpt><trkpt lat="45.245706491411234" lon="9.266445574559485"><ele>80.5</ele><time>2026-04-11T13:27:41.001Z</time></trkpt><trkpt lat="45.24582423043402" lon="9.26637865398752"><ele>80.75</ele><time>2026-04-11T13:27:42.001Z</time></trkpt><trkpt lat="45.245942253262726" lon="9.26630948958944"><ele>81.0</ele><time>2026-04-11T13:27:43.001Z</time></trkpt><trkpt lat="45.2460658897791" lon="9.266244803377157"><ele>80.5</ele><time>2026-04-11T13:27:44.001Z</time></trkpt><trkpt lat="45.24618375593548" lon="9.266178745795306"><ele>80.0</ele><time>2026-04-11T13:27:45.001Z</time></trkpt><trkpt lat="45.2462931234222" lon="9.266126505510345"><ele>79.5</ele><time>2026-04-11T13:27:46.001Z</time></trkpt><trkpt lat="45.24641234430967" lon="9.266100606656474"><ele>79.0</ele><time>2026-04-11T13:27:47.001Z</time></trkpt><trkpt lat="45.24652653565425" lon="9.266034135837153"><ele>79.0</ele><time>2026-04-11T13:27:48.001Z</time></trkpt><trkpt lat="45.24664381587879" lon="9.265974531653423"><ele>79.0</ele><time>2026-04-11T13:27:49.001Z</time></trkpt><trkpt lat="45.24676946086423" lon="9.265911689618504"><ele>79.0</ele><time>2026-04-11T13:27:50.001Z</time></trkpt><trkpt lat="45.24689339562807" lon="9.265848556998408"><ele>79.0</ele><time>2026-04-11T13:27:51.001Z</time></trkpt><trkpt lat="45.24701773609847" lon="9.26578499829527"><ele>79.0</ele><time>2026-04-11T13:27:52.001Z</time></trkpt><trkpt lat="45.24713837954983" lon="9.265721723921448"><ele>79.0</ele><time>2026-04-11T13:27:53.001Z</time></trkpt><trkpt lat="45.247258362659544" lon="9.265665458774471"><ele>79.0</ele><time>2026-04-11T13:27:54.001Z</time></trkpt><trkpt lat="45.24737648893178" lon="9.265613250261227"><ele>79.0</ele><time>2026-04-11T13:27:55.001Z</time></trkpt><trkpt lat="45.247492711045325" lon="9.26556001247108"><ele>79.2</ele><time>2026-04-11T13:27:56.001Z</time></trkpt><trkpt lat="45.247601930687225" lon="9.265506273898016"><ele>79.4</ele><time>2026-04-11T13:27:57.001Z</time></trkpt><trkpt lat="45.247711720869866" lon="9.265462522219101"><ele>79.6</ele><time>2026-04-11T13:27:58.001Z</time></trkpt><trkpt lat="45.24780789861212" lon="9.265409770951859"><ele>79.8</ele><time>2026-04-11T13:27:59.001Z</time></trkpt><trkpt lat="45.2479061749373" lon="9.265350894302559"><ele>80.0</ele><time>2026-04-11T13:28:00.001Z</time></trkpt><trkpt lat="45.24800873901176" lon="9.265249558306623"><ele>80.0</ele><time>2026-04-11T13:28:01.001Z</time></trkpt><trkpt lat="45.248102771272244" lon="9.26514567746075"><ele>80.0</ele><time>2026-04-11T13:28:02.001Z</time></trkpt><trkpt lat="45.248183772951805" lon="9.265053948288044"><ele>80.0</ele><time>2026-04-11T13:28:03.001Z</time></trkpt><trkpt lat="45.24825750506401" lon="9.264994919008416"><ele>80.0</ele><time>2026-04-11T13:28:04.001Z</time></trkpt><trkpt lat="45.24833955129952" lon="9.264956365776351"><ele>80.0</ele><time>2026-04-11T13:28:05.001Z</time></trkpt><trkpt lat="45.24843556515639" lon="9.26498009648112"><ele>80.4</ele><time>2026-04-11T13:28:06.001Z</time></trkpt><trkpt lat="45.24853602249021" lon="9.26501143834765"><ele>80.8</ele><time>2026-04-11T13:28:07.001Z</time></trkpt><trkpt lat="45.24866237168714" lon="9.265032751275536"><ele>81.19999999999999</ele><time>2026-04-11T13:28:08.001Z</time></trkpt><trkpt lat="45.24875713212107" lon="9.26505936998726"><ele>81.6</ele><time>2026-04-11T13:28:09.001Z</time></trkpt><trkpt lat="45.24883952136518" lon="9.26503859890686"><ele>82.0</ele><time>2026-04-11T13:28:10.001Z</time></trkpt><trkpt lat="45.24893152399866" lon="9.264975272349087"><ele>81.83333333333333</ele><time>2026-04-11T13:28:11.001Z</time></trkpt><trkpt lat="45.249031241249824" lon="9.264904763346898"><ele>81.66666666666666</ele><time>2026-04-11T13:28:12.001Z</time></trkpt><trkpt lat="45.24911938535793" lon="9.264910444890292"><ele>81.5</ele><time>2026-04-11T13:28:13.001Z</time></trkpt><trkpt lat="45.249182936029726" lon="9.26491532728519"><ele>81.33333333333333</ele><time>2026-04-11T13:28:14.001Z</time></trkpt><trkpt lat="45.2492420709985" lon="9.264969781154516"><ele>81.16666666666667</ele><time>2026-04-11T13:28:15.001Z</time></trkpt><trkpt lat="45.24931657711073" lon="9.265059687266644"><ele>81.0</ele><time>2026-04-11T13:28:16.001Z</time></trkpt><trkpt lat="45.249420411916276" lon="9.265148511973301"><ele>81.0</ele><time>2026-04-11T13:28:17.001Z</time></trkpt><trkpt lat="45.249544201190965" lon="9.265230291037389"><ele>81.0</ele><time>2026-04-11T13:28:18.001Z</time></trkpt><trkpt lat="45.24965782777388" lon="9.26533076958787"><ele>81.0</ele><time>2026-04-11T13:28:19.001Z</time></trkpt><trkpt lat="45.249781861198855" lon="9.265429059363745"><ele>81.0</ele><time>2026-04-11T13:28:20.001Z</time></trkpt><trkpt lat="45.249898830769766" lon="9.265529768703018"><ele>80.75</ele><time>2026-04-11T13:28:21.001Z</time></trkpt><trkpt lat="45.250010724201694" lon="9.2656412731744"><ele>80.5</ele><time>2026-04-11T13:28:22.001Z</time></trkpt><trkpt lat="45.250118805126526" lon="9.265750689433393"><ele>80.25</ele><time>2026-04-11T13:28:23.001Z</time></trkpt><trkpt lat="45.25020406094817" lon="9.265880043635805"><ele>80.0</ele><time>2026-04-11T13:28:24.001Z</time></trkpt><trkpt lat="45.250309217641835" lon="9.265964193578368"><ele>80.0</ele><time>2026-04-11T13:28:25.001Z</time></trkpt><trkpt lat="45.25040842866344" lon="9.266073588680765"><ele>80.0</ele><time>2026-04-11T13:28:26.001Z</time></trkpt><trkpt lat="45.25051247989392" lon="9.266173371259745"><ele>80.0</ele><time>2026-04-11T13:28:27.001Z</time></trkpt><trkpt lat="45.250621450898784" lon="9.266249207782167"><ele>80.0</ele><time>2026-04-11T13:28:28.001Z</time></trkpt><trkpt lat="45.250752433261425" lon="9.26631475917651"><ele>80.66666666666667</ele><time>2026-04-11T13:28:29.001Z</time></trkpt><trkpt lat="45.25088619395909" lon="9.26639869824031"><ele>81.33333333333333</ele><time>2026-04-11T13:28:30.001Z</time></trkpt><trkpt lat="45.251017331653806" lon="9.266505612452047"><ele>82.0</ele><time>2026-04-11T13:28:31.002Z</time></trkpt><trkpt lat="45.251161694485646" lon="9.266628603538138"><ele>82.0</ele><time>2026-04-11T13:28:32.002Z</time></trkpt><trkpt lat="45.25129771670041" lon="9.266745071756624"><ele>82.0</ele><time>2026-04-11T13:28:33.002Z</time></trkpt><trkpt lat="45.251428502610146" lon="9.266854715345694"><ele>82.0</ele><time>2026-04-11T13:28:34.002Z</time></trkpt><trkpt lat="45.25154624624445" lon="9.266956107383432"><ele>82.0</ele><time>2026-04-11T13:28:35.002Z</time></trkpt><trkpt lat="45.251653444277444" lon="9.267053778498372"><ele>82.0</ele><time>2026-04-11T13:28:36.002Z</time></trkpt><trkpt lat="45.25175950889439" lon="9.267146362848724"><ele>82.0</ele><time>2026-04-11T13:28:37.002Z</time></trkpt><trkpt lat="45.25185321609849" lon="9.26723902639137"><ele>82.0</ele><time>2026-04-11T13:28:38.002Z</time></trkpt><trkpt lat="45.25194829852316" lon="9.267317586397336"><ele>82.0</ele><time>2026-04-11T13:28:39.002Z</time></trkpt><trkpt lat="45.252027089356964" lon="9.267388676618319"><ele>82.0</ele><time>2026-04-11T13:28:40.002Z</time></trkpt><trkpt lat="45.25210280892083" lon="9.267464419503337"><ele>81.8</ele><time>2026-04-11T13:28:41.002Z</time></trkpt><trkpt lat="45.252172614249766" lon="9.267522043801698"><ele>81.6</ele><time>2026-04-11T13:28:42.002Z</time></trkpt><trkpt lat="45.25224695593442" lon="9.267587309972487"><ele>81.39999999999999</ele><time>2026-04-11T13:28:43.002Z</time></trkpt><trkpt lat="45.252331661749295" lon="9.267660883830969"><ele>81.19999999999999</ele><time>2026-04-11T13:28:44.002Z</time></trkpt><trkpt lat="45.25240848561465" lon="9.267737877893728"><ele>81.0</ele><time>2026-04-11T13:28:45.002Z</time></trkpt><trkpt lat="45.25249384144821" lon="9.267801061059453"><ele>80.8</ele><time>2026-04-11T13:28:46.002Z</time></trkpt><trkpt lat="45.25258138884626" lon="9.267875179558146"><ele>80.6</ele><time>2026-04-11T13:28:47.002Z</time></trkpt><trkpt lat="45.252663600344924" lon="9.267952281028322"><ele>80.4</ele><time>2026-04-11T13:28:48.002Z</time></trkpt><trkpt lat="45.25275670480325" lon="9.26802192261141"><ele>80.2</ele><time>2026-04-11T13:28:49.002Z</time></trkpt><trkpt lat="45.25283942259332" lon="9.268095178169403"><ele>80.0</ele><time>2026-04-11T13:28:50.002Z</time></trkpt><trkpt lat="45.25291887617497" lon="9.268162633039227"><ele>80.0</ele><time>2026-04-11T13:28:51.002Z</time></trkpt><trkpt lat="45.25300155862279" lon="9.268231791041352"><ele>80.0</ele><time>2026-04-11T13:28:52.002Z</time></trkpt><trkpt lat="45.25308305148254" lon="9.268309802068341"><ele>80.0</ele><time>2026-04-11T13:28:53.002Z</time></trkpt><trkpt lat="45.25317408432285" lon="9.268384299825449"><ele>80.0</ele><time>2026-04-11T13:28:54.002Z</time></trkpt><trkpt lat="45.25326758986007" lon="9.268465307663147"><ele>80.0</ele><time>2026-04-11T13:28:55.002Z</time></trkpt><trkpt lat="45.25336405498889" lon="9.268546800815205"><ele>80.25</ele><time>2026-04-11T13:28:56.002Z</time></trkpt><trkpt lat="45.25346519447882" lon="9.268628690660845"><ele>80.5</ele><time>2026-04-11T13:28:57.002Z</time></trkpt><trkpt lat="45.25357317173233" lon="9.268725543406855"><ele>80.75</ele><time>2026-04-11T13:28:58.002Z</time></trkpt><trkpt lat="45.25369261671473" lon="9.268833829417364"><ele>81.0</ele><time>2026-04-11T13:28:59.002Z</time></trkpt><trkpt lat="45.253828864938065" lon="9.268944262217776"><ele>81.66666666666667</ele><time>2026-04-11T13:29:00.002Z</time></trkpt><trkpt lat="45.25398183731991" lon="9.269077839059578"><ele>82.33333333333334</ele><time>2026-04-11T13:29:01.001Z</time></trkpt><trkpt lat="45.25412724719113" lon="9.269205040499452"><ele>83.0</ele><time>2026-04-11T13:29:02.001Z</time></trkpt><trkpt lat="45.254274336506846" lon="9.269328165677775"><ele>83.0</ele><time>2026-04-11T13:29:03.001Z</time></trkpt><trkpt lat="45.25441267114262" lon="9.269446527330349"><ele>83.0</ele><time>2026-04-11T13:29:04.001Z</time></trkpt><trkpt lat="45.254535530258686" lon="9.269550467333247"><ele>83.0</ele><time>2026-04-11T13:29:05Z</time></trkpt><trkpt lat="45.25466764659608" lon="9.269663354621677"><ele>82.33333333333334</ele><time>2026-04-11T13:29:06Z</time></trkpt><trkpt lat="45.25480796829669" lon="9.269781092169548"><ele>81.66666666666667</ele><time>2026-04-11T13:29:07Z</time></trkpt><trkpt lat="45.25494521635715" lon="9.269899803389846"><ele>81.0</ele><time>2026-04-11T13:29:08Z</time></trkpt><trkpt lat="45.25508557093912" lon="9.270022910772367"><ele>81.0</ele><time>2026-04-11T13:29:09Z</time></trkpt><trkpt lat="45.25522093595458" lon="9.270139993186026"><ele>81.0</ele><time>2026-04-11T13:29:10Z</time></trkpt><trkpt lat="45.25536514128881" lon="9.27026150400919"><ele>81.0</ele><time>2026-04-11T13:29:11Z</time></trkpt><trkpt lat="45.25549084989795" lon="9.270368308859416"><ele>81.0</ele><time>2026-04-11T13:29:12Z</time></trkpt><trkpt lat="45.25560619721601" lon="9.270470432129887"><ele>81.0</ele><time>2026-04-11T13:29:13Z</time></trkpt><trkpt lat="45.25571235495843" lon="9.270569025368308"><ele>81.0</ele><time>2026-04-11T13:29:14Z</time></trkpt><trkpt lat="45.255825173453964" lon="9.270671442646401"><ele>81.0</ele><time>2026-04-11T13:29:15Z</time></trkpt><trkpt lat="45.25593573784535" lon="9.270782064132753"><ele>81.0</ele><time>2026-04-11T13:29:16Z</time></trkpt><trkpt lat="45.25603540055921" lon="9.270916128098847"><ele>81.0</ele><time>2026-04-11T13:29:17Z</time></trkpt><trkpt lat="45.25615469359954" lon="9.271000784466748"><ele>81.0</ele><time>2026-04-11T13:29:18Z</time></trkpt><trkpt lat="45.25628046546823" lon="9.271094128390493"><ele>81.0</ele><time>2026-04-11T13:29:19Z</time></trkpt><trkpt lat="45.25639206779308" lon="9.271187034077613"><ele>80.75</ele><time>2026-04-11T13:29:20Z</time></trkpt><trkpt lat="45.25650629528982" lon="9.271288956577685"><ele>80.5</ele><time>2026-04-11T13:29:21Z</time></trkpt><trkpt lat="45.25661470193821" lon="9.271380368021294"><ele>80.25</ele><time>2026-04-11T13:29:22Z</time></trkpt><trkpt lat="45.25672052452571" lon="9.271468748476927"><ele>80.0</ele><time>2026-04-11T13:29:23Z</time></trkpt><trkpt lat="45.256812428015586" lon="9.271554569393668"><ele>80.0</ele><time>2026-04-11T13:29:24Z</time></trkpt><trkpt lat="45.25690854260095" lon="9.271638528742239"><ele>80.0</ele><time>2026-04-11T13:29:25Z</time></trkpt><trkpt lat="45.257006200978644" lon="9.27171431900676"><ele>80.0</ele><time>2026-04-11T13:29:26Z</time></trkpt><trkpt lat="45.25709282021784" lon="9.271790318188453"><ele>80.0</ele><time>2026-04-11T13:29:27Z</time></trkpt><trkpt lat="45.257188449487806" lon="9.271877399594835"><ele>80.0</ele><time>2026-04-11T13:29:28Z</time></trkpt><trkpt lat="45.257285039764106" lon="9.271988981328171"><ele>80.25</ele><time>2026-04-11T13:29:29.001Z</time></trkpt><trkpt lat="45.25738034736488" lon="9.272079406320117"><ele>80.5</ele><time>2026-04-11T13:29:30.001Z</time></trkpt><trkpt lat="45.257470755539835" lon="9.272165796943481"><ele>80.75</ele><time>2026-04-11T13:29:31.001Z</time></trkpt><trkpt lat="45.257562561651504" lon="9.272234069693718"><ele>81.0</ele><time>2026-04-11T13:29:32.001Z</time></trkpt><trkpt lat="45.257667797970214" lon="9.272324656107292"><ele>81.19999999999999</ele><time>2026-04-11T13:29:33.001Z</time></trkpt><trkpt lat="45.25776664409223" lon="9.272411853558685"><ele>81.39999999999999</ele><time>2026-04-11T13:29:34.001Z</time></trkpt><trkpt lat="45.2578528046163" lon="9.272499422701165"><ele>81.6</ele><time>2026-04-11T13:29:35.001Z</time></trkpt><trkpt lat="45.25793034835353" lon="9.272580639536438"><ele>81.8</ele><time>2026-04-11T13:29:36.001Z</time></trkpt><trkpt lat="45.25800843762837" lon="9.272661263370187"><ele>82.0</ele><time>2026-04-11T13:29:37.001Z</time></trkpt><trkpt lat="45.25809245495231" lon="9.272752109316299"><ele>82.39999999999999</ele><time>2026-04-11T13:29:38.001Z</time></trkpt><trkpt lat="45.258186036537516" lon="9.27284386286042"><ele>82.8</ele><time>2026-04-11T13:29:39.001Z</time></trkpt><trkpt lat="45.25827555213865" lon="9.272927072293708"><ele>83.2</ele><time>2026-04-11T13:29:40.001Z</time></trkpt><trkpt lat="45.258356605087464" lon="9.272993012805564"><ele>83.6</ele><time>2026-04-11T13:29:41.001Z</time></trkpt><trkpt lat="45.25843910372571" lon="9.273044800571736"><ele>84.0</ele><time>2026-04-11T13:29:42.001Z</time></trkpt><trkpt lat="45.25851370148115" lon="9.273090040794168"><ele>83.80000000000001</ele><time>2026-04-11T13:29:43.001Z</time></trkpt><trkpt lat="45.25860324653086" lon="9.273141053195467"><ele>83.60000000000001</ele><time>2026-04-11T13:29:44.001Z</time></trkpt><trkpt lat="45.25868291390074" lon="9.27320481680423"><ele>83.4</ele><time>2026-04-11T13:29:45.001Z</time></trkpt><trkpt lat="45.258776525627496" lon="9.273267060429804"><ele>83.2</ele><time>2026-04-11T13:29:46.001Z</time></trkpt><trkpt lat="45.258875452351134" lon="9.273341145272878"><ele>83.0</ele><time>2026-04-11T13:29:47.001Z</time></trkpt><trkpt lat="45.25897608065584" lon="9.273423640115006"><ele>82.5</ele><time>2026-04-11T13:29:48.001Z</time></trkpt><trkpt lat="45.25908061993732" lon="9.27351544472137"><ele>82.0</ele><time>2026-04-11T13:29:49.001Z</time></trkpt><trkpt lat="45.259185576846804" lon="9.27361220997381"><ele>81.5</ele><time>2026-04-11T13:29:50.001Z</time></trkpt><trkpt lat="45.25928840779076" lon="9.273709863258464"><ele>81.0</ele><time>2026-04-11T13:29:51.001Z</time></trkpt><trkpt lat="45.25938154648735" lon="9.27379986300647"><ele>81.0</ele><time>2026-04-11T13:29:52.001Z</time></trkpt><trkpt lat="45.25946439500515" lon="9.273900759259037"><ele>81.0</ele><time>2026-04-11T13:29:53.001Z</time></trkpt><trkpt lat="45.25958326418867" lon="9.273971919849691"><ele>81.0</ele><time>2026-04-11T13:29:54.001Z</time></trkpt><trkpt lat="45.25969707137369" lon="9.274061386479952"><ele>81.0</ele><time>2026-04-11T13:29:55.001Z</time></trkpt><trkpt lat="45.25981956380207" lon="9.274164421963148"><ele>81.66666666666667</ele><time>2026-04-11T13:29:56.001Z</time></trkpt><trkpt lat="45.25997513839236" lon="9.274290554758663"><ele>82.33333333333334</ele><time>2026-04-11T13:29:57.001Z</time></trkpt><trkpt lat="45.26012149805011" lon="9.274423732198064"><ele>83.0</ele><time>2026-04-11T13:29:58.001Z</time></trkpt><trkpt lat="45.26026450173829" lon="9.274547531699602"><ele>83.0</ele><time>2026-04-11T13:29:59.001Z</time></trkpt><trkpt lat="45.26040139073213" lon="9.27469123126771"><ele>83.0</ele><time>2026-04-11T13:30:00.001Z</time></trkpt><trkpt lat="45.26055057838415" lon="9.274813413878096"><ele>83.0</ele><time>2026-04-11T13:30:01.001Z</time></trkpt><trkpt lat="45.26069598412363" lon="9.27493267449598"><ele>82.66666666666667</ele><time>2026-04-11T13:30:02.001Z</time></trkpt><trkpt lat="45.26083839616832" lon="9.275051642991247"><ele>82.33333333333333</ele><time>2026-04-11T13:30:03.001Z</time></trkpt><trkpt lat="45.260975962622226" lon="9.275167197340922"><ele>82.0</ele><time>2026-04-11T13:30:04.001Z</time></trkpt><trkpt lat="45.261112412184296" lon="9.275284307342709"><ele>82.0</ele><time>2026-04-11T13:30:05.001Z</time></trkpt><trkpt lat="45.26125008630262" lon="9.27540423276393"><ele>82.0</ele><time>2026-04-11T13:30:06.001Z</time></trkpt><trkpt lat="45.26138139885826" lon="9.275518672577265"><ele>82.0</ele><time>2026-04-11T13:30:07.001Z</time></trkpt><trkpt lat="45.26151800676116" lon="9.27563772697329"><ele>81.66666666666666</ele><time>2026-04-11T13:30:08.001Z</time></trkpt><trkpt lat="45.261654328622086" lon="9.275754419325585"><ele>81.33333333333333</ele><time>2026-04-11T13:30:09.001Z</time></trkpt><trkpt lat="45.26178939145251" lon="9.275868934249013"><ele>81.0</ele><time>2026-04-11T13:30:10.001Z</time></trkpt><trkpt lat="45.26191533626444" lon="9.275985373413146"><ele>81.0</ele><time>2026-04-11T13:30:11.001Z</time></trkpt><trkpt lat="45.2620412723851" lon="9.27611253749072"><ele>81.0</ele><time>2026-04-11T13:30:12.001Z</time></trkpt><trkpt lat="45.26215168867823" lon="9.276231004201605"><ele>81.0</ele><time>2026-04-11T13:30:13.001Z</time></trkpt><trkpt lat="45.262246112457724" lon="9.276335018099964"><ele>81.0</ele><time>2026-04-11T13:30:14.001Z</time></trkpt><trkpt lat="45.26232547696879" lon="9.276419708134577"><ele>81.0</ele><time>2026-04-11T13:30:15.001Z</time></trkpt><trkpt lat="45.26239335119435" lon="9.276482304760018"><ele>81.0</ele><time>2026-04-11T13:30:16.001Z</time></trkpt><trkpt lat="45.2624546981461" lon="9.276510281031095"><ele>81.0</ele><time>2026-04-11T13:30:17.001Z</time></trkpt><trkpt lat="45.26252659957651" lon="9.276587991427977"><ele>81.0</ele><time>2026-04-11T13:30:19.001Z</time></trkpt><trkpt lat="45.26260404664338" lon="9.276511270178014"><ele>81.0</ele><time>2026-04-11T13:30:20.001Z</time></trkpt><trkpt lat="45.262669683082244" lon="9.276449665144714"><ele>81.0</ele><time>2026-04-11T13:30:21.001Z</time></trkpt><trkpt lat="45.26273998279089" lon="9.276376881634441"><ele>81.0</ele><time>2026-04-11T13:30:22.001Z</time></trkpt><trkpt lat="45.26282075296168" lon="9.276295710874505"><ele>81.0</ele><time>2026-04-11T13:30:23.001Z</time></trkpt><trkpt lat="45.26290667900421" lon="9.276201738226895"><ele>81.0</ele><time>2026-04-11T13:30:24.001Z</time></trkpt><trkpt lat="45.2629981832016" lon="9.276094018954764"><ele>81.0</ele><time>2026-04-11T13:30:25.001Z</time></trkpt><trkpt lat="45.263092797653286" lon="9.275989130736496"><ele>81.0</ele><time>2026-04-11T13:30:26.001Z</time></trkpt><trkpt lat="45.263192010463044" lon="9.27587925543885"><ele>81.5</ele><time>2026-04-11T13:30:27.001Z</time></trkpt><trkpt lat="45.263292240471976" lon="9.275758301630212"><ele>82.0</ele><time>2026-04-11T13:30:28.001Z</time></trkpt><trkpt lat="45.26339804828262" lon="9.27562807652924"><ele>82.5</ele><time>2026-04-11T13:30:29.001Z</time></trkpt><trkpt lat="45.2635037912824" lon="9.275505175526154"><ele>83.0</ele><time>2026-04-11T13:30:30.001Z</time></trkpt><trkpt lat="45.263611149497976" lon="9.275383334716018"><ele>83.0</ele><time>2026-04-11T13:30:31.001Z</time></trkpt><trkpt lat="45.26371819778772" lon="9.275262876195784"><ele>83.0</ele><time>2026-04-11T13:30:32.001Z</time></trkpt><trkpt lat="45.2638228131999" lon="9.275144594147953"><ele>83.0</ele><time>2026-04-11T13:30:33.001Z</time></trkpt><trkpt lat="45.26393204967765" lon="9.275030060203218"><ele>83.0</ele><time>2026-04-11T13:30:34.001Z</time></trkpt><trkpt lat="45.26406503658661" lon="9.274972959322195"><ele>83.0</ele><time>2026-04-11T13:30:35.001Z</time></trkpt><trkpt lat="45.26419642695074" lon="9.2749228784583"><ele>83.0</ele><time>2026-04-11T13:30:36.001Z</time></trkpt><trkpt lat="45.26433177763173" lon="9.274871176001318"><ele>83.0</ele><time>2026-04-11T13:30:37.001Z</time></trkpt><trkpt lat="45.26445980402154" lon="9.274823204433224"><ele>83.0</ele><time>2026-04-11T13:30:38.001Z</time></trkpt><trkpt lat="45.26457650055363" lon="9.27478544228996"><ele>83.0</ele><time>2026-04-11T13:30:39.001Z</time></trkpt><trkpt lat="45.26467763995959" lon="9.2747385430038"><ele>83.0</ele><time>2026-04-11T13:30:40.001Z</time></trkpt><trkpt lat="45.26477333500127" lon="9.27474544366684"><ele>83.0</ele><time>2026-04-11T13:30:41.001Z</time></trkpt><trkpt lat="45.26486467396206" lon="9.274737628709634"><ele>83.0</ele><time>2026-04-11T13:30:42.002Z</time></trkpt><trkpt lat="45.264943049692306" lon="9.274669532007637"><ele>83.0</ele><time>2026-04-11T13:30:43.002Z</time></trkpt><trkpt lat="45.265017796964216" lon="9.274625505657214"><ele>83.2</ele><time>2026-04-11T13:30:44.002Z</time></trkpt><trkpt lat="45.26509432098889" lon="9.2746275900803"><ele>83.4</ele><time>2026-04-11T13:30:45.002Z</time></trkpt><trkpt lat="45.26517501965794" lon="9.27468350122221"><ele>83.60000000000001</ele><time>2026-04-11T13:30:46.002Z</time></trkpt><trkpt lat="45.26524838907242" lon="9.274766093434062"><ele>83.80000000000001</ele><time>2026-04-11T13:30:47.002Z</time></trkpt><trkpt lat="45.2653227952208" lon="9.274846665649532"><ele>84.0</ele><time>2026-04-11T13:30:48.002Z</time></trkpt><trkpt lat="45.265399476444735" lon="9.274929830406423"><ele>84.0</ele><time>2026-04-11T13:30:49.002Z</time></trkpt><trkpt lat="45.2654849371095" lon="9.275004329546064"><ele>84.0</ele><time>2026-04-11T13:30:50.002Z</time></trkpt><trkpt lat="45.265565095924735" lon="9.275083248180207"><ele>84.0</ele><time>2026-04-11T13:30:51.002Z</time></trkpt><trkpt lat="45.26564507960136" lon="9.275171642966683"><ele>84.0</ele><time>2026-04-11T13:30:52.002Z</time></trkpt><trkpt lat="45.26571270484311" lon="9.275256459100712"><ele>84.0</ele><time>2026-04-11T13:30:53.002Z</time></trkpt><trkpt lat="45.2657721982714" lon="9.275314714038581"><ele>84.0</ele><time>2026-04-11T13:30:54.002Z</time></trkpt><trkpt lat="45.26586855523195" lon="9.275359480672769"><ele>84.0</ele><time>2026-04-11T13:30:56.002Z</time></trkpt><trkpt lat="45.26597047970301" lon="9.275230584717015"><ele>84.0</ele><time>2026-04-11T13:30:57.002Z</time></trkpt><trkpt lat="45.26604459706221" lon="9.275170767350167"><ele>84.0</ele><time>2026-04-11T13:30:58.002Z</time></trkpt><trkpt lat="45.26611777253183" lon="9.275089274207641"><ele>84.0</ele><time>2026-04-11T13:30:59.002Z</time></trkpt><trkpt lat="45.26619870036092" lon="9.274994002869118"><ele>84.0</ele><time>2026-04-11T13:31:00.002Z</time></trkpt><trkpt lat="45.26628853428035" lon="9.274896781792439"><ele>84.0</ele><time>2026-04-11T13:31:01.002Z</time></trkpt><trkpt lat="45.26638845351403" lon="9.274813681423627"><ele>84.0</ele><time>2026-04-11T13:31:02.002Z</time></trkpt><trkpt lat="45.26649087960035" lon="9.27473444230209"><ele>84.0</ele><time>2026-04-11T13:31:03.002Z</time></trkpt><trkpt lat="45.2666119433275" lon="9.274646004157953"><ele>83.75</ele><time>2026-04-11T13:31:04.002Z</time></trkpt><trkpt lat="45.26674010412732" lon="9.274580044127251"><ele>83.5</ele><time>2026-04-11T13:31:05.002Z</time></trkpt><trkpt lat="45.26686623428591" lon="9.274523029403792"><ele>83.25</ele><time>2026-04-11T13:31:06.002Z</time></trkpt><trkpt lat="45.26698205721292" lon="9.274474587859665"><ele>83.0</ele><time>2026-04-11T13:31:07Z</time></trkpt><trkpt lat="45.26710462417789" lon="9.274423325680829"><ele>83.0</ele><time>2026-04-11T13:31:08Z</time></trkpt><trkpt lat="45.2672191654353" lon="9.274350491873843"><ele>83.0</ele><time>2026-04-11T13:31:09Z</time></trkpt><trkpt lat="45.267339362825126" lon="9.274296116353137"><ele>83.0</ele><time>2026-04-11T13:31:10Z</time></trkpt><trkpt lat="45.26745998817771" lon="9.27422641409272"><ele>83.0</ele><time>2026-04-11T13:31:11Z</time></trkpt><trkpt lat="45.2675810092342" lon="9.274141885049609"><ele>83.0</ele><time>2026-04-11T13:31:12Z</time></trkpt><trkpt lat="45.26770028358313" lon="9.274042479636213"><ele>83.0</ele><time>2026-04-11T13:31:13Z</time></trkpt><trkpt lat="45.26782589122476" lon="9.273958586314688"><ele>83.0</ele><time>2026-04-11T13:31:14Z</time></trkpt><trkpt lat="45.26793035748285" lon="9.273854291622866"><ele>83.0</ele><time>2026-04-11T13:31:15Z</time></trkpt><trkpt lat="45.26801763181441" lon="9.273753756250034"><ele>83.0</ele><time>2026-04-11T13:31:16Z</time></trkpt><trkpt lat="45.26808470267163" lon="9.273676135765001"><ele>83.0</ele><time>2026-04-11T13:31:17Z</time></trkpt><trkpt lat="45.26814967845608" lon="9.27361355936752"><ele>83.0</ele><time>2026-04-11T13:31:18Z</time></trkpt><trkpt lat="45.26822680229086" lon="9.273577816562302"><ele>83.0</ele><time>2026-04-11T13:31:19Z</time></trkpt><trkpt lat="45.26830855186346" lon="9.273663316169184"><ele>83.0</ele><time>2026-04-11T13:31:20Z</time></trkpt><trkpt lat="45.26842593649949" lon="9.273523368896043"><ele>82.66666666666667</ele><time>2026-04-11T13:31:21Z</time></trkpt><trkpt lat="45.26855784798043" lon="9.273412232908527"><ele>82.33333333333333</ele><time>2026-04-11T13:31:22Z</time></trkpt><trkpt lat="45.26869799210467" lon="9.27329019623345"><ele>82.0</ele><time>2026-04-11T13:31:23Z</time></trkpt><trkpt lat="45.26884254900389" lon="9.273164444757828"><ele>81.75</ele><time>2026-04-11T13:31:24Z</time></trkpt><trkpt lat="45.26896175106897" lon="9.273048970337596"><ele>81.5</ele><time>2026-04-11T13:31:25Z</time></trkpt><trkpt lat="45.26906758469695" lon="9.272955831631094"><ele>81.25</ele><time>2026-04-11T13:31:26Z</time></trkpt><trkpt lat="45.26917979607582" lon="9.272872990690486"><ele>81.0</ele><time>2026-04-11T13:31:27Z</time></trkpt><trkpt lat="45.26929964168588" lon="9.272787105397395"><ele>81.0</ele><time>2026-04-11T13:31:28Z</time></trkpt><trkpt lat="45.26942665034025" lon="9.272703339851587"><ele>81.0</ele><time>2026-04-11T13:31:29Z</time></trkpt><trkpt lat="45.26953962873512" lon="9.272631922228026"><ele>81.0</ele><time>2026-04-11T13:31:30Z</time></trkpt><trkpt lat="45.269624766275946" lon="9.272567801694107"><ele>81.0</ele><time>2026-04-11T13:31:31Z</time></trkpt><trkpt lat="45.269673711141614" lon="9.272482161864007"><ele>81.0</ele><time>2026-04-11T13:31:32Z</time></trkpt><trkpt lat="45.26969734209259" lon="9.272356162926938"><ele>81.0</ele><time>2026-04-11T13:31:33Z</time></trkpt><trkpt lat="45.269700288922095" lon="9.272159856317428"><ele>81.0</ele><time>2026-04-11T13:31:34Z</time></trkpt><trkpt lat="45.26969173551878" lon="9.271935839021943"><ele>81.0</ele><time>2026-04-11T13:31:35Z</time></trkpt><trkpt lat="45.26968206654673" lon="9.271701989304882"><ele>81.0</ele><time>2026-04-11T13:31:36Z</time></trkpt><trkpt lat="45.269687033277314" lon="9.271456432512789"><ele>81.0</ele><time>2026-04-11T13:31:37Z</time></trkpt><trkpt lat="45.26966708759759" lon="9.271257000330893"><ele>81.0</ele><time>2026-04-11T13:31:38Z</time></trkpt><trkpt lat="45.269669437531896" lon="9.271094206375562"><ele>81.0</ele><time>2026-04-11T13:31:39Z</time></trkpt><trkpt lat="45.26970245942851" lon="9.270953906097384"><ele>80.66666666666667</ele><time>2026-04-11T13:31:40Z</time></trkpt><trkpt lat="45.26979734953669" lon="9.27084059227333"><ele>80.33333333333334</ele><time>2026-04-11T13:31:41Z</time></trkpt><trkpt lat="45.269880987292424" lon="9.270649690809435"><ele>80.0</ele><time>2026-04-11T13:31:42Z</time></trkpt><trkpt lat="45.26998232551687" lon="9.270451114148415"><ele>80.0</ele><time>2026-04-11T13:31:43Z</time></trkpt><trkpt lat="45.270102827315256" lon="9.27024026202394"><ele>80.0</ele><time>2026-04-11T13:31:44Z</time></trkpt><trkpt lat="45.27022647157802" lon="9.27002456085772"><ele>80.0</ele><time>2026-04-11T13:31:45Z</time></trkpt><trkpt lat="45.270344369719844" lon="9.269821830752813"><ele>80.33333333333334</ele><time>2026-04-11T13:31:46Z</time></trkpt><trkpt lat="45.270453290488874" lon="9.269642538523147"><ele>80.66666666666667</ele><time>2026-04-11T13:31:47Z</time></trkpt><trkpt lat="45.270560809440006" lon="9.269490385405444"><ele>81.0</ele><time>2026-04-11T13:31:48Z</time></trkpt><trkpt lat="45.27069362654316" lon="9.269374126155723"><ele>81.0</ele><time>2026-04-11T13:31:49Z</time></trkpt><trkpt lat="45.27085387114104" lon="9.269260027241868"><ele>81.0</ele><time>2026-04-11T13:31:50Z</time></trkpt><trkpt lat="45.27102970604889" lon="9.269109981637813"><ele>81.0</ele><time>2026-04-11T13:31:51.001Z</time></trkpt><trkpt lat="45.27122652015673" lon="9.268969859330678"><ele>80.0</ele><time>2026-04-11T13:31:52.001Z</time></trkpt><trkpt lat="45.271445637576925" lon="9.268837684602929"><ele>79.0</ele><time>2026-04-11T13:31:53.001Z</time></trkpt><trkpt lat="45.271643840415315" lon="9.268673335283365"><ele>79.0</ele><time>2026-04-11T13:31:54.001Z</time></trkpt><trkpt lat="45.271822108498434" lon="9.268555928998937"><ele>79.0</ele><time>2026-04-11T13:31:55.001Z</time></trkpt><trkpt lat="45.271939917613196" lon="9.268480164927224"><ele>79.0</ele><time>2026-04-11T13:31:56.001Z</time></trkpt><trkpt lat="45.272039242297346" lon="9.268421085155415"><ele>79.0</ele><time>2026-04-11T13:31:57.001Z</time></trkpt><trkpt lat="45.27211238880639" lon="9.26839263883465"><ele>79.0</ele><time>2026-04-11T13:31:58.001Z</time></trkpt><trkpt lat="45.27217476581144" lon="9.268347865667108"><ele>79.0</ele><time>2026-04-11T13:32:00.001Z</time></trkpt><trkpt lat="45.272095743443096" lon="9.268122362213132"><ele>79.0</ele><time>2026-04-11T13:32:02.001Z</time></trkpt><trkpt lat="45.27206077607397" lon="9.268044905354893"><ele>79.0</ele><time>2026-04-11T13:32:03.001Z</time></trkpt><trkpt lat="45.272032683554" lon="9.267941138448677"><ele>79.0</ele><time>2026-04-11T13:32:04.001Z</time></trkpt><trkpt lat="45.27200334280779" lon="9.267823941442614"><ele>79.0</ele><time>2026-04-11T13:32:05.001Z</time></trkpt><trkpt lat="45.271973860077175" lon="9.267697812107333"><ele>79.0</ele><time>2026-04-11T13:32:06.001Z</time></trkpt><trkpt lat="45.271946874960264" lon="9.267583922770724"><ele>79.0</ele><time>2026-04-11T13:32:07.001Z</time></trkpt><trkpt lat="45.27191231887533" lon="9.267457425983503"><ele>79.0</ele><time>2026-04-11T13:32:09.001Z</time></trkpt><trkpt lat="45.271918647762924" lon="9.267552752388847"><ele>79.0</ele><time>2026-04-11T13:32:16.001Z</time></trkpt><trkpt lat="45.27195773279783" lon="9.26767986111991"><ele>79.0</ele><time>2026-04-11T13:32:17.001Z</time></trkpt><trkpt lat="45.27198544886314" lon="9.26784134780455"><ele>79.0</ele><time>2026-04-11T13:32:18.001Z</time></trkpt><trkpt lat="45.27203783491077" lon="9.268007568851829"><ele>79.0</ele><time>2026-04-11T13:32:19.001Z</time></trkpt><trkpt lat="45.27206901904514" lon="9.268131408691811"><ele>79.0</ele><time>2026-04-11T13:32:20.001Z</time></trkpt><trkpt lat="45.27209976666298" lon="9.268249106733466"><ele>79.0</ele><time>2026-04-11T13:32:22.001Z</time></trkpt><trkpt lat="45.27219320831531" lon="9.268300739235327"><ele>79.0</ele><time>2026-04-11T13:32:25.001Z</time></trkpt><trkpt lat="45.27228336062428" lon="9.268240095283277"><ele>79.25</ele><time>2026-04-11T13:32:26.001Z</time></trkpt><trkpt lat="45.272378072569374" lon="9.268157106714957"><ele>79.5</ele><time>2026-04-11T13:32:27.001Z</time></trkpt><trkpt lat="45.27251967524514" lon="9.268076374603035"><ele>79.75</ele><time>2026-04-11T13:32:28.001Z</time></trkpt><trkpt lat="45.272662036419746" lon="9.267962955789043"><ele>80.0</ele><time>2026-04-11T13:32:29.001Z</time></trkpt><trkpt lat="45.272848980033054" lon="9.267890413435062"><ele>80.0</ele><time>2026-04-11T13:32:30.001Z</time></trkpt><trkpt lat="45.27301613592547" lon="9.267777701393896"><ele>80.0</ele><time>2026-04-11T13:32:31.001Z</time></trkpt><trkpt lat="45.27316436856141" lon="9.267722759285501"><ele>80.0</ele><time>2026-04-11T13:32:32.001Z</time></trkpt><trkpt lat="45.27329083473702" lon="9.267652332561438"><ele>80.4</ele><time>2026-04-11T13:32:33.001Z</time></trkpt><trkpt lat="45.27339856514923" lon="9.267588246894931"><ele>80.8</ele><time>2026-04-11T13:32:34.001Z</time></trkpt><trkpt lat="45.273481140561266" lon="9.267550976389371"><ele>81.19999999999999</ele><time>2026-04-11T13:32:35.001Z</time></trkpt><trkpt lat="45.27355923229177" lon="9.267532642379908"><ele>81.6</ele><time>2026-04-11T13:32:36.001Z</time></trkpt><trkpt lat="45.27363550503956" lon="9.267595135218913"><ele>82.0</ele><time>2026-04-11T13:32:37.001Z</time></trkpt><trkpt lat="45.27365461841042" lon="9.267750336559171"><ele>82.0</ele><time>2026-04-11T13:32:38.001Z</time></trkpt><trkpt lat="45.273691556126884" lon="9.26790969674179"><ele>82.0</ele><time>2026-04-11T13:32:39.001Z</time></trkpt><trkpt lat="45.27375071605785" lon="9.268124285741218"><ele>82.0</ele><time>2026-04-11T13:32:40.001Z</time></trkpt><trkpt lat="45.273832180676045" lon="9.2683656034449"><ele>82.0</ele><time>2026-04-11T13:32:41.001Z</time></trkpt><trkpt lat="45.27391207898071" lon="9.268632372116594"><ele>82.0</ele><time>2026-04-11T13:32:42.001Z</time></trkpt><trkpt lat="45.27398339001296" lon="9.268865921104235"><ele>82.0</ele><time>2026-04-11T13:32:43.001Z</time></trkpt><trkpt lat="45.27405047772187" lon="9.269070281638307"><ele>81.66666666666666</ele><time>2026-04-11T13:32:44.001Z</time></trkpt><trkpt lat="45.27412582850496" lon="9.269261671320253"><ele>81.33333333333333</ele><time>2026-04-11T13:32:45.001Z</time></trkpt><trkpt lat="45.27420434058032" lon="9.269449130835124"><ele>81.0</ele><time>2026-04-11T13:32:46.001Z</time></trkpt><trkpt lat="45.27434481218251" lon="9.269584539316371"><ele>81.0</ele><time>2026-04-11T13:32:47.001Z</time></trkpt><trkpt lat="45.27451834226705" lon="9.269711866650395"><ele>81.0</ele><time>2026-04-11T13:32:48.001Z</time></trkpt><trkpt lat="45.27470279369729" lon="9.269870355312847"><ele>81.0</ele><time>2026-04-11T13:32:49.001Z</time></trkpt><trkpt lat="45.274882866695535" lon="9.270001108087001"><ele>81.0</ele><time>2026-04-11T13:32:50.001Z</time></trkpt><trkpt lat="45.27503286559586" lon="9.270129402957197"><ele>81.0</ele><time>2026-04-11T13:32:51.001Z</time></trkpt><trkpt lat="45.275145147670806" lon="9.270270012816598"><ele>81.0</ele><time>2026-04-11T13:32:52.001Z</time></trkpt><trkpt lat="45.275217458190326" lon="9.270448973912782"><ele>81.0</ele><time>2026-04-11T13:32:53.001Z</time></trkpt><trkpt lat="45.27529191004762" lon="9.2706872190287"><ele>81.0</ele><time>2026-04-11T13:32:54.001Z</time></trkpt><trkpt lat="45.2753886100433" lon="9.270940049810775"><ele>81.0</ele><time>2026-04-11T13:32:55.001Z</time></trkpt><trkpt lat="45.27549500546589" lon="9.271214042994705"><ele>81.0</ele><time>2026-04-11T13:32:56.001Z</time></trkpt><trkpt lat="45.27559982103201" lon="9.2714907319072"><ele>81.0</ele><time>2026-04-11T13:32:57.001Z</time></trkpt><trkpt lat="45.2757204274476" lon="9.271751991809403"><ele>81.0</ele><time>2026-04-11T13:32:58.001Z</time></trkpt><trkpt lat="45.275827068843434" lon="9.271996668209603"><ele>81.0</ele><time>2026-04-11T13:32:59.001Z</time></trkpt><trkpt lat="45.27591155261171" lon="9.272200115246685"><ele>81.0</ele><time>2026-04-11T13:33:00.001Z</time></trkpt><trkpt lat="45.27599572118151" lon="9.272348736927308"><ele>81.0</ele><time>2026-04-11T13:33:01.001Z</time></trkpt><trkpt lat="45.276063553473804" lon="9.272461928661787"><ele>81.0</ele><time>2026-04-11T13:33:02.002Z</time></trkpt><trkpt lat="45.276167163106926" lon="9.27254182260044"><ele>81.0</ele><time>2026-04-11T13:33:03.002Z</time></trkpt><trkpt lat="45.27630860173662" lon="9.272578541778207"><ele>81.0</ele><time>2026-04-11T13:33:04.002Z</time></trkpt><trkpt lat="45.27647659668143" lon="9.27259398416711"><ele>81.0</ele><time>2026-04-11T13:33:05.002Z</time></trkpt><trkpt lat="45.27665149348348" lon="9.27259974903469"><ele>81.75</ele><time>2026-04-11T13:33:06.002Z</time></trkpt><trkpt lat="45.276815651202796" lon="9.272590524555522"><ele>82.5</ele><time>2026-04-11T13:33:07.002Z</time></trkpt><trkpt lat="45.27695190587836" lon="9.272600166466976"><ele>83.25</ele><time>2026-04-11T13:33:08.002Z</time></trkpt><trkpt lat="45.27707601667186" lon="9.27259079652497"><ele>84.0</ele><time>2026-04-11T13:33:09.002Z</time></trkpt><trkpt lat="45.27719423885322" lon="9.2725846589011"><ele>83.75</ele><time>2026-04-11T13:33:10.002Z</time></trkpt><trkpt lat="45.27730943553958" lon="9.272574069939154"><ele>83.5</ele><time>2026-04-11T13:33:11.002Z</time></trkpt><trkpt lat="45.277427316007206" lon="9.27262730674564"><ele>83.25</ele><time>2026-04-11T13:33:12.002Z</time></trkpt><trkpt lat="45.27754937571163" lon="9.272696688114346"><ele>83.0</ele><time>2026-04-11T13:33:13Z</time></trkpt><trkpt lat="45.2776730961074" lon="9.272776068937107"><ele>83.0</ele><time>2026-04-11T13:33:14Z</time></trkpt><trkpt lat="45.27780243450636" lon="9.272843569547026"><ele>83.0</ele><time>2026-04-11T13:33:15Z</time></trkpt><trkpt lat="45.277956055237844" lon="9.272878444590843"><ele>83.0</ele><time>2026-04-11T13:33:16Z</time></trkpt><trkpt lat="45.27811657453585" lon="9.272887358037508"><ele>83.25</ele><time>2026-04-11T13:33:17Z</time></trkpt><trkpt lat="45.27825837782923" lon="9.272891511691505"><ele>83.5</ele><time>2026-04-11T13:33:18Z</time></trkpt><trkpt lat="45.27838769487723" lon="9.272901994378737"><ele>83.75</ele><time>2026-04-11T13:33:19Z</time></trkpt><trkpt lat="45.278498386522806" lon="9.272915330267816"><ele>84.0</ele><time>2026-04-11T13:33:20Z</time></trkpt><trkpt lat="45.278588281120555" lon="9.27293248720769"><ele>84.0</ele><time>2026-04-11T13:33:21Z</time></trkpt><trkpt lat="45.2786650462034" lon="9.272937225618682"><ele>84.0</ele><time>2026-04-11T13:33:22Z</time></trkpt><trkpt lat="45.278749243875346" lon="9.272948931179576"><ele>84.0</ele><time>2026-04-11T13:33:23Z</time></trkpt><trkpt lat="45.278833723760506" lon="9.272965586495829"><ele>84.0</ele><time>2026-04-11T13:33:24Z</time></trkpt><trkpt lat="45.278921296522306" lon="9.27301271232014"><ele>84.0</ele><time>2026-04-11T13:33:25Z</time></trkpt><trkpt lat="45.27901538813138" lon="9.273086784096993"><ele>84.0</ele><time>2026-04-11T13:33:26Z</time></trkpt><trkpt lat="45.27910762310503" lon="9.273172555190884"><ele>83.80000000000001</ele><time>2026-04-11T13:33:27Z</time></trkpt><trkpt lat="45.27919917897966" lon="9.273261961842916"><ele>83.60000000000001</ele><time>2026-04-11T13:33:28Z</time></trkpt><trkpt lat="45.279287062422476" lon="9.273356703637553"><ele>83.4</ele><time>2026-04-11T13:33:29Z</time></trkpt><trkpt lat="45.279363643439176" lon="9.27346791710946"><ele>83.2</ele><time>2026-04-11T13:33:30Z</time></trkpt><trkpt lat="45.27943891163887" lon="9.273583556381164"><ele>83.0</ele><time>2026-04-11T13:33:31Z</time></trkpt><trkpt lat="45.279521152991435" lon="9.273688283154646"><ele>83.0</ele><time>2026-04-11T13:33:32Z</time></trkpt><trkpt lat="45.27959895006918" lon="9.273793327605455"><ele>83.0</ele><time>2026-04-11T13:33:33Z</time></trkpt><trkpt lat="45.27967450161261" lon="9.273892520815114"><ele>83.0</ele><time>2026-04-11T13:33:34Z</time></trkpt><trkpt lat="45.27974161342345" lon="9.274008167788805"><ele>83.0</ele><time>2026-04-11T13:33:35Z</time></trkpt><trkpt lat="45.27979271499964" lon="9.274108196415076"><ele>83.0</ele><time>2026-04-11T13:33:36Z</time></trkpt><trkpt lat="45.27984055919606" lon="9.274229838722169"><ele>83.0</ele><time>2026-04-11T13:33:37Z</time></trkpt><trkpt lat="45.27989431188507" lon="9.274350071432533"><ele>83.0</ele><time>2026-04-11T13:33:38Z</time></trkpt><trkpt lat="45.279943402613725" lon="9.274466013053573"><ele>83.0</ele><time>2026-04-11T13:33:39Z</time></trkpt><trkpt lat="45.280003929043126" lon="9.274577648766224"><ele>83.0</ele><time>2026-04-11T13:33:40Z</time></trkpt><trkpt lat="45.28007199108277" lon="9.2746796009745"><ele>83.0</ele><time>2026-04-11T13:33:41Z</time></trkpt><trkpt lat="45.28012504654864" lon="9.274799526338994"><ele>82.80000000000001</ele><time>2026-04-11T13:33:42Z</time></trkpt><trkpt lat="45.28020104115595" lon="9.274892261571173"><ele>82.6</ele><time>2026-04-11T13:33:43Z</time></trkpt><trkpt lat="45.28024287272824" lon="9.275021013092534"><ele>82.4</ele><time>2026-04-11T13:33:44Z</time></trkpt><trkpt lat="45.280304668078415" lon="9.275131896348984"><ele>82.19999999999999</ele><time>2026-04-11T13:33:45Z</time></trkpt><trkpt lat="45.280351379347906" lon="9.275257181878477"><ele>82.0</ele><time>2026-04-11T13:33:46Z</time></trkpt><trkpt lat="45.280397546412715" lon="9.275384816802774"><ele>82.0</ele><time>2026-04-11T13:33:47Z</time></trkpt><trkpt lat="45.28044022828338" lon="9.275517276712005"><ele>82.0</ele><time>2026-04-11T13:33:48Z</time></trkpt><trkpt lat="45.280475743310724" lon="9.275656649425112"><ele>82.0</ele><time>2026-04-11T13:33:49Z</time></trkpt><trkpt lat="45.28051136882629" lon="9.275792260557138"><ele>82.0</ele><time>2026-04-11T13:33:50Z</time></trkpt><trkpt lat="45.28054072859328" lon="9.275922354802272"><ele>82.0</ele><time>2026-04-11T13:33:51Z</time></trkpt><trkpt lat="45.2805700723837" lon="9.2760375947482"><ele>82.19999999999999</ele><time>2026-04-11T13:33:52Z</time></trkpt><trkpt lat="45.28059747544946" lon="9.276133898572619"><ele>82.4</ele><time>2026-04-11T13:33:53Z</time></trkpt><trkpt lat="45.28069968695009" lon="9.276231801600067"><ele>82.6</ele><time>2026-04-11T13:33:55Z</time></trkpt><trkpt lat="45.28077909399052" lon="9.276203902020782"><ele>82.80000000000001</ele><time>2026-04-11T13:33:56Z</time></trkpt><trkpt lat="45.280877050353936" lon="9.27613475688334"><ele>83.0</ele><time>2026-04-11T13:33:57Z</time></trkpt><trkpt lat="45.280975249857406" lon="9.27608519425218"><ele>83.2</ele><time>2026-04-11T13:33:58Z</time></trkpt><trkpt lat="45.28105609240089" lon="9.276039854848134"><ele>83.4</ele><time>2026-04-11T13:33:59Z</time></trkpt><trkpt lat="45.281133762001346" lon="9.276008387588282"><ele>83.60000000000001</ele><time>2026-04-11T13:34:00Z</time></trkpt><trkpt lat="45.281200737458434" lon="9.275947461792647"><ele>83.80000000000001</ele><time>2026-04-11T13:34:01Z</time></trkpt><trkpt lat="45.281325936359565" lon="9.275928007325371"><ele>84.0</ele><time>2026-04-11T13:34:03Z</time></trkpt><trkpt lat="45.281415202947805" lon="9.275999839939958"><ele>83.75</ele><time>2026-04-11T13:34:04Z</time></trkpt><trkpt lat="45.28151254013081" lon="9.276108005922906"><ele>83.5</ele><time>2026-04-11T13:34:05.001Z</time></trkpt><trkpt lat="45.28162814325486" lon="9.276226761252152"><ele>83.25</ele><time>2026-04-11T13:34:06.001Z</time></trkpt><trkpt lat="45.28175289907344" lon="9.276347913363615"><ele>83.0</ele><time>2026-04-11T13:34:07.001Z</time></trkpt><trkpt lat="45.28186312667172" lon="9.276452349134345"><ele>82.75</ele><time>2026-04-11T13:34:08.001Z</time></trkpt><trkpt lat="45.281964568172164" lon="9.276550472758597"><ele>82.5</ele><time>2026-04-11T13:34:09.001Z</time></trkpt><trkpt lat="45.28204007742684" lon="9.276647515291767"><ele>82.25</ele><time>2026-04-11T13:34:10.001Z</time></trkpt><trkpt lat="45.28209966840719" lon="9.276806323128962"><ele>82.0</ele><time>2026-04-11T13:34:11.001Z</time></trkpt><trkpt lat="45.28218566602537" lon="9.276982154216292"><ele>82.0</ele><time>2026-04-11T13:34:12.001Z</time></trkpt><trkpt lat="45.282251765759746" lon="9.277167525381076"><ele>82.0</ele><time>2026-04-11T13:34:13.001Z</time></trkpt><trkpt lat="45.28231362390057" lon="9.27731493135661"><ele>82.0</ele><time>2026-04-11T13:34:14.001Z</time></trkpt><trkpt lat="45.282355768757604" lon="9.277424192680298"><ele>82.0</ele><time>2026-04-11T13:34:15.001Z</time></trkpt><trkpt lat="45.28238806290104" lon="9.277514001835534"><ele>82.0</ele><time>2026-04-11T13:34:17.001Z</time></trkpt><trkpt lat="45.28242328582886" lon="9.27761821584471"><ele>81.0</ele><time>2026-04-11T13:34:20.001Z</time></trkpt><trkpt lat="45.28257474917914" lon="9.277573290659433"><ele>80.0</ele><time>2026-04-11T13:34:21.001Z</time></trkpt><trkpt lat="45.28268236279253" lon="9.277573642382624"><ele>79.0</ele><time>2026-04-11T13:34:23.001Z</time></trkpt><trkpt lat="45.282793848460464" lon="9.277531972788317"><ele>78.0</ele><time>2026-04-11T13:34:25.001Z</time></trkpt><trkpt lat="45.282898907982776" lon="9.277468600950437"><ele>78.0</ele><time>2026-04-11T13:34:27.001Z</time></trkpt><trkpt lat="45.28298276881245" lon="9.277406485943176"><ele>78.0</ele><time>2026-04-11T13:34:28.001Z</time></trkpt><trkpt lat="45.28308477266516" lon="9.277322933015087"><ele>78.0</ele><time>2026-04-11T13:34:29.001Z</time></trkpt><trkpt lat="45.28318290390903" lon="9.277238479397198"><ele>78.0</ele><time>2026-04-11T13:34:30.001Z</time></trkpt><trkpt lat="45.283279770322366" lon="9.277143706750687"><ele>78.0</ele><time>2026-04-11T13:34:31.001Z</time></trkpt><trkpt lat="45.28338940607969" lon="9.277082020357826"><ele>77.25</ele><time>2026-04-11T13:34:32.001Z</time></trkpt><trkpt lat="45.28351052944724" lon="9.277014997569196"><ele>76.5</ele><time>2026-04-11T13:34:33.001Z</time></trkpt><trkpt lat="45.2836461114171" lon="9.276958442372209"><ele>75.75</ele><time>2026-04-11T13:34:34.001Z</time></trkpt><trkpt lat="45.283769274491675" lon="9.276875149828752"><ele>75.0</ele><time>2026-04-11T13:34:35.001Z</time></trkpt><trkpt lat="45.28388670218641" lon="9.27677210663479"><ele>75.33333333333333</ele><time>2026-04-11T13:34:36.001Z</time></trkpt><trkpt lat="45.28401835918129" lon="9.276635976753807"><ele>75.66666666666666</ele><time>2026-04-11T13:34:37.001Z</time></trkpt><trkpt lat="45.28414085915159" lon="9.276500486756131"><ele>76.0</ele><time>2026-04-11T13:34:38.001Z</time></trkpt><trkpt lat="45.28426333999442" lon="9.276367799968963"><ele>76.0</ele><time>2026-04-11T13:34:39.001Z</time></trkpt><trkpt lat="45.284388097935775" lon="9.276233627758812"><ele>76.0</ele><time>2026-04-11T13:34:40.001Z</time></trkpt><trkpt lat="45.28451218134071" lon="9.276100618650279"><ele>76.0</ele><time>2026-04-11T13:34:41.001Z</time></trkpt><trkpt lat="45.28463585778528" lon="9.275954200274722"><ele>77.0</ele><time>2026-04-11T13:34:42.001Z</time></trkpt><trkpt lat="45.28476588345238" lon="9.27581571108194"><ele>78.0</ele><time>2026-04-11T13:34:43.001Z</time></trkpt><trkpt lat="45.28489511764148" lon="9.275673070300932"><ele>79.0</ele><time>2026-04-11T13:34:44.001Z</time></trkpt><trkpt lat="45.28502268195315" lon="9.275536001158976"><ele>79.0</ele><time>2026-04-11T13:34:45.001Z</time></trkpt><trkpt lat="45.28515089279055" lon="9.275394880089333"><ele>79.0</ele><time>2026-04-11T13:34:46.001Z</time></trkpt><trkpt lat="45.285268414674725" lon="9.27526278264182"><ele>79.0</ele><time>2026-04-11T13:34:47.001Z</time></trkpt><trkpt lat="45.28535723481889" lon="9.27516394731609"><ele>79.0</ele><time>2026-04-11T13:34:48.001Z</time></trkpt><trkpt lat="45.285420051062054" lon="9.275081674311346"><ele>79.0</ele><time>2026-04-11T13:34:49.001Z</time></trkpt><trkpt lat="45.28546454260081" lon="9.274992620187342"><ele>79.0</ele><time>2026-04-11T13:34:50.001Z</time></trkpt><trkpt lat="45.28549733399398" lon="9.274878212034846"><ele>79.0</ele><time>2026-04-11T13:34:51.001Z</time></trkpt><trkpt lat="45.285517068816134" lon="9.274738996002627"><ele>79.0</ele><time>2026-04-11T13:34:52.001Z</time></trkpt><trkpt lat="45.28551938540135" lon="9.27457458912639"><ele>79.0</ele><time>2026-04-11T13:34:53.001Z</time></trkpt><trkpt lat="45.28551366832375" lon="9.274371299533211"><ele>78.8</ele><time>2026-04-11T13:34:54.001Z</time></trkpt><trkpt lat="45.2855129507411" lon="9.27417817061992"><ele>78.60000000000001</ele><time>2026-04-11T13:34:55.001Z</time></trkpt><trkpt lat="45.285519514728634" lon="9.274026142495366"><ele>78.4</ele><time>2026-04-11T13:34:56.001Z</time></trkpt><trkpt lat="45.285533737974" lon="9.273897574542397"><ele>78.2</ele><time>2026-04-11T13:34:57.001Z</time></trkpt><trkpt lat="45.2855620637961" lon="9.273773973252817"><ele>78.0</ele><time>2026-04-11T13:34:58.001Z</time></trkpt><trkpt lat="45.2856004163574" lon="9.27366568939804"><ele>78.0</ele><time>2026-04-11T13:34:59.001Z</time></trkpt><trkpt lat="45.285659226848885" lon="9.273570082118628"><ele>78.0</ele><time>2026-04-11T13:35:00.001Z</time></trkpt><trkpt lat="45.28574659636812" lon="9.273514571891024"><ele>78.0</ele><time>2026-04-11T13:35:01.001Z</time></trkpt><trkpt lat="45.28583623356037" lon="9.273444646835474"><ele>78.0</ele><time>2026-04-11T13:35:02.001Z</time></trkpt><trkpt lat="45.28593760282572" lon="9.273383178989343"><ele>78.0</ele><time>2026-04-11T13:35:03.001Z</time></trkpt><trkpt lat="45.28605314137658" lon="9.273302980453138"><ele>78.0</ele><time>2026-04-11T13:35:04.001Z</time></trkpt><trkpt lat="45.28619828271071" lon="9.273232334430475"><ele>78.0</ele><time>2026-04-11T13:35:05.001Z</time></trkpt><trkpt lat="45.28633822868722" lon="9.273168300520283"><ele>78.0</ele><time>2026-04-11T13:35:06.001Z</time></trkpt><trkpt lat="45.28646390229819" lon="9.273117259612617"><ele>78.0</ele><time>2026-04-11T13:35:07.001Z</time></trkpt><trkpt lat="45.286576571851214" lon="9.273081069837879"><ele>78.33333333333333</ele><time>2026-04-11T13:35:08.001Z</time></trkpt><trkpt lat="45.28668065849164" lon="9.273055844963666"><ele>78.66666666666667</ele><time>2026-04-11T13:35:09.001Z</time></trkpt><trkpt lat="45.28677188249193" lon="9.27303209643792"><ele>79.0</ele><time>2026-04-11T13:35:10.001Z</time></trkpt><trkpt lat="45.286850165496006" lon="9.273003298717141"><ele>79.33333333333334</ele><time>2026-04-11T13:35:11.001Z</time></trkpt><trkpt lat="45.28691552790457" lon="9.272953151951437"><ele>79.66666666666667</ele><time>2026-04-11T13:35:12.001Z</time></trkpt><trkpt lat="45.286983078277906" lon="9.272869310399878"><ele>80.0</ele><time>2026-04-11T13:35:13.002Z</time></trkpt><trkpt lat="45.287041447286846" lon="9.27275680548994"><ele>80.0</ele><time>2026-04-11T13:35:14.002Z</time></trkpt><trkpt lat="45.287086190374865" lon="9.272627210308848"><ele>80.0</ele><time>2026-04-11T13:35:15.002Z</time></trkpt><trkpt lat="45.28714006177922" lon="9.2724687961247"><ele>80.0</ele><time>2026-04-11T13:35:16.002Z</time></trkpt><trkpt lat="45.28719887963353" lon="9.272302366738346"><ele>80.0</ele><time>2026-04-11T13:35:17.002Z</time></trkpt><trkpt lat="45.287254257598875" lon="9.272163641150883"><ele>80.25</ele><time>2026-04-11T13:35:18.002Z</time></trkpt><trkpt lat="45.28730869197786" lon="9.272040170456211"><ele>80.5</ele><time>2026-04-11T13:35:19Z</time></trkpt><trkpt lat="45.28736521991782" lon="9.27191439150096"><ele>80.75</ele><time>2026-04-11T13:35:20Z</time></trkpt><trkpt lat="45.287438122140436" lon="9.271755561368824"><ele>81.0</ele><time>2026-04-11T13:35:21Z</time></trkpt><trkpt lat="45.28751692289584" lon="9.271575174683424"><ele>81.0</ele><time>2026-04-11T13:35:22Z</time></trkpt><trkpt lat="45.287587877320306" lon="9.271409113870309"><ele>81.0</ele><time>2026-04-11T13:35:23Z</time></trkpt><trkpt lat="45.28765558720498" lon="9.27126894780156"><ele>81.0</ele><time>2026-04-11T13:35:24Z</time></trkpt><trkpt lat="45.28773258615637" lon="9.271126712051986"><ele>81.0</ele><time>2026-04-11T13:35:25Z</time></trkpt><trkpt lat="45.28783182659048" lon="9.270982862488923"><ele>81.0</ele><time>2026-04-11T13:35:26Z</time></trkpt><trkpt lat="45.287945747570824" lon="9.270832472664793"><ele>81.0</ele><time>2026-04-11T13:35:27Z</time></trkpt><trkpt lat="45.28807535697496" lon="9.27066980953"><ele>81.0</ele><time>2026-04-11T13:35:28Z</time></trkpt><trkpt lat="45.288206267956035" lon="9.270498960728466"><ele>81.0</ele><time>2026-04-11T13:35:29Z</time></trkpt><trkpt lat="45.28833607171081" lon="9.27033695627801"><ele>81.0</ele><time>2026-04-11T13:35:30Z</time></trkpt><trkpt lat="45.288470972472005" lon="9.270172070528922"><ele>81.0</ele><time>2026-04-11T13:35:31Z</time></trkpt><trkpt lat="45.288611158272204" lon="9.270002126871699"><ele>81.0</ele><time>2026-04-11T13:35:32Z</time></trkpt><trkpt lat="45.28876264153715" lon="9.26981809371237"><ele>81.0</ele><time>2026-04-11T13:35:33Z</time></trkpt><trkpt lat="45.28890464988418" lon="9.269650225876452"><ele>81.0</ele><time>2026-04-11T13:35:34Z</time></trkpt><trkpt lat="45.28904195238034" lon="9.269481110962117"><ele>81.33333333333333</ele><time>2026-04-11T13:35:35Z</time></trkpt><trkpt lat="45.28917895718184" lon="9.269319256689018"><ele>81.66666666666666</ele><time>2026-04-11T13:35:36Z</time></trkpt><trkpt lat="45.28930591360464" lon="9.269169914890895"><ele>82.0</ele><time>2026-04-11T13:35:37Z</time></trkpt><trkpt lat="45.28943343178043" lon="9.26901479186491"><ele>82.0</ele><time>2026-04-11T13:35:38Z</time></trkpt><trkpt lat="45.28954187015566" lon="9.26888922607656"><ele>82.0</ele><time>2026-04-11T13:35:39Z</time></trkpt><trkpt lat="45.28964459256428" lon="9.268768041038072"><ele>82.0</ele><time>2026-04-11T13:35:40Z</time></trkpt><trkpt lat="45.289750774967594" lon="9.268652048966187"><ele>82.0</ele><time>2026-04-11T13:35:41Z</time></trkpt><trkpt lat="45.28986973992276" lon="9.268538293083395"><ele>82.0</ele><time>2026-04-11T13:35:42Z</time></trkpt><trkpt lat="45.29000096435916" lon="9.268425996395731"><ele>82.0</ele><time>2026-04-11T13:35:43Z</time></trkpt><trkpt lat="45.29013776466355" lon="9.268329852233853"><ele>82.0</ele><time>2026-04-11T13:35:44Z</time></trkpt><trkpt lat="45.29027125231219" lon="9.268231010665831"><ele>82.0</ele><time>2026-04-11T13:35:45Z</time></trkpt><trkpt lat="45.29040117876155" lon="9.268131312657735"><ele>82.0</ele><time>2026-04-11T13:35:46Z</time></trkpt><trkpt lat="45.290534704911224" lon="9.26803408043198"><ele>82.0</ele><time>2026-04-11T13:35:47Z</time></trkpt><trkpt lat="45.29067221369815" lon="9.267934419992425"><ele>82.33333333333333</ele><time>2026-04-11T13:35:48Z</time></trkpt><trkpt lat="45.29081198260906" lon="9.267837495582157"><ele>82.66666666666667</ele><time>2026-04-11T13:35:49Z</time></trkpt><trkpt lat="45.290953366708585" lon="9.267749444472935"><ele>83.0</ele><time>2026-04-11T13:35:50Z</time></trkpt><trkpt lat="45.291092580435844" lon="9.267667495906606"><ele>83.0</ele><time>2026-04-11T13:35:51Z</time></trkpt><trkpt lat="45.291234187121596" lon="9.267588682471096"><ele>83.0</ele><time>2026-04-11T13:35:52Z</time></trkpt><trkpt lat="45.29137015635828" lon="9.267504518693881"><ele>83.0</ele><time>2026-04-11T13:35:53Z</time></trkpt><trkpt lat="45.29152563276754" lon="9.267438319184858"><ele>83.0</ele><time>2026-04-11T13:35:54Z</time></trkpt><trkpt lat="45.29166927176636" lon="9.267361139389017"><ele>83.0</ele><time>2026-04-11T13:35:55Z</time></trkpt><trkpt lat="45.291818493054784" lon="9.267280472711628"><ele>83.0</ele><time>2026-04-11T13:35:56Z</time></trkpt><trkpt lat="45.29194322538366" lon="9.267213035107728"><ele>83.0</ele><time>2026-04-11T13:35:57Z</time></trkpt><trkpt lat="45.29204566192143" lon="9.26715765186949"><ele>83.0</ele><time>2026-04-11T13:35:58Z</time></trkpt><trkpt lat="45.29214150520022" lon="9.26710311901174"><ele>83.0</ele><time>2026-04-11T13:35:59Z</time></trkpt><trkpt lat="45.292240881618355" lon="9.267046312193374"><ele>83.0</ele><time>2026-04-11T13:36:00Z</time></trkpt><trkpt lat="45.292354821726796" lon="9.267064845033138"><ele>83.0</ele><time>2026-04-11T13:36:01Z</time></trkpt><trkpt lat="45.29248272480233" lon="9.267022837715022"><ele>83.66666666666667</ele><time>2026-04-11T13:36:02Z</time></trkpt><trkpt lat="45.29263092610397" lon="9.26697162655685"><ele>84.33333333333333</ele><time>2026-04-11T13:36:03Z</time></trkpt><trkpt lat="45.29279946214088" lon="9.266909155447571"><ele>85.0</ele><time>2026-04-11T13:36:04Z</time></trkpt><trkpt lat="45.2929560570607" lon="9.26684819509574"><ele>84.75</ele><time>2026-04-11T13:36:05Z</time></trkpt><trkpt lat="45.29309808346224" lon="9.266791295959395"><ele>84.5</ele><time>2026-04-11T13:36:06Z</time></trkpt><trkpt lat="45.29323689882305" lon="9.266733091848549"><ele>84.25</ele><time>2026-04-11T13:36:07Z</time></trkpt><trkpt lat="45.29335250888977" lon="9.266680682640406"><ele>84.0</ele><time>2026-04-11T13:36:08.001Z</time></trkpt><trkpt lat="45.293444190785316" lon="9.266618740181732"><ele>84.0</ele><time>2026-04-11T13:36:09.001Z</time></trkpt><trkpt lat="45.29354113474066" lon="9.266612395195287"><ele>84.0</ele><time>2026-04-11T13:36:10.001Z</time></trkpt><trkpt lat="45.29362839821368" lon="9.266605702931814"><ele>84.0</ele><time>2026-04-11T13:36:11.001Z</time></trkpt><trkpt lat="45.29370622023028" lon="9.266627718967872"><ele>84.0</ele><time>2026-04-11T13:36:12.001Z</time></trkpt><trkpt lat="45.293763061001705" lon="9.266669647962276"><ele>84.0</ele><time>2026-04-11T13:36:13.001Z</time></trkpt><trkpt lat="45.29380240161932" lon="9.266741990697675"><ele>84.0</ele><time>2026-04-11T13:36:14.001Z</time></trkpt><trkpt lat="45.293825396817496" lon="9.266839637327942"><ele>84.0</ele><time>2026-04-11T13:36:15.001Z</time></trkpt><trkpt lat="45.29384017170625" lon="9.266952880609068"><ele>84.0</ele><time>2026-04-11T13:36:16.001Z</time></trkpt><trkpt lat="45.29387555568817" lon="9.267115281132012"><ele>84.0</ele><time>2026-04-11T13:36:17.001Z</time></trkpt><trkpt lat="45.29393253602034" lon="9.267302040127994"><ele>84.0</ele><time>2026-04-11T13:36:18.001Z</time></trkpt><trkpt lat="45.29397329246751" lon="9.267515054690564"><ele>84.0</ele><time>2026-04-11T13:36:19.001Z</time></trkpt><trkpt lat="45.294028901729334" lon="9.267718424723343"><ele>84.0</ele><time>2026-04-11T13:36:20.001Z</time></trkpt><trkpt lat="45.29405581653252" lon="9.267900494242943"><ele>84.0</ele><time>2026-04-11T13:36:21.001Z</time></trkpt><trkpt lat="45.294089829586184" lon="9.268048654181184"><ele>84.0</ele><time>2026-04-11T13:36:22.001Z</time></trkpt><trkpt lat="45.29413820571848" lon="9.26817580688969"><ele>84.0</ele><time>2026-04-11T13:36:23.001Z</time></trkpt><trkpt lat="45.29416944450104" lon="9.268298828664985"><ele>84.0</ele><time>2026-04-11T13:36:24.001Z</time></trkpt><trkpt lat="45.29420936417515" lon="9.268412378549213"><ele>84.0</ele><time>2026-04-11T13:36:25.001Z</time></trkpt><trkpt lat="45.294242220429574" lon="9.26851532231234"><ele>84.0</ele><time>2026-04-11T13:36:26.001Z</time></trkpt><trkpt lat="45.29430271270991" lon="9.268577067498747"><ele>84.0</ele><time>2026-04-11T13:36:27.001Z</time></trkpt><trkpt lat="45.294376312092936" lon="9.268582491967056"><ele>84.0</ele><time>2026-04-11T13:36:28.001Z</time></trkpt><trkpt lat="45.29446955926847" lon="9.268630674024346"><ele>84.0</ele><time>2026-04-11T13:36:30.001Z</time></trkpt><trkpt lat="45.29455364021194" lon="9.268653872276895"><ele>84.0</ele><time>2026-04-11T13:36:32.001Z</time></trkpt><trkpt lat="45.294622706685374" lon="9.26867172091065"><ele>84.0</ele><time>2026-04-11T13:36:34.001Z</time></trkpt><trkpt lat="45.29469417510393" lon="9.268690816426663"><ele>84.0</ele><time>2026-04-11T13:36:37.001Z</time></trkpt><trkpt lat="45.29479802653174" lon="9.268714827692131"><ele>84.0</ele><time>2026-04-11T13:36:40.001Z</time></trkpt><trkpt lat="45.29487638796525" lon="9.26872049878516"><ele>84.0</ele><time>2026-04-11T13:36:43.001Z</time></trkpt><trkpt lat="45.29496315657679" lon="9.268718003554685"><ele>84.0</ele><time>2026-04-11T13:36:47.001Z</time></trkpt><trkpt lat="45.29503326060972" lon="9.268712535718622"><ele>84.0</ele><time>2026-04-11T13:36:51.001Z</time></trkpt><trkpt lat="45.295112839093434" lon="9.26870360088222"><ele>84.0</ele><time>2026-04-11T13:36:55.001Z</time></trkpt><trkpt lat="45.29518116391064" lon="9.268694178250712"><ele>84.0</ele><time>2026-04-11T13:36:58.001Z</time></trkpt><trkpt lat="45.29524482644264" lon="9.268684998201719"><ele>84.0</ele><time>2026-04-11T13:37:01.001Z</time></trkpt><trkpt lat="45.29531473419655" lon="9.268673515207714"><ele>84.0</ele><time>2026-04-11T13:37:04.001Z</time></trkpt><trkpt lat="45.29538550682628" lon="9.268660761129933"><ele>84.0</ele><time>2026-04-11T13:37:07.001Z</time></trkpt><trkpt lat="45.29545438223306" lon="9.268647585532962"><ele>84.0</ele><time>2026-04-11T13:37:11.002Z</time></trkpt><trkpt lat="45.29553226142347" lon="9.268633172733525"><ele>84.0</ele><time>2026-04-11T13:37:18.002Z</time></trkpt><trkpt lat="45.29561850417708" lon="9.268616833654598"><ele>84.0</ele><time>2026-04-11T13:37:21.002Z</time></trkpt><trkpt lat="45.295681611815084" lon="9.268605849516621"><ele>84.0</ele><time>2026-04-11T13:37:24.002Z</time></trkpt><trkpt lat="45.295747753109886" lon="9.268595457878646"><ele>84.0</ele><time>2026-04-11T13:37:29Z</time></trkpt><trkpt lat="45.295837160862675" lon="9.26858235268906"><ele>84.0</ele><time>2026-04-11T13:37:34Z</time></trkpt><trkpt lat="45.29590355900055" lon="9.268573112870763"><ele>84.0</ele><time>2026-04-11T13:37:36Z</time></trkpt><trkpt lat="45.295979597996016" lon="9.268563147690292"><ele>84.0</ele><time>2026-04-11T13:37:38Z</time></trkpt><trkpt lat="45.29604609792237" lon="9.268554432638371"><ele>84.0</ele><time>2026-04-11T13:37:40Z</time></trkpt><trkpt lat="45.296116332313865" lon="9.268545228176578"><ele>84.0</ele><time>2026-04-11T13:37:42Z</time></trkpt><trkpt lat="45.29622095335791" lon="9.268531517225865"><ele>84.0</ele><time>2026-04-11T13:37:44Z</time></trkpt><trkpt lat="45.296316238263756" lon="9.26851902979848"><ele>84.0</ele><time>2026-04-11T13:37:46Z</time></trkpt><trkpt lat="45.29638169671425" lon="9.268509606408877"><ele>84.0</ele><time>2026-04-11T13:37:48Z</time></trkpt><trkpt lat="45.29647227230637" lon="9.268495776001828"><ele>84.0</ele><time>2026-04-11T13:37:51Z</time></trkpt><trkpt lat="45.29655159493144" lon="9.268482729323502"><ele>84.0</ele><time>2026-04-11T13:37:54Z</time></trkpt><trkpt lat="45.29661553469344" lon="9.26846197371074"><ele>84.0</ele><time>2026-04-11T13:37:58Z</time></trkpt><trkpt lat="45.296704180255226" lon="9.268440843845337"><ele>84.0</ele><time>2026-04-11T13:38:02Z</time></trkpt><trkpt lat="45.29677293716068" lon="9.268423111903749"><ele>84.0</ele><time>2026-04-11T13:38:04Z</time></trkpt><trkpt lat="45.296847606304375" lon="9.268411866985744"><ele>84.0</ele><time>2026-04-11T13:38:06Z</time></trkpt><trkpt lat="45.29691840767234" lon="9.268392708276329"><ele>84.0</ele><time>2026-04-11T13:38:08Z</time></trkpt><trkpt lat="45.29698738150864" lon="9.268370139709564"><ele>84.0</ele><time>2026-04-11T13:38:10.001Z</time></trkpt><trkpt lat="45.2970756450144" lon="9.268347678988029"><ele>84.0</ele><time>2026-04-11T13:38:13.001Z</time></trkpt><trkpt lat="45.29716605047823" lon="9.268329600929736"><ele>84.0</ele><time>2026-04-11T13:38:16.001Z</time></trkpt><trkpt lat="45.297231338023316" lon="9.268312659284094"><ele>84.0</ele><time>2026-04-11T13:38:18.001Z</time></trkpt><trkpt lat="45.29732041344587" lon="9.26829684615245"><ele>84.0</ele><time>2026-04-11T13:38:21.001Z</time></trkpt><trkpt lat="45.297384286725396" lon="9.268278761077838"><ele>84.0</ele><time>2026-04-11T13:38:23.001Z</time></trkpt><trkpt lat="45.29747403139351" lon="9.26825797012187"><ele>84.0</ele><time>2026-04-11T13:38:26.001Z</time></trkpt><trkpt lat="45.29754260460109" lon="9.268246037416775"><ele>84.0</ele><time>2026-04-11T13:38:28.001Z</time></trkpt><trkpt lat="45.29760564366025" lon="9.268228347092581"><ele>84.0</ele><time>2026-04-11T13:38:30.001Z</time></trkpt><trkpt lat="45.29769579105096" lon="9.268223805039568"><ele>84.0</ele><time>2026-04-11T13:38:33.001Z</time></trkpt><trkpt lat="45.297784417407115" lon="9.268194191021784"><ele>84.0</ele><time>2026-04-11T13:38:35.001Z</time></trkpt><trkpt lat="45.29787999913425" lon="9.268166589305592"><ele>84.0</ele><time>2026-04-11T13:38:37.001Z</time></trkpt><trkpt lat="45.29794337300636" lon="9.268148265206683"><ele>84.0</ele><time>2026-04-11T13:38:38.001Z</time></trkpt><trkpt lat="45.29801120963219" lon="9.268137945178378"><ele>84.0</ele><time>2026-04-11T13:38:39.001Z</time></trkpt><trkpt lat="45.29809158441003" lon="9.268116539271078"><ele>84.0</ele><time>2026-04-11T13:38:40.001Z</time></trkpt><trkpt lat="45.29817910649948" lon="9.268098377351388"><ele>84.0</ele><time>2026-04-11T13:38:41.001Z</time></trkpt><trkpt lat="45.29827633094411" lon="9.268073166912131"><ele>84.0</ele><time>2026-04-11T13:38:42.001Z</time></trkpt><trkpt lat="45.29836654390171" lon="9.268048504941534"><ele>84.0</ele><time>2026-04-11T13:38:43.001Z</time></trkpt><trkpt lat="45.29846739553524" lon="9.268020574631601"><ele>84.0</ele><time>2026-04-11T13:38:44.001Z</time></trkpt><trkpt lat="45.29856580197106" lon="9.26800077219734"><ele>84.0</ele><time>2026-04-11T13:38:45.001Z</time></trkpt><trkpt lat="45.29866621353135" lon="9.267973594375828"><ele>84.0</ele><time>2026-04-11T13:38:46.001Z</time></trkpt><trkpt lat="45.298770791920305" lon="9.267951511894083"><ele>84.0</ele><time>2026-04-11T13:38:47.001Z</time></trkpt><trkpt lat="45.29887837318205" lon="9.26792396651619"><ele>84.0</ele><time>2026-04-11T13:38:48.001Z</time></trkpt><trkpt lat="45.29898598642575" lon="9.267900660883333"><ele>84.0</ele><time>2026-04-11T13:38:49.001Z</time></trkpt><trkpt lat="45.29908482306963" lon="9.2678820616164"><ele>84.0</ele><time>2026-04-11T13:38:50.001Z</time></trkpt><trkpt lat="45.299189459552174" lon="9.267856888007973"><ele>84.0</ele><time>2026-04-11T13:38:51.001Z</time></trkpt><trkpt lat="45.2992904400526" lon="9.267832873903103"><ele>84.0</ele><time>2026-04-11T13:38:52.001Z</time></trkpt><trkpt lat="45.299396470532734" lon="9.267805523200115"><ele>84.0</ele><time>2026-04-11T13:38:53.001Z</time></trkpt><trkpt lat="45.29950208487818" lon="9.267781640442879"><ele>84.0</ele><time>2026-04-11T13:38:54.001Z</time></trkpt><trkpt lat="45.29960353968628" lon="9.267757649788045"><ele>84.0</ele><time>2026-04-11T13:38:55.001Z</time></trkpt><trkpt lat="45.29970886349148" lon="9.267739608765224"><ele>84.0</ele><time>2026-04-11T13:38:56.001Z</time></trkpt><trkpt lat="45.29981337771949" lon="9.267703210244314"><ele>83.80000000000001</ele><time>2026-04-11T13:38:57.001Z</time></trkpt><trkpt lat="45.29992115196381" lon="9.267675433567197"><ele>83.60000000000001</ele><time>2026-04-11T13:38:58.001Z</time></trkpt><trkpt lat="45.30002954978482" lon="9.267654917262602"><ele>83.4</ele><time>2026-04-11T13:38:59.001Z</time></trkpt><trkpt lat="45.30013553832026" lon="9.267607901283515"><ele>83.2</ele><time>2026-04-11T13:39:00.001Z</time></trkpt><trkpt lat="45.30025354997646" lon="9.26758921101127"><ele>83.0</ele><time>2026-04-11T13:39:01.001Z</time></trkpt><trkpt lat="45.30036783079134" lon="9.267553075326031"><ele>83.0</ele><time>2026-04-11T13:39:02.001Z</time></trkpt><trkpt lat="45.30048201780251" lon="9.267517180923361"><ele>83.0</ele><time>2026-04-11T13:39:03.001Z</time></trkpt><trkpt lat="45.30060118421374" lon="9.267480456322856"><ele>83.0</ele><time>2026-04-11T13:39:04.001Z</time></trkpt><trkpt lat="45.30072462242319" lon="9.267443589932478"><ele>83.0</ele><time>2026-04-11T13:39:05.001Z</time></trkpt><trkpt lat="45.300849588405036" lon="9.267407116313695"><ele>83.25</ele><time>2026-04-11T13:39:06.001Z</time></trkpt><trkpt lat="45.30097422333418" lon="9.267371024235471"><ele>83.5</ele><time>2026-04-11T13:39:07.001Z</time></trkpt><trkpt lat="45.301101531257714" lon="9.267331876100757"><ele>83.75</ele><time>2026-04-11T13:39:08.001Z</time></trkpt><trkpt lat="45.30123232229498" lon="9.267290753627588"><ele>84.0</ele><time>2026-04-11T13:39:09.001Z</time></trkpt><trkpt lat="45.30136412870886" lon="9.267247250310039"><ele>84.0</ele><time>2026-04-11T13:39:10.001Z</time></trkpt><trkpt lat="45.30149181935472" lon="9.267201816558464"><ele>84.0</ele><time>2026-04-11T13:39:11.001Z</time></trkpt><trkpt lat="45.30161537156616" lon="9.267155322425468"><ele>84.0</ele><time>2026-04-11T13:39:12.001Z</time></trkpt><trkpt lat="45.30174060822934" lon="9.267105747179961"><ele>84.0</ele><time>2026-04-11T13:39:13.001Z</time></trkpt><trkpt lat="45.30187256521416" lon="9.26705234468172"><ele>84.0</ele><time>2026-04-11T13:39:14.001Z</time></trkpt><trkpt lat="45.30200934839513" lon="9.266996191090657"><ele>84.0</ele><time>2026-04-11T13:39:15.002Z</time></trkpt><trkpt lat="45.30213979821128" lon="9.266941665874752"><ele>84.0</ele><time>2026-04-11T13:39:16.002Z</time></trkpt><trkpt lat="45.302273031362894" lon="9.266879884682456"><ele>84.0</ele><time>2026-04-11T13:39:17.002Z</time></trkpt><trkpt lat="45.30240660267094" lon="9.266806379958094"><ele>84.25</ele><time>2026-04-11T13:39:18.002Z</time></trkpt><trkpt lat="45.30253610583883" lon="9.266721543068428"><ele>84.5</ele><time>2026-04-11T13:39:19.002Z</time></trkpt><trkpt lat="45.30267193382661" lon="9.266650453479874"><ele>84.75</ele><time>2026-04-11T13:39:20.002Z</time></trkpt><trkpt lat="45.30281660731226" lon="9.26658006926633"><ele>85.0</ele><time>2026-04-11T13:39:21.002Z</time></trkpt><trkpt lat="45.30295791197616" lon="9.266522388138487"><ele>85.25</ele><time>2026-04-11T13:39:22.002Z</time></trkpt><trkpt lat="45.3030977642344" lon="9.266466340745422"><ele>85.5</ele><time>2026-04-11T13:39:23.002Z</time></trkpt><trkpt lat="45.30323675972215" lon="9.266418321149766"><ele>85.75</ele><time>2026-04-11T13:39:24.002Z</time></trkpt><trkpt lat="45.3033754063961" lon="9.26636802744566"><ele>86.0</ele><time>2026-04-11T13:39:25.002Z</time></trkpt><trkpt lat="45.303495031526545" lon="9.266326455218964"><ele>85.75</ele><time>2026-04-11T13:39:26.002Z</time></trkpt><trkpt lat="45.30360730691466" lon="9.266288115749957"><ele>85.5</ele><time>2026-04-11T13:39:27.002Z</time></trkpt><trkpt lat="45.30372073539317" lon="9.266246831602631"><ele>85.25</ele><time>2026-04-11T13:39:28.002Z</time></trkpt><trkpt lat="45.30382919594848" lon="9.266203342346587"><ele>85.0</ele><time>2026-04-11T13:39:29.002Z</time></trkpt><trkpt lat="45.303937970666524" lon="9.266161782753457"><ele>85.0</ele><time>2026-04-11T13:39:30.002Z</time></trkpt><trkpt lat="45.304052953018676" lon="9.266114497878199"><ele>85.0</ele><time>2026-04-11T13:39:31Z</time></trkpt><trkpt lat="45.30417282719529" lon="9.266059061746105"><ele>85.0</ele><time>2026-04-11T13:39:32Z</time></trkpt><trkpt lat="45.304312106233404" lon="9.26599391365215"><ele>85.0</ele><time>2026-04-11T13:39:33Z</time></trkpt><trkpt lat="45.304458477415686" lon="9.265930186772223"><ele>85.0</ele><time>2026-04-11T13:39:34Z</time></trkpt><trkpt lat="45.30459538694996" lon="9.265868259266735"><ele>85.0</ele><time>2026-04-11T13:39:35Z</time></trkpt><trkpt lat="45.30471260660614" lon="9.26580375771548"><ele>85.0</ele><time>2026-04-11T13:39:36Z</time></trkpt><trkpt lat="45.30482314555347" lon="9.26575113999765"><ele>85.0</ele><time>2026-04-11T13:39:37Z</time></trkpt><trkpt lat="45.304930817718656" lon="9.265700023263578"><ele>84.8</ele><time>2026-04-11T13:39:38Z</time></trkpt><trkpt lat="45.30502116147101" lon="9.265650550173122"><ele>84.6</ele><time>2026-04-11T13:39:39Z</time></trkpt><trkpt lat="45.305106595446716" lon="9.265572347177267"><ele>84.4</ele><time>2026-04-11T13:39:40Z</time></trkpt><trkpt lat="45.305176948056086" lon="9.26548898213378"><ele>84.2</ele><time>2026-04-11T13:39:41Z</time></trkpt><trkpt lat="45.30523327394006" lon="9.265397848575743"><ele>84.0</ele><time>2026-04-11T13:39:42Z</time></trkpt><trkpt lat="45.3052787111297" lon="9.265306565854392"><ele>84.2</ele><time>2026-04-11T13:39:43Z</time></trkpt><trkpt lat="45.305321960931295" lon="9.265216717981911"><ele>84.4</ele><time>2026-04-11T13:39:44Z</time></trkpt><trkpt lat="45.305371415044014" lon="9.265149703951874"><ele>84.6</ele><time>2026-04-11T13:39:45Z</time></trkpt><trkpt lat="45.30542795400237" lon="9.2651045901074"><ele>84.8</ele><time>2026-04-11T13:39:46Z</time></trkpt><trkpt lat="45.305540276686315" lon="9.265099444255501"><ele>85.0</ele><time>2026-04-11T13:39:48Z</time></trkpt><trkpt lat="45.30565980980733" lon="9.265197144277867"><ele>85.0</ele><time>2026-04-11T13:39:50Z</time></trkpt><trkpt lat="45.30572677262564" lon="9.265305173504395"><ele>85.0</ele><time>2026-04-11T13:39:51Z</time></trkpt><trkpt lat="45.305806955524965" lon="9.265447371881523"><ele>85.0</ele><time>2026-04-11T13:39:52Z</time></trkpt><trkpt lat="45.30589874751045" lon="9.265600334532873"><ele>85.0</ele><time>2026-04-11T13:39:53Z</time></trkpt><trkpt lat="45.30598879485272" lon="9.265748053673306"><ele>85.0</ele><time>2026-04-11T13:39:54Z</time></trkpt><trkpt lat="45.306077833090136" lon="9.265935442499766"><ele>85.0</ele><time>2026-04-11T13:39:55Z</time></trkpt><trkpt lat="45.30618154407252" lon="9.266111501481426"><ele>85.0</ele><time>2026-04-11T13:39:56Z</time></trkpt><trkpt lat="45.30629714318918" lon="9.266277903667142"><ele>85.33333333333333</ele><time>2026-04-11T13:39:57Z</time></trkpt><trkpt lat="45.30639809836271" lon="9.266452627150777"><ele>85.66666666666667</ele><time>2026-04-11T13:39:58Z</time></trkpt><trkpt lat="45.30649897591496" lon="9.266620473038914"><ele>86.0</ele><time>2026-04-11T13:39:59Z</time></trkpt><trkpt lat="45.30658932859598" lon="9.266774556215518"><ele>86.0</ele><time>2026-04-11T13:40:00Z</time></trkpt><trkpt lat="45.306677622226445" lon="9.266924712216877"><ele>86.0</ele><time>2026-04-11T13:40:01Z</time></trkpt><trkpt lat="45.30677012137184" lon="9.267073923497335"><ele>86.0</ele><time>2026-04-11T13:40:02Z</time></trkpt><trkpt lat="45.30685581042567" lon="9.267225664309116"><ele>86.0</ele><time>2026-04-11T13:40:03Z</time></trkpt><trkpt lat="45.30694483133263" lon="9.267381461670483"><ele>86.0</ele><time>2026-04-11T13:40:04Z</time></trkpt><trkpt lat="45.307034060241755" lon="9.267533667661747"><ele>86.0</ele><time>2026-04-11T13:40:05Z</time></trkpt><trkpt lat="45.30711653818474" lon="9.267669658851592"><ele>86.0</ele><time>2026-04-11T13:40:06Z</time></trkpt><trkpt lat="45.307189324769844" lon="9.267798248613296"><ele>86.0</ele><time>2026-04-11T13:40:07Z</time></trkpt><trkpt lat="45.30730300767132" lon="9.268008061720233"><ele>86.0</ele><time>2026-04-11T13:40:09Z</time></trkpt><trkpt lat="45.30734631799287" lon="9.268095772847781"><ele>86.0</ele><time>2026-04-11T13:40:10Z</time></trkpt><trkpt lat="45.30739097765087" lon="9.268185867227974"><ele>86.0</ele><time>2026-04-11T13:40:11Z</time></trkpt><trkpt lat="45.307431911485544" lon="9.268286731980922"><ele>86.0</ele><time>2026-04-11T13:40:12Z</time></trkpt><trkpt lat="45.30746476615829" lon="9.268397426190575"><ele>86.0</ele><time>2026-04-11T13:40:13Z</time></trkpt><trkpt lat="45.30749588085317" lon="9.268517219348078"><ele>86.0</ele><time>2026-04-11T13:40:14Z</time></trkpt><trkpt lat="45.30753744256927" lon="9.268638849091055"><ele>86.0</ele><time>2026-04-11T13:40:15.001Z</time></trkpt><trkpt lat="45.307608045059766" lon="9.268748247659381"><ele>86.0</ele><time>2026-04-11T13:40:16.001Z</time></trkpt><trkpt lat="45.30769977687414" lon="9.2688253151611"><ele>86.0</ele><time>2026-04-11T13:40:17.001Z</time></trkpt><trkpt lat="45.30780161248342" lon="9.268897728200583"><ele>86.0</ele><time>2026-04-11T13:40:18.001Z</time></trkpt><trkpt lat="45.30788562050529" lon="9.268990645148568"><ele>86.0</ele><time>2026-04-11T13:40:19.001Z</time></trkpt><trkpt lat="45.30795440305536" lon="9.269109122685078"><ele>86.25</ele><time>2026-04-11T13:40:20.001Z</time></trkpt><trkpt lat="45.30802110810282" lon="9.269236974674422"><ele>86.5</ele><time>2026-04-11T13:40:21.001Z</time></trkpt><trkpt lat="45.30808838623243" lon="9.269363992088193"><ele>86.75</ele><time>2026-04-11T13:40:22.001Z</time></trkpt><trkpt lat="45.30815798743616" lon="9.269489893706364"><ele>87.0</ele><time>2026-04-11T13:40:23.001Z</time></trkpt><trkpt lat="45.30822941388048" lon="9.269616316979945"><ele>87.0</ele><time>2026-04-11T13:40:24.001Z</time></trkpt><trkpt lat="45.30830438380906" lon="9.26974402853491"><ele>87.0</ele><time>2026-04-11T13:40:25.001Z</time></trkpt><trkpt lat="45.308379782506364" lon="9.269873934664279"><ele>87.0</ele><time>2026-04-11T13:40:26.001Z</time></trkpt><trkpt lat="45.308455160041724" lon="9.270008062028028"><ele>87.0</ele><time>2026-04-11T13:40:27.001Z</time></trkpt><trkpt lat="45.308531346404756" lon="9.270142190242288"><ele>87.0</ele><time>2026-04-11T13:40:28.001Z</time></trkpt><trkpt lat="45.30861283341383" lon="9.270279971502552"><ele>87.0</ele><time>2026-04-11T13:40:29.001Z</time></trkpt><trkpt lat="45.30869107243639" lon="9.270412150058302"><ele>87.0</ele><time>2026-04-11T13:40:30.001Z</time></trkpt><trkpt lat="45.30876670633397" lon="9.270544716484329"><ele>87.0</ele><time>2026-04-11T13:40:31.001Z</time></trkpt><trkpt lat="45.30884140629224" lon="9.270668285059159"><ele>87.0</ele><time>2026-04-11T13:40:32.001Z</time></trkpt><trkpt lat="45.308908599484965" lon="9.270787323227223"><ele>87.0</ele><time>2026-04-11T13:40:33.001Z</time></trkpt><trkpt lat="45.3089677611854" lon="9.270892836679105"><ele>87.0</ele><time>2026-04-11T13:40:34.001Z</time></trkpt><trkpt lat="45.30902156601148" lon="9.270985821955298"><ele>87.0</ele><time>2026-04-11T13:40:35.001Z</time></trkpt><trkpt lat="45.30905886937195" lon="9.271069049677838"><ele>87.0</ele><time>2026-04-11T13:40:36.001Z</time></trkpt><trkpt lat="45.309090222732635" lon="9.271153103396571"><ele>87.0</ele><time>2026-04-11T13:40:37.001Z</time></trkpt><trkpt lat="45.3091206570702" lon="9.271334072466571"><ele>87.16666666666667</ele><time>2026-04-11T13:40:39.001Z</time></trkpt><trkpt lat="45.309118935588856" lon="9.271455115011053"><ele>87.33333333333333</ele><time>2026-04-11T13:40:40.001Z</time></trkpt><trkpt lat="45.30911123910336" lon="9.271579651576749"><ele>87.5</ele><time>2026-04-11T13:40:41.001Z</time></trkpt><trkpt lat="45.309115611506506" lon="9.27170195990816"><ele>87.66666666666666</ele><time>2026-04-11T13:40:42.001Z</time></trkpt><trkpt lat="45.3091426797041" lon="9.271813987175516"><ele>87.83333333333333</ele><time>2026-04-11T13:40:43.001Z</time></trkpt><trkpt lat="45.309190831058864" lon="9.271913545582459"><ele>88.0</ele><time>2026-04-11T13:40:44.001Z</time></trkpt><trkpt lat="45.309242540176186" lon="9.272030789337995"><ele>88.0</ele><time>2026-04-11T13:40:45.001Z</time></trkpt><trkpt lat="45.309315913431305" lon="9.272138806483545"><ele>88.0</ele><time>2026-04-11T13:40:46.001Z</time></trkpt><trkpt lat="45.30938777910632" lon="9.272252463733338"><ele>88.0</ele><time>2026-04-11T13:40:47.001Z</time></trkpt><trkpt lat="45.3094660454953" lon="9.2723828742049"><ele>88.0</ele><time>2026-04-11T13:40:48.001Z</time></trkpt><trkpt lat="45.309551985519626" lon="9.272514185220047"><ele>87.5</ele><time>2026-04-11T13:40:49.001Z</time></trkpt><trkpt lat="45.30965212257161" lon="9.27263172230703"><ele>87.0</ele><time>2026-04-11T13:40:50.001Z</time></trkpt><trkpt lat="45.309762461272356" lon="9.272729365197831"><ele>86.5</ele><time>2026-04-11T13:40:51.001Z</time></trkpt><trkpt lat="45.309877456563214" lon="9.272796959458573"><ele>86.0</ele><time>2026-04-11T13:40:52.001Z</time></trkpt><trkpt lat="45.30999984901936" lon="9.272852659531353"><ele>86.0</ele><time>2026-04-11T13:40:53.001Z</time></trkpt><trkpt lat="45.3101241294312" lon="9.272885944716396"><ele>86.0</ele><time>2026-04-11T13:40:54.001Z</time></trkpt><trkpt lat="45.31024435926458" lon="9.272895248375544"><ele>86.0</ele><time>2026-04-11T13:40:55.001Z</time></trkpt><trkpt lat="45.31037229358451" lon="9.272895616752887"><ele>86.0</ele><time>2026-04-11T13:40:56.001Z</time></trkpt><trkpt lat="45.31050189079449" lon="9.272885410870986"><ele>86.0</ele><time>2026-04-11T13:40:57.001Z</time></trkpt><trkpt lat="45.31063369584234" lon="9.272858619904884"><ele>86.0</ele><time>2026-04-11T13:40:58.001Z</time></trkpt><trkpt lat="45.310766461134136" lon="9.272805279550107"><ele>86.0</ele><time>2026-04-11T13:40:59.001Z</time></trkpt><trkpt lat="45.310906924076896" lon="9.272712817180315"><ele>86.0</ele><time>2026-04-11T13:41:00.001Z</time></trkpt><trkpt lat="45.3110432404467" lon="9.272639027413764"><ele>86.0</ele><time>2026-04-11T13:41:01.001Z</time></trkpt><trkpt lat="45.31118307222742" lon="9.272539222407103"><ele>86.0</ele><time>2026-04-11T13:41:02.001Z</time></trkpt><trkpt lat="45.3113111976211" lon="9.272428089782492"><ele>86.0</ele><time>2026-04-11T13:41:03.001Z</time></trkpt><trkpt lat="45.311473626741886" lon="9.272325624268436"><ele>86.5</ele><time>2026-04-11T13:41:04.001Z</time></trkpt><trkpt lat="45.311663907899465" lon="9.272184185589387"><ele>87.0</ele><time>2026-04-11T13:41:05.001Z</time></trkpt><trkpt lat="45.31187852982756" lon="9.272024654112242"><ele>87.0</ele><time>2026-04-11T13:41:06.001Z</time></trkpt><trkpt lat="45.31211189852576" lon="9.271850979930774"><ele>87.0</ele><time>2026-04-11T13:41:07.001Z</time></trkpt><trkpt lat="45.312353755072955" lon="9.271656228770016"><ele>88.0</ele><time>2026-04-11T13:41:08.001Z</time></trkpt><trkpt lat="45.31261174477578" lon="9.271490320918069"><ele>89.0</ele><time>2026-04-11T13:41:09.001Z</time></trkpt><trkpt lat="45.31287063818556" lon="9.271290525134512"><ele>88.5</ele><time>2026-04-11T13:41:10.001Z</time></trkpt><trkpt lat="45.313138518404664" lon="9.271075604653836"><ele>88.0</ele><time>2026-04-11T13:41:11.001Z</time></trkpt><trkpt lat="45.31340414796873" lon="9.270862886669565"><ele>88.0</ele><time>2026-04-11T13:41:12.001Z</time></trkpt><trkpt lat="45.31364112532862" lon="9.270672274539276"><ele>88.0</ele><time>2026-04-11T13:41:13.001Z</time></trkpt><trkpt lat="45.313858378182836" lon="9.270503814977834"><ele>88.0</ele><time>2026-04-11T13:41:14.001Z</time></trkpt><trkpt lat="45.31406032295785" lon="9.270362785705696"><ele>88.0</ele><time>2026-04-11T13:41:15.001Z</time></trkpt><trkpt lat="45.314241085098594" lon="9.270255778338925"><ele>88.0</ele><time>2026-04-11T13:41:16.001Z</time></trkpt><trkpt lat="45.31441103975267" lon="9.270222357640076"><ele>88.0</ele><time>2026-04-11T13:41:17.001Z</time></trkpt><trkpt lat="45.31458379897641" lon="9.270200409256825"><ele>88.0</ele><time>2026-04-11T13:41:18.001Z</time></trkpt><trkpt lat="45.31478377651802" lon="9.270236346609206"><ele>88.0</ele><time>2026-04-11T13:41:19.001Z</time></trkpt><trkpt lat="45.3150033518302" lon="9.270305646086427"><ele>87.5</ele><time>2026-04-11T13:41:20.001Z</time></trkpt><trkpt lat="45.315235646916655" lon="9.27037284599174"><ele>87.0</ele><time>2026-04-11T13:41:21.002Z</time></trkpt><trkpt lat="45.31544070528047" lon="9.270456116135978"><ele>87.0</ele><time>2026-04-11T13:41:22.002Z</time></trkpt><trkpt lat="45.315612084132304" lon="9.270509853836021"><ele>87.0</ele><time>2026-04-11T13:41:23.002Z</time></trkpt><trkpt lat="45.31575744569907" lon="9.270555757844885"><ele>87.0</ele><time>2026-04-11T13:41:24.002Z</time></trkpt><trkpt lat="45.31589019790413" lon="9.270614874245858"><ele>87.0</ele><time>2026-04-11T13:41:25.002Z</time></trkpt><trkpt lat="45.31602970226281" lon="9.270718944069309"><ele>87.0</ele><time>2026-04-11T13:41:26.002Z</time></trkpt><trkpt lat="45.31616516133915" lon="9.270917259197045"><ele>87.0</ele><time>2026-04-11T13:41:27.002Z</time></trkpt><trkpt lat="45.31632119671424" lon="9.27114674565135"><ele>87.0</ele><time>2026-04-11T13:41:28.002Z</time></trkpt><trkpt lat="45.31650537156857" lon="9.271387281242326"><ele>87.0</ele><time>2026-04-11T13:41:29.002Z</time></trkpt><trkpt lat="45.31668839809307" lon="9.2716525922627"><ele>87.5</ele><time>2026-04-11T13:41:30.002Z</time></trkpt><trkpt lat="45.31688666471731" lon="9.27192381132739"><ele>88.0</ele><time>2026-04-11T13:41:31.002Z</time></trkpt><trkpt lat="45.31709117879968" lon="9.272200458051657"><ele>87.0</ele><time>2026-04-11T13:41:32.002Z</time></trkpt><trkpt lat="45.31729763457537" lon="9.272485754510527"><ele>86.0</ele><time>2026-04-11T13:41:33.002Z</time></trkpt><trkpt lat="45.31748592759263" lon="9.272785206955515"><ele>86.0</ele><time>2026-04-11T13:41:34.002Z</time></trkpt><trkpt lat="45.3176932394065" lon="9.273047183932613"><ele>86.0</ele><time>2026-04-11T13:41:35.002Z</time></trkpt><trkpt lat="45.31789129267399" lon="9.273333719689301"><ele>86.5</ele><time>2026-04-11T13:41:36.002Z</time></trkpt><trkpt lat="45.318085116439725" lon="9.27361224580575"><ele>87.0</ele><time>2026-04-11T13:41:37Z</time></trkpt><trkpt lat="45.31827797785638" lon="9.273885139980056"><ele>88.0</ele><time>2026-04-11T13:41:38Z</time></trkpt><trkpt lat="45.318470156042736" lon="9.274159831055314"><ele>89.0</ele><time>2026-04-11T13:41:39Z</time></trkpt><trkpt lat="45.31865728636231" lon="9.274428354899738"><ele>89.0</ele><time>2026-04-11T13:41:40Z</time></trkpt><trkpt lat="45.31884460083541" lon="9.27469901257779"><ele>89.0</ele><time>2026-04-11T13:41:41Z</time></trkpt><trkpt lat="45.31903893265127" lon="9.274973282801394"><ele>88.5</ele><time>2026-04-11T13:41:42Z</time></trkpt><trkpt lat="45.319236483501975" lon="9.275252044201679"><ele>88.0</ele><time>2026-04-11T13:41:43Z</time></trkpt><trkpt lat="45.319430019827045" lon="9.275528971588141"><ele>88.0</ele><time>2026-04-11T13:41:44Z</time></trkpt><trkpt lat="45.31960431581345" lon="9.275776801214995"><ele>88.0</ele><time>2026-04-11T13:41:45Z</time></trkpt><trkpt lat="45.319770373795286" lon="9.276013005366336"><ele>88.5</ele><time>2026-04-11T13:41:46Z</time></trkpt><trkpt lat="45.31993555356319" lon="9.27624958163687"><ele>89.0</ele><time>2026-04-11T13:41:47Z</time></trkpt><trkpt lat="45.32009417700118" lon="9.27647683525593"><ele>89.66666666666667</ele><time>2026-04-11T13:41:48Z</time></trkpt><trkpt lat="45.32025258132483" lon="9.27669579396608"><ele>90.33333333333333</ele><time>2026-04-11T13:41:49Z</time></trkpt><trkpt lat="45.32040879538525" lon="9.276914178054726"><ele>91.0</ele><time>2026-04-11T13:41:50Z</time></trkpt><trkpt lat="45.32055261858183" lon="9.277116157084116"><ele>89.66666666666666</ele><time>2026-04-11T13:41:51Z</time></trkpt><trkpt lat="45.3206813178261" lon="9.277303930865283"><ele>88.33333333333333</ele><time>2026-04-11T13:41:52Z</time></trkpt><trkpt lat="45.32080345624807" lon="9.277472427741275"><ele>87.0</ele><time>2026-04-11T13:41:53Z</time></trkpt><trkpt lat="45.3209129917971" lon="9.27763146940587"><ele>87.0</ele><time>2026-04-11T13:41:54Z</time></trkpt><trkpt lat="45.321003474661886" lon="9.277761853918836"><ele>87.0</ele><time>2026-04-11T13:41:55Z</time></trkpt><trkpt lat="45.32107156577452" lon="9.277884191917005"><ele>87.0</ele><time>2026-04-11T13:41:56Z</time></trkpt><trkpt lat="45.32111935328218" lon="9.278015645902892"><ele>87.0</ele><time>2026-04-11T13:41:57Z</time></trkpt><trkpt lat="45.321146388783916" lon="9.278151069631285"><ele>87.0</ele><time>2026-04-11T13:41:58Z</time></trkpt><trkpt lat="45.321176670357104" lon="9.278275066590313"><ele>87.0</ele><time>2026-04-11T13:41:59Z</time></trkpt><trkpt lat="45.321247045937305" lon="9.278365624809787"><ele>87.0</ele><time>2026-04-11T13:42:00Z</time></trkpt><trkpt lat="45.321374345690685" lon="9.278424719321215"><ele>87.0</ele><time>2026-04-11T13:42:01Z</time></trkpt><trkpt lat="45.32152452856422" lon="9.278505884792816"><ele>87.0</ele><time>2026-04-11T13:42:02Z</time></trkpt><trkpt lat="45.321668674958474" lon="9.278666799910644"><ele>87.0</ele><time>2026-04-11T13:42:03Z</time></trkpt><trkpt lat="45.32182176443514" lon="9.278902480728123"><ele>87.0</ele><time>2026-04-11T13:42:04Z</time></trkpt><trkpt lat="45.321979944137794" lon="9.279156010860678"><ele>87.0</ele><time>2026-04-11T13:42:05Z</time></trkpt><trkpt lat="45.322168088389496" lon="9.279416782144144"><ele>87.0</ele><time>2026-04-11T13:42:06Z</time></trkpt><trkpt lat="45.322376481640404" lon="9.2796903880525"><ele>87.0</ele><time>2026-04-11T13:42:07Z</time></trkpt><trkpt lat="45.32259334975255" lon="9.279981286314838"><ele>87.0</ele><time>2026-04-11T13:42:08Z</time></trkpt><trkpt lat="45.322808689038006" lon="9.28027814330609"><ele>87.0</ele><time>2026-04-11T13:42:09Z</time></trkpt><trkpt lat="45.32302916007465" lon="9.280587305295"><ele>87.0</ele><time>2026-04-11T13:42:10Z</time></trkpt><trkpt lat="45.32324877726628" lon="9.280901979296214"><ele>87.5</ele><time>2026-04-11T13:42:11Z</time></trkpt><trkpt lat="45.32347741901173" lon="9.281218805311152"><ele>88.0</ele><time>2026-04-11T13:42:12Z</time></trkpt><trkpt lat="45.323702185412756" lon="9.281522758240214"><ele>88.5</ele><time>2026-04-11T13:42:13Z</time></trkpt><trkpt lat="45.323889049844105" lon="9.281781338302757"><ele>89.0</ele><time>2026-04-11T13:42:14Z</time></trkpt><trkpt lat="45.324052796105065" lon="9.28201428160411"><ele>89.0</ele><time>2026-04-11T13:42:15Z</time></trkpt><trkpt lat="45.32420966215897" lon="9.282232046343493"><ele>89.0</ele><time>2026-04-11T13:42:16Z</time></trkpt><trkpt lat="45.32433862689407" lon="9.282410412396738"><ele>89.0</ele><time>2026-04-11T13:42:17Z</time></trkpt><trkpt lat="45.324449116308045" lon="9.282563846424319"><ele>88.80000000000001</ele><time>2026-04-11T13:42:18Z</time></trkpt><trkpt lat="45.324543111648005" lon="9.282698123131867"><ele>88.60000000000001</ele><time>2026-04-11T13:42:19Z</time></trkpt><trkpt lat="45.32462642966872" lon="9.282819068640135"><ele>88.4</ele><time>2026-04-11T13:42:20Z</time></trkpt><trkpt lat="45.324688474413335" lon="9.282923547907327"><ele>88.2</ele><time>2026-04-11T13:42:21Z</time></trkpt><trkpt lat="45.32471783860957" lon="9.283012251776698"><ele>88.0</ele><time>2026-04-11T13:42:23Z</time></trkpt><trkpt lat="45.3247452173514" lon="9.28310125897823"><ele>87.83333333333333</ele><time>2026-04-11T13:42:25Z</time></trkpt><trkpt lat="45.32477120188191" lon="9.283260207420389"><ele>87.66666666666666</ele><time>2026-04-11T13:42:27Z</time></trkpt><trkpt lat="45.324811156378225" lon="9.283335291939247"><ele>87.5</ele><time>2026-04-11T13:42:28Z</time></trkpt><trkpt lat="45.32487416824234" lon="9.2833841803261"><ele>87.33333333333333</ele><time>2026-04-11T13:42:29.001Z</time></trkpt><trkpt lat="45.324957897953034" lon="9.283372263879333"><ele>87.16666666666667</ele><time>2026-04-11T13:42:30.001Z</time></trkpt><trkpt lat="45.32502939665971" lon="9.28329194462591"><ele>87.0</ele><time>2026-04-11T13:42:31.001Z</time></trkpt><trkpt lat="45.325082117733565" lon="9.283148637955334"><ele>87.66666666666667</ele><time>2026-04-11T13:42:32.001Z</time></trkpt><trkpt lat="45.32513363410929" lon="9.282964654054476"><ele>88.33333333333334</ele><time>2026-04-11T13:42:33.001Z</time></trkpt><trkpt lat="45.32523239679516" lon="9.282776027604768"><ele>89.0</ele><time>2026-04-11T13:42:34.001Z</time></trkpt><trkpt lat="45.32535454563974" lon="9.282566433775854"><ele>89.0</ele><time>2026-04-11T13:42:35.001Z</time></trkpt><trkpt lat="45.325459491811" lon="9.282373324818295"><ele>89.0</ele><time>2026-04-11T13:42:36.001Z</time></trkpt><trkpt lat="45.32556162115574" lon="9.28219546902504"><ele>89.0</ele><time>2026-04-11T13:42:37.001Z</time></trkpt><trkpt lat="45.32565350535264" lon="9.282046007938867"><ele>89.0</ele><time>2026-04-11T13:42:38.001Z</time></trkpt><trkpt lat="45.32574334147697" lon="9.281907397939209"><ele>89.0</ele><time>2026-04-11T13:42:39.001Z</time></trkpt><trkpt lat="45.325842212203206" lon="9.28177167319957"><ele>89.0</ele><time>2026-04-11T13:42:40.001Z</time></trkpt><trkpt lat="45.32595125379226" lon="9.281643698784965"><ele>89.0</ele><time>2026-04-11T13:42:41.001Z</time></trkpt><trkpt lat="45.32607145704098" lon="9.28152189039141"><ele>88.75</ele><time>2026-04-11T13:42:42.001Z</time></trkpt><trkpt lat="45.32620290378634" lon="9.281411498619558"><ele>88.5</ele><time>2026-04-11T13:42:43.001Z</time></trkpt><trkpt lat="45.32632750584347" lon="9.28130233892919"><ele>88.25</ele><time>2026-04-11T13:42:44.001Z</time></trkpt><trkpt lat="45.32643278348176" lon="9.281211645468288"><ele>88.0</ele><time>2026-04-11T13:42:45.001Z</time></trkpt><trkpt lat="45.326521029192854" lon="9.281130522550761"><ele>88.33333333333333</ele><time>2026-04-11T13:42:46.001Z</time></trkpt><trkpt lat="45.32660444805663" lon="9.281049785317196"><ele>88.66666666666666</ele><time>2026-04-11T13:42:47.001Z</time></trkpt><trkpt lat="45.32668482185878" lon="9.280985586040375"><ele>89.0</ele><time>2026-04-11T13:42:48.001Z</time></trkpt><trkpt lat="45.32676144474705" lon="9.280925713181905"><ele>89.33333333333333</ele><time>2026-04-11T13:42:49.001Z</time></trkpt><trkpt lat="45.32682936598346" lon="9.280867062609097"><ele>89.66666666666667</ele><time>2026-04-11T13:42:50.001Z</time></trkpt><trkpt lat="45.32688584963861" lon="9.280807187520619"><ele>90.0</ele><time>2026-04-11T13:42:51.001Z</time></trkpt><trkpt lat="45.326955061361325" lon="9.28073759770438"><ele>90.0</ele><time>2026-04-11T13:42:52.001Z</time></trkpt><trkpt lat="45.32703393620859" lon="9.280658206302332"><ele>90.0</ele><time>2026-04-11T13:42:53.001Z</time></trkpt><trkpt lat="45.32711800863357" lon="9.28058181087199"><ele>90.0</ele><time>2026-04-11T13:42:54.001Z</time></trkpt><trkpt lat="45.32720340753131" lon="9.28050762963068"><ele>90.0</ele><time>2026-04-11T13:42:55.001Z</time></trkpt><trkpt lat="45.32729237350396" lon="9.280415962540706"><ele>90.0</ele><time>2026-04-11T13:42:56.001Z</time></trkpt><trkpt lat="45.32742955280549" lon="9.280308607647749"><ele>90.0</ele><time>2026-04-11T13:42:57.001Z</time></trkpt><trkpt lat="45.32758209195899" lon="9.280135423970362"><ele>90.0</ele><time>2026-04-11T13:42:58.001Z</time></trkpt><trkpt lat="45.32775248954717" lon="9.279973723234225"><ele>90.0</ele><time>2026-04-11T13:42:59.001Z</time></trkpt><trkpt lat="45.327900072073085" lon="9.27982940185243"><ele>89.25</ele><time>2026-04-11T13:43:00.001Z</time></trkpt><trkpt lat="45.3280316911266" lon="9.279705912273089"><ele>88.5</ele><time>2026-04-11T13:43:01.001Z</time></trkpt><trkpt lat="45.32814767043988" lon="9.279594940077438"><ele>87.75</ele><time>2026-04-11T13:43:02.001Z</time></trkpt><trkpt lat="45.32824344343505" lon="9.279506485649852"><ele>87.0</ele><time>2026-04-11T13:43:03.001Z</time></trkpt><trkpt lat="45.328321191124665" lon="9.279437026256076"><ele>87.0</ele><time>2026-04-11T13:43:04.001Z</time></trkpt><trkpt lat="45.32837873667148" lon="9.279387346695707"><ele>87.0</ele><time>2026-04-11T13:43:05.001Z</time></trkpt><trkpt lat="45.32843564528396" lon="9.279340301598936"><ele>87.0</ele><time>2026-04-11T13:43:07.001Z</time></trkpt><trkpt lat="45.32850817361861" lon="9.279252372605141"><ele>87.0</ele><time>2026-04-11T13:43:11.001Z</time></trkpt><trkpt lat="45.32859948759509" lon="9.27919573505047"><ele>87.0</ele><time>2026-04-11T13:43:13.001Z</time></trkpt><trkpt lat="45.32865737820984" lon="9.279142851706078"><ele>87.0</ele><time>2026-04-11T13:43:14.001Z</time></trkpt><trkpt lat="45.328741477417914" lon="9.279065836922106"><ele>87.0</ele><time>2026-04-11T13:43:15.001Z</time></trkpt><trkpt lat="45.328822129091364" lon="9.278990897036834"><ele>87.0</ele><time>2026-04-11T13:43:16.001Z</time></trkpt><trkpt lat="45.3288984054744" lon="9.27892002257931"><ele>87.0</ele><time>2026-04-11T13:43:17.001Z</time></trkpt><trkpt lat="45.32899728428765" lon="9.27882805892683"><ele>87.0</ele><time>2026-04-11T13:43:18.001Z</time></trkpt><trkpt lat="45.329121759731045" lon="9.27871124383402"><ele>87.0</ele><time>2026-04-11T13:43:19.001Z</time></trkpt><trkpt lat="45.32922893915571" lon="9.278610660339503"><ele>87.0</ele><time>2026-04-11T13:43:20.001Z</time></trkpt><trkpt lat="45.329340703288054" lon="9.278478505177237"><ele>87.0</ele><time>2026-04-11T13:43:21.001Z</time></trkpt><trkpt lat="45.32945522714372" lon="9.278376571057535"><ele>87.0</ele><time>2026-04-11T13:43:22.001Z</time></trkpt><trkpt lat="45.32958087365413" lon="9.278259193723525"><ele>87.0</ele><time>2026-04-11T13:43:23.001Z</time></trkpt><trkpt lat="45.329704181524114" lon="9.278146430472317"><ele>87.0</ele><time>2026-04-11T13:43:24.001Z</time></trkpt><trkpt lat="45.32982528485463" lon="9.278036946057945"><ele>87.0</ele><time>2026-04-11T13:43:25.001Z</time></trkpt><trkpt lat="45.329932776263455" lon="9.277938914503547"><ele>87.0</ele><time>2026-04-11T13:43:26.001Z</time></trkpt><trkpt lat="45.33002849895753" lon="9.277853752284027"><ele>87.16666666666667</ele><time>2026-04-11T13:43:27.001Z</time></trkpt><trkpt lat="45.330116372548886" lon="9.277775847529549"><ele>87.33333333333333</ele><time>2026-04-11T13:43:28.001Z</time></trkpt><trkpt lat="45.33019382191715" lon="9.27770865328141"><ele>87.5</ele><time>2026-04-11T13:43:29.001Z</time></trkpt><trkpt lat="45.3302535135263" lon="9.27766326496085"><ele>87.66666666666666</ele><time>2026-04-11T13:43:30.001Z</time></trkpt><trkpt lat="45.33032704798401" lon="9.277598725018146"><ele>87.83333333333333</ele><time>2026-04-11T13:43:32.002Z</time></trkpt><trkpt lat="45.33037731076685" lon="9.27753857438463"><ele>88.0</ele><time>2026-04-11T13:43:34.002Z</time></trkpt><trkpt lat="45.33046689129356" lon="9.277472274071476"><ele>88.0</ele><time>2026-04-11T13:43:36.002Z</time></trkpt><trkpt lat="45.330554102120125" lon="9.277389842810214"><ele>88.0</ele><time>2026-04-11T13:43:38.002Z</time></trkpt><trkpt lat="45.33067426605557" lon="9.277229848087464"><ele>88.0</ele><time>2026-04-11T13:43:40.002Z</time></trkpt><trkpt lat="45.330794270117714" lon="9.277119349803971"><ele>88.0</ele><time>2026-04-11T13:43:41.002Z</time></trkpt><trkpt lat="45.33092334284738" lon="9.276969749311265"><ele>88.66666666666666</ele><time>2026-04-11T13:43:42.002Z</time></trkpt><trkpt lat="45.331069141118164" lon="9.276769628532183"><ele>89.33333333333333</ele><time>2026-04-11T13:43:42.999Z</time></trkpt><trkpt lat="45.33125102253141" lon="9.276566460131397"><ele>90.0</ele><time>2026-04-11T13:43:43.999Z</time></trkpt><trkpt lat="45.33145036883084" lon="9.276356593082753"><ele>90.0</ele><time>2026-04-11T13:43:44.999Z</time></trkpt><trkpt lat="45.33164883865454" lon="9.276099433503617"><ele>90.0</ele><time>2026-04-11T13:43:45.999Z</time></trkpt><trkpt lat="45.33187045152017" lon="9.275891901151729"><ele>90.0</ele><time>2026-04-11T13:43:46.999Z</time></trkpt><trkpt lat="45.332076272176735" lon="9.27568407928682"><ele>90.0</ele><time>2026-04-11T13:43:47.999Z</time></trkpt><trkpt lat="45.33226557272512" lon="9.275504943183323"><ele>90.33333333333333</ele><time>2026-04-11T13:43:48.999Z</time></trkpt><trkpt lat="45.332429774185194" lon="9.275336871545518"><ele>90.66666666666666</ele><time>2026-04-11T13:43:49.999Z</time></trkpt><trkpt lat="45.33259910902408" lon="9.275203444651517"><ele>91.0</ele><time>2026-04-11T13:43:50.999Z</time></trkpt><trkpt lat="45.33276617662274" lon="9.27506360821631"><ele>91.0</ele><time>2026-04-11T13:43:51.999Z</time></trkpt><trkpt lat="45.33295280058861" lon="9.274898052300456"><ele>91.0</ele><time>2026-04-11T13:43:52.999Z</time></trkpt><trkpt lat="45.33315955633145" lon="9.274696593168407"><ele>90.5</ele><time>2026-04-11T13:43:53.999Z</time></trkpt><trkpt lat="45.333387627064525" lon="9.27450788830461"><ele>90.0</ele><time>2026-04-11T13:43:54.999Z</time></trkpt><trkpt lat="45.33361807949836" lon="9.27429951917895"><ele>90.0</ele><time>2026-04-11T13:43:55.999Z</time></trkpt><trkpt lat="45.33384810640949" lon="9.274064020798324"><ele>90.0</ele><time>2026-04-11T13:43:56.999Z</time></trkpt><trkpt lat="45.33408155556534" lon="9.273858282874633"><ele>89.66666666666667</ele><time>2026-04-11T13:43:57.999Z</time></trkpt><trkpt lat="45.334280706635155" lon="9.273691844672983"><ele>89.33333333333334</ele><time>2026-04-11T13:43:58.999Z</time></trkpt><trkpt lat="45.33446536726153" lon="9.273569271364279"><ele>89.0</ele><time>2026-04-11T13:43:59.999Z</time></trkpt><trkpt lat="45.33462878839369" lon="9.273445185641204"><ele>89.0</ele><time>2026-04-11T13:44:01Z</time></trkpt><trkpt lat="45.33477505976309" lon="9.273309508013073"><ele>89.0</ele><time>2026-04-11T13:44:02Z</time></trkpt><trkpt lat="45.33490607888839" lon="9.273216487832093"><ele>89.0</ele><time>2026-04-11T13:44:03Z</time></trkpt><trkpt lat="45.33501011962826" lon="9.27314502509626"><ele>89.0</ele><time>2026-04-11T13:44:04Z</time></trkpt><trkpt lat="45.3350967821143" lon="9.273086391496417"><ele>89.0</ele><time>2026-04-11T13:44:05Z</time></trkpt><trkpt lat="45.335191961202156" lon="9.273049528685386"><ele>89.0</ele><time>2026-04-11T13:44:06Z</time></trkpt><trkpt lat="45.33527827042435" lon="9.272934566365425"><ele>89.0</ele><time>2026-04-11T13:44:07Z</time></trkpt><trkpt lat="45.33539755874756" lon="9.272803233667485"><ele>89.0</ele><time>2026-04-11T13:44:08Z</time></trkpt><trkpt lat="45.335519268757174" lon="9.272714079757854"><ele>88.75</ele><time>2026-04-11T13:44:09Z</time></trkpt><trkpt lat="45.335667684355414" lon="9.272628938733597"><ele>88.5</ele><time>2026-04-11T13:44:10Z</time></trkpt><trkpt lat="45.335810177295855" lon="9.272544852958049"><ele>88.25</ele><time>2026-04-11T13:44:11Z</time></trkpt><trkpt lat="45.335906105017386" lon="9.272491592889608"><ele>88.0</ele><time>2026-04-11T13:44:12Z</time></trkpt><trkpt lat="45.335981307143" lon="9.272476266247997"><ele>88.0</ele><time>2026-04-11T13:44:13Z</time></trkpt><trkpt lat="45.33606071143997" lon="9.272499802525344"><ele>88.0</ele><time>2026-04-11T13:44:14Z</time></trkpt><trkpt lat="45.33614403739549" lon="9.272491027483923"><ele>88.0</ele><time>2026-04-11T13:44:15Z</time></trkpt><trkpt lat="45.336221125233344" lon="9.272405755635589"><ele>88.0</ele><time>2026-04-11T13:44:16Z</time></trkpt><trkpt lat="45.33631938138977" lon="9.272232450570627"><ele>88.0</ele><time>2026-04-11T13:44:17Z</time></trkpt><trkpt lat="45.33645773064066" lon="9.272165391979563"><ele>88.66666666666666</ele><time>2026-04-11T13:44:18Z</time></trkpt><trkpt lat="45.33663659299864" lon="9.272054883708885"><ele>89.33333333333333</ele><time>2026-04-11T13:44:19Z</time></trkpt><trkpt lat="45.33680545329844" lon="9.271950942747083"><ele>90.0</ele><time>2026-04-11T13:44:20Z</time></trkpt><trkpt lat="45.336940718392945" lon="9.271867189546583"><ele>90.0</ele><time>2026-04-11T13:44:21Z</time></trkpt><trkpt lat="45.33706121694839" lon="9.27179305750586"><ele>90.0</ele><time>2026-04-11T13:44:22Z</time></trkpt><trkpt lat="45.337181324215" lon="9.271715504986318"><ele>90.0</ele><time>2026-04-11T13:44:23Z</time></trkpt><trkpt lat="45.33730505696497" lon="9.271635611526204"><ele>90.0</ele><time>2026-04-11T13:44:24Z</time></trkpt><trkpt lat="45.33742095157581" lon="9.271546494251796"><ele>90.0</ele><time>2026-04-11T13:44:25Z</time></trkpt><trkpt lat="45.337545158851" lon="9.271481084021397"><ele>90.0</ele><time>2026-04-11T13:44:26Z</time></trkpt><trkpt lat="45.33767687618587" lon="9.271392963639551"><ele>90.0</ele><time>2026-04-11T13:44:27Z</time></trkpt><trkpt lat="45.337829949123474" lon="9.27128912563836"><ele>90.0</ele><time>2026-04-11T13:44:28Z</time></trkpt><trkpt lat="45.33798112270517" lon="9.271183718905869"><ele>90.2</ele><time>2026-04-11T13:44:29Z</time></trkpt><trkpt lat="45.33810556115384" lon="9.271105712224735"><ele>90.4</ele><time>2026-04-11T13:44:30Z</time></trkpt><trkpt lat="45.3382129958348" lon="9.271035877323262"><ele>90.6</ele><time>2026-04-11T13:44:31Z</time></trkpt><trkpt lat="45.338305236809546" lon="9.270999170968928"><ele>90.8</ele><time>2026-04-11T13:44:32Z</time></trkpt><trkpt lat="45.33839165374756" lon="9.270985541616373"><ele>91.0</ele><time>2026-04-11T13:44:33Z</time></trkpt><trkpt lat="45.33846276191023" lon="9.270971825620437"><ele>91.0</ele><time>2026-04-11T13:44:34Z</time></trkpt><trkpt lat="45.3385160906096" lon="9.270896859821189"><ele>91.0</ele><time>2026-04-11T13:44:35Z</time></trkpt><trkpt lat="45.33857269842574" lon="9.270790131612417"><ele>91.0</ele><time>2026-04-11T13:44:36Z</time></trkpt><trkpt lat="45.33869901552131" lon="9.270727577739384"><ele>91.0</ele><time>2026-04-11T13:44:37Z</time></trkpt><trkpt lat="45.33883811549273" lon="9.27063850501718"><ele>91.0</ele><time>2026-04-11T13:44:38Z</time></trkpt><trkpt lat="45.33899268454754" lon="9.270511194457685"><ele>91.0</ele><time>2026-04-11T13:44:39Z</time></trkpt><trkpt lat="45.33915688476661" lon="9.270420234975681"><ele>91.0</ele><time>2026-04-11T13:44:40Z</time></trkpt><trkpt lat="45.33928649266717" lon="9.270324651672894"><ele>91.0</ele><time>2026-04-11T13:44:41Z</time></trkpt><trkpt lat="45.33941829633306" lon="9.270240006012573"><ele>91.0</ele><time>2026-04-11T13:44:42Z</time></trkpt><trkpt lat="45.33954226066303" lon="9.27016199101088"><ele>91.0</ele><time>2026-04-11T13:44:43.001Z</time></trkpt><trkpt lat="45.3396450536296" lon="9.270094565536139"><ele>91.0</ele><time>2026-04-11T13:44:44.001Z</time></trkpt><trkpt lat="45.339724646989424" lon="9.270041139253484"><ele>90.8</ele><time>2026-04-11T13:44:45.001Z</time></trkpt><trkpt lat="45.33978961084096" lon="9.269996946550608"><ele>90.6</ele><time>2026-04-11T13:44:46.001Z</time></trkpt><trkpt lat="45.33986749282529" lon="9.269964742699104"><ele>90.4</ele><time>2026-04-11T13:44:48.001Z</time></trkpt><trkpt lat="45.33981867943874" lon="9.26977714823328"><ele>90.2</ele><time>2026-04-11T13:44:50.001Z</time></trkpt><trkpt lat="45.3397740952633" lon="9.269653551390057"><ele>90.0</ele><time>2026-04-11T13:44:51.001Z</time></trkpt><trkpt lat="45.33973030330057" lon="9.269527847482243"><ele>90.0</ele><time>2026-04-11T13:44:52.001Z</time></trkpt><trkpt lat="45.33969304085035" lon="9.269440054121418"><ele>90.0</ele><time>2026-04-11T13:44:53.001Z</time></trkpt><trkpt lat="45.3396584686576" lon="9.269363663196868"><ele>90.0</ele><time>2026-04-11T13:44:55.001Z</time></trkpt><trkpt lat="45.339561665609295" lon="9.269407413791493"><ele>90.0</ele><time>2026-04-11T13:44:56.001Z</time></trkpt><trkpt lat="45.3394889557891" lon="9.269472887888282"><ele>90.0</ele><time>2026-04-11T13:44:57.001Z</time></trkpt><trkpt lat="45.33942487921309" lon="9.269534124248969"><ele>90.0</ele><time>2026-04-11T13:44:58.001Z</time></trkpt><trkpt lat="45.33933742168198" lon="9.269614528563622"><ele>90.0</ele><time>2026-04-11T13:45:00.001Z</time></trkpt></trkseg></trk></gpx>